Date StartTime U_cm/s V_cm/s W_cm/s Ustd_cm/s Vstd_cm/s Wstd_cm/s Uvar_(cm/s)^2 Vvar_(cm/s)^2 Wvar_(cm/s)^2 KE_(m/s)^2 TurbulentKE_(m/s)^2 HorizWindSpeed_cm/s FrictionSpeec_cm/s DragCoef SpeedOfSound_m/s SonicTemperature_C Pressure_mb 
02/26/2014  00:00:00      -46.576      -12.897       -8.901       11.077        8.678        7.234      122.708       75.309       52.331        0.133        0.013       48.329        5.589        0.013      337.511        9.534      858.455
02/26/2014  00:01:00      -48.029      -26.390       -2.255       15.037       13.323       11.166      226.113      177.498      124.673        0.177        0.026       54.802        7.197        0.017      337.567        9.629      858.460
02/26/2014  00:02:00      -66.296      -29.506        3.536       19.697       16.671       14.767      387.986      277.928      218.052        0.308        0.044       72.565       12.495        0.030      337.421        9.383      858.461
02/26/2014  00:03:00      -99.548      -32.088       -2.282       20.830       14.332       12.953      433.881      205.418      167.791        0.588        0.040      104.592       10.413        0.010      337.374        9.304      858.468
02/26/2014  00:04:00      -90.980      -26.991       -5.061       27.720       17.167       12.054      768.411      294.692      145.293        0.512        0.060       94.900       10.271        0.012      337.357        9.277      858.472
02/26/2014  00:05:00      -94.629      -35.795       -3.126       37.931       18.792       15.396     1438.787      353.156      237.022        0.614        0.101      101.173       12.901        0.016      337.360        9.281      858.475
02/26/2014  00:06:00      -90.665      -51.935       -9.573       27.355       17.998       11.861      748.277      323.931      140.693        0.611        0.061      104.486       11.983        0.013      337.330        9.231      858.483
02/26/2014  00:07:00      -91.538      -45.674        2.143       24.897       19.320       16.322      619.850      373.257      266.392        0.586        0.063      102.301       13.830        0.018      337.346        9.259      858.472
02/26/2014  00:08:00     -102.137      -33.852       -4.414       22.482       18.770       12.599      505.459      352.327      158.727        0.631        0.051      107.601        9.210        0.007      337.340        9.248      858.460
02/26/2014  00:09:00      -95.077      -47.824       -3.942       22.229       19.446       17.208      494.113      378.135      296.103        0.626        0.058      106.427       12.055        0.013      337.385        9.324      858.443
02/26/2014  00:10:00      -77.837      -20.007       -1.235       36.390       16.397       14.197     1324.198      268.861      201.567        0.413        0.090       80.368       17.664        0.048      337.361        9.283      858.417
02/26/2014  00:11:00     -106.972      -34.028      -12.178       14.579       19.376       13.947      212.558      375.446      194.519        0.677        0.039      112.254        7.930        0.005      337.355        9.273      858.385
02/26/2014  00:12:00     -112.910      -17.374      -14.764       26.866       20.887       18.343      721.774      436.284      336.464        0.738        0.075      114.239       15.295        0.018      337.330        9.231      858.354
02/26/2014  00:13:00      -69.591        5.353       -0.072       47.699       34.313       21.870     2275.172     1177.349      478.317        0.440        0.197       69.796       21.855        0.098      337.483        9.487      858.327
02/26/2014  00:14:00      -73.790       23.217       -5.150       52.171       21.921       20.950     2721.825      480.540      438.884        0.483        0.182       77.357       23.798        0.095      337.513        9.538      858.304
02/26/2014  00:15:00      -42.184        7.743       -5.971       30.330       16.112       17.167      919.935      259.598      294.693        0.167        0.074       42.889        7.363        0.029      337.409        9.364      858.291
02/26/2014  00:16:00      -46.857       -7.456      -11.027       20.347       23.987       18.438      414.016      575.372      339.946        0.185        0.066       47.446       11.762        0.061      337.447        9.428      858.275
02/26/2014  00:17:00      -52.302      -14.487       -9.586       13.725       28.180       14.294      188.373      794.128      204.322        0.211        0.059       54.271        6.071        0.013      337.249        9.095      858.261
02/26/2014  00:18:00      -74.324      -18.954       -9.505       29.892       23.099       15.789      893.556      533.556      249.292        0.382        0.084       76.703       11.740        0.023      337.116        8.873      858.236
02/26/2014  00:19:00      -84.428      -19.952       -5.811       39.823       29.558       17.919     1585.864      873.701      321.094        0.517        0.139       86.754        7.864        0.008      336.970        8.628      858.231
02/26/2014  00:20:00      -68.199      -16.609       -5.515       29.301       19.071       16.170      858.553      363.716      261.474        0.322        0.074       70.192       13.205        0.035      336.983        8.649      858.229
02/26/2014  00:21:00      -59.629      -21.056       -2.636       17.652       20.884       11.653      311.606      436.144      135.793        0.244        0.044       63.238       10.334        0.027      337.032        8.731      858.219
02/26/2014  00:22:00      -44.325       -5.893      -13.391       28.235       21.131       18.141      797.210      446.524      329.085        0.188        0.079       44.715       18.601        0.173      337.265        9.122      858.210
02/26/2014  00:23:00      -49.939      -18.102       -8.100       13.983       19.194        8.936      195.519      368.408       79.855        0.177        0.032       53.119        7.350        0.019      337.096        8.838      858.205
02/26/2014  00:24:00      -33.167      -33.909       -9.225       20.981       15.737       11.876      440.210      247.661      141.044        0.158        0.041       47.433       10.392        0.048      336.981        8.647      858.197
02/26/2014  00:25:00      -25.099      -14.750       -5.901       16.587       17.555       13.032      275.141      308.181      169.835        0.082        0.038       29.112        4.732        0.026      337.013        8.699      858.196
02/26/2014  00:26:00      -56.978      -23.219       -8.182       16.894       21.654       12.976      285.423      468.913      168.389        0.239        0.046       61.528        8.253        0.018      336.950        8.595      858.199
02/26/2014  00:27:00      -53.465      -29.216       -9.764       11.334       12.619        9.110      128.449      159.234       82.990        0.209        0.019       60.927        8.496        0.019      336.773        8.300      858.192
02/26/2014  00:28:00      -44.342      -25.940       -9.581       13.555       13.655        9.181      183.737      186.459       84.283        0.159        0.023       51.372        6.020        0.014      336.829        8.392      858.189
02/26/2014  00:29:00      -59.467      -27.298      -15.737       14.998       13.087       10.169      224.954      171.259      103.405        0.251        0.025       65.433        9.602        0.022      336.921        8.546      858.188
02/26/2014  00:30:00      -65.605      -29.792      -17.446        9.274        8.600        8.284       86.004       73.968       68.617        0.286        0.011       72.053        6.163        0.007      336.846        8.423      858.197
02/26/2014  00:31:00      -78.667      -41.166      -13.961       14.898       10.343        8.827      221.960      106.975       77.909        0.424        0.020       88.787        5.690        0.004      336.859        8.444      858.210
02/26/2014  00:32:00      -90.530      -47.193      -13.659        9.666        9.606        7.754       93.428       92.285       60.118        0.543        0.012      102.093        3.762        0.001      336.891        8.496      858.216
02/26/2014  00:33:00      -96.753      -45.118      -16.248       11.063       19.218       12.323      122.380      369.329      151.845        0.615        0.032      106.756        8.357        0.006      336.817        8.374      858.211
02/26/2014  00:34:00     -127.119      -30.040      -12.717       20.187       13.571       12.555      407.498      184.181      157.637        0.899        0.037      130.620        9.758        0.006      336.870        8.462      858.214
02/26/2014  00:35:00     -110.650      -19.162      -10.596       19.539       21.393       15.425      381.772      457.660      237.917        0.690        0.054      112.297       12.134        0.012      336.815        8.370      858.214
02/26/2014  00:36:00     -103.306      -36.054       -2.581       19.766       18.566       13.323      390.681      344.685      177.495        0.645        0.046      109.417       11.192        0.010      336.856        8.439      858.218
02/26/2014  00:37:00     -100.368      -34.265       -7.039       21.213       15.775       12.445      449.976      248.842      154.878        0.608        0.043      106.056       10.838        0.010      336.841        8.414      858.230
02/26/2014  00:38:00     -114.001      -40.734       -8.092        9.208       13.624        8.262       84.792      185.600       68.267        0.753        0.017      121.060        3.821        0.001      336.786        8.323      858.237
02/26/2014  00:39:00      -76.896      -61.258       -4.978       22.682       22.985       16.940      514.477      528.332      286.980        0.551        0.066       98.313       14.102        0.021      336.824        8.385      858.248
02/26/2014  00:40:00     -106.361      -47.873       -1.670       26.277       20.800       17.646      690.479      432.651      311.389        0.752        0.072      116.639       16.345        0.020      336.861        8.448      858.264
02/26/2014  00:41:00      -85.441      -49.273       -3.390       27.616       19.856       16.093      762.619      394.253      258.969        0.558        0.071       98.631       11.589        0.014      336.888        8.492      858.284
02/26/2014  00:42:00      -98.297      -46.828        3.103       35.900       29.198       21.938     1288.783      852.551      481.277        0.724        0.131      108.882       20.696        0.036      336.860        8.445      858.292
02/26/2014  00:43:00     -121.444      -42.633        1.000       27.993       30.342       16.913      783.606      920.659      286.056        0.928        0.100      128.710       10.880        0.007      336.846        8.422      858.301
02/26/2014  00:44:00     -113.495      -26.364       -0.943       31.309       27.952       17.601      980.226      781.309      309.796        0.782        0.104      116.517       15.931        0.019      336.819        8.377      858.304
02/26/2014  00:45:00     -113.460      -33.346       -3.392       25.825       20.127       15.994      666.941      405.102      255.800        0.766        0.066      118.259       14.820        0.016      336.821        8.380      858.305
02/26/2014  00:46:00      -84.000      -54.032        1.925       39.406       26.980       21.165     1552.863      727.909      447.936        0.635        0.136       99.877       20.315        0.041      336.767        8.292      858.321
02/26/2014  00:47:00     -118.535      -43.687        1.415       36.366       31.686       27.347     1322.518     1003.989      747.843        0.952        0.154      126.329       25.871        0.042      336.640        8.078      858.332
02/26/2014  00:48:00     -111.715      -56.755       -6.121       37.391       21.443       14.527     1398.056      459.818      211.022        0.890        0.103      125.305       11.405        0.008      336.757        8.273      858.334
02/26/2014  00:49:00      -49.421      -44.186        0.130       45.923       40.444       21.866     2108.942     1635.724      478.129        0.431        0.211       66.294       24.136        0.133      336.800        8.345      858.339
02/26/2014  00:50:00      -99.053      -40.248        3.525       35.051       30.415       18.218     1228.560      925.043      331.908        0.696        0.124      106.918       15.869        0.022      336.741        8.246      858.350
02/26/2014  00:51:00      -89.255      -41.432        1.857       27.260       24.722       18.532      743.108      611.161      343.430        0.569        0.085       98.403       13.612        0.019      336.834        8.402      858.359
02/26/2014  00:52:00      -33.581      -25.113        6.737       41.348       24.576       19.228     1709.673      603.990      369.714        0.224        0.134       41.933       20.826        0.247      336.942        8.580      858.366
02/26/2014  00:53:00      -49.416      -45.218       11.723       48.638       29.928       22.312     2365.673      895.660      497.843        0.419        0.188       66.982       25.460        0.144      336.923        8.549      858.365
02/26/2014  00:54:00     -117.791      -68.711       -1.777       28.521       21.175       18.573      813.460      448.365      344.949        1.010        0.080      136.366       15.620        0.013      336.869        8.461      858.357
02/26/2014  00:55:00     -108.124      -77.233       -1.903       29.451       29.650       22.030      867.385      879.105      485.315        0.995        0.112      132.875       15.396        0.013      336.919        8.542      858.360
02/26/2014  00:56:00      -96.792      -62.512        0.162       26.338       25.392       20.171      693.695      644.752      406.878        0.751        0.087      115.224       16.926        0.022      336.963        8.616      858.366
02/26/2014  00:57:00     -119.909      -48.323       -4.813       28.807       23.898       17.425      829.841      571.107      303.628        0.922        0.085      129.280       18.798        0.021      336.958        8.609      858.367
02/26/2014  00:58:00     -113.025      -23.422       -3.187       33.665       24.890       18.437     1133.322      619.495      339.939        0.771        0.105      115.427       17.416        0.023      336.892        8.498      858.364
02/26/2014  00:59:00     -145.541       -8.912      -13.178       26.625       25.446       19.837      708.894      647.519      393.513        1.159        0.087      145.813       13.046        0.008      336.899        8.510      858.359
02/26/2014  01:00:00     -107.129      -27.118       -0.731       43.154       27.882       18.362     1862.279      777.393      337.166        0.759        0.149      110.508       19.129        0.030      336.857        8.440      858.360
02/26/2014  01:01:00     -119.307      -33.883       -2.156       28.051       27.847       16.245      786.862      775.461      263.896        0.861        0.091      124.025       14.646        0.014      336.899        8.509      858.364
02/26/2014  01:02:00     -119.803      -52.281       -2.393       29.341       29.065       18.269      860.870      844.746      333.759        0.957        0.102      130.714       17.187        0.017      336.924        8.551      858.359
02/26/2014  01:03:00      -82.480      -27.688        5.220       37.444       26.373       17.531     1402.079      695.543      307.336        0.500        0.120       87.003       15.954        0.034      336.964        8.616      858.340
02/26/2014  01:04:00      -84.930      -36.533       -4.933       37.424       22.269       18.170     1400.532      495.904      330.146        0.540        0.111       92.454       20.724        0.050      336.960        8.611      858.331
02/26/2014  01:05:00     -102.014      -18.436       -7.698       25.722       19.753       13.530      661.612      390.175      183.061        0.602        0.062      103.666       11.749        0.013      336.886        8.488      858.320
02/26/2014  01:06:00     -122.221      -13.281      -19.102       18.876       19.210       15.604      356.299      369.005      243.494        0.822        0.048      122.941       10.208        0.007      336.917        8.541      858.318
02/26/2014  01:07:00     -124.326      -21.962      -14.045       17.739       18.782       13.247      314.664      352.778      175.475        0.849        0.042      126.251        4.644        0.001      336.928        8.558      858.312
02/26/2014  01:08:00     -107.806      -30.674       -8.385       34.584       25.628       21.553     1196.086      656.812      464.511        0.747        0.116      112.085       19.469        0.030      336.995        8.670      858.308
02/26/2014  01:09:00      -94.332      -22.941       -2.183       38.838       25.098       21.742     1508.385      629.924      472.703        0.602        0.131       97.082       19.596        0.041      337.124        8.887      858.303
02/26/2014  01:10:00      -80.419      -27.126       -5.809       39.217       33.663       14.339     1537.963     1133.230      205.605        0.506        0.144       84.871       18.022        0.045      337.034        8.736      858.297
02/26/2014  01:11:00      -54.526      -16.338        2.369       42.173       27.275       22.080     1778.540      743.930      487.515        0.313        0.150       56.922       17.926        0.099      337.031        8.729      858.299
02/26/2014  01:12:00     -116.330      -33.541      -14.534       31.575       30.756       19.254      997.004      945.957      370.714        0.859        0.116      121.069       17.907        0.022      337.066        8.789      858.309
02/26/2014  01:13:00      -30.746      -36.311        8.652       44.820       39.968       30.715     2008.788     1597.416      943.437        0.344        0.227       47.580       29.260        0.378      337.145        8.920      858.314
02/26/2014  01:14:00      -23.154        2.995        3.347       30.929       17.106       21.640      956.612      292.631      468.273        0.114        0.086       23.347       22.138        0.899      337.249        9.096      858.312
02/26/2014  01:15:00      -14.112      -11.380       11.856       32.329       23.482       15.245     1045.162      551.426      232.424        0.115        0.091       18.129       16.987        0.878      337.252        9.101      858.312
02/26/2014  01:16:00      -25.966      -28.690       14.050       27.302       23.963       17.807      745.385      574.209      317.085        0.167        0.082       38.695       15.783        0.166      337.015        8.705      858.316
02/26/2014  01:17:00      -83.869      -45.574       -8.196       33.095       19.053       17.702     1095.265      363.024      313.364        0.547        0.089       95.451       19.214        0.041      336.899        8.510      858.326
02/26/2014  01:18:00     -117.766      -27.073      -14.196       22.455       17.317       16.134      504.242      299.894      260.300        0.793        0.053      120.838       12.815        0.011      336.961        8.614      858.335
02/26/2014  01:19:00      -75.547      -36.419       -6.235       17.702       13.193       13.860      313.362      174.050      192.089        0.388        0.034       83.867       11.405        0.018      336.828        8.392      858.338
02/26/2014  01:20:00      -84.766      -36.519      -11.975       15.385       16.284       11.067      236.696      265.153      122.484        0.464        0.031       92.298        8.646        0.009      337.005        8.686      858.332
02/26/2014  01:21:00      -84.861      -31.310       -9.816       20.846       16.477       11.183      434.554      271.480      125.048        0.455        0.042       90.452        4.682        0.003      336.973        8.631      858.330
02/26/2014  01:22:00     -103.766      -32.499       -7.210       11.850       12.950        7.241      140.434      167.714       52.435        0.612        0.018      108.736        5.854        0.003      336.973        8.631      858.322
02/26/2014  01:23:00      -96.915      -16.082       -5.043       14.674       14.376       12.539      215.328      206.657      157.231        0.513        0.029       98.240       10.107        0.011      336.999        8.675      858.311
02/26/2014  01:24:00      -73.020      -19.872       -8.358       16.968       12.911       10.812      287.906      166.700      116.903        0.318        0.029       75.676        9.901        0.017      337.071        8.795      858.305
02/26/2014  01:25:00      -58.602      -18.283       -6.008       20.702       11.032       11.463      428.588      121.708      131.399        0.224        0.034       61.388       12.617        0.042      337.078        8.808      858.301
02/26/2014  01:26:00      -23.109       10.912       -6.312       13.652       13.594        6.259      186.383      184.805       39.181        0.055        0.021       25.556        3.803        0.022      337.176        8.973      858.295
02/26/2014  01:27:00       -0.778       17.152        7.462       15.049       12.182       15.632      226.469      148.400      244.370        0.048        0.031       17.170       12.030        0.491      337.128        8.894      858.298
02/26/2014  01:28:00       16.992       20.686       -6.845        7.047       13.699        9.720       49.661      187.651       94.474        0.055        0.017       26.770        4.261        0.025      337.454        9.438      858.300
02/26/2014  01:29:00       13.285       17.704       11.487        9.420       12.800       13.080       88.735      163.835      171.083        0.052        0.021       22.134        8.189        0.137      337.178        8.978      858.305
02/26/2014  01:30:00       10.695       10.408       -0.084        8.871        7.013        6.200       78.703       49.180       38.443        0.019        0.008       14.923        4.416        0.088      337.016        8.706      858.312
02/26/2014  01:31:00        9.333        4.775       -1.865        6.767        4.247        6.877       45.789       18.039       47.288        0.011        0.006       10.483        2.985        0.081      336.893        8.500      858.318
02/26/2014  01:32:00      -19.182       -6.906        1.267       23.886        9.863        5.078      570.523       97.279       25.788        0.056        0.035       20.387        4.307        0.045      336.889        8.492      858.323
02/26/2014  01:33:00      -55.354      -14.479       -6.274        7.609        5.962        7.927       57.898       35.548       62.839        0.173        0.008       57.217        3.687        0.004      336.751        8.262      858.327
02/26/2014  01:34:00      -60.017      -16.930       -6.661        7.333        7.170        7.572       53.766       51.406       57.340        0.205        0.008       62.359        4.203        0.005      336.814        8.368      858.334
02/26/2014  01:35:00      -62.457      -28.923       -6.844        7.729        9.590        4.561       59.742       91.959       20.802        0.248        0.009       68.829        3.112        0.002      336.845        8.423      858.342
02/26/2014  01:36:00      -25.355      -24.508       11.820       26.428       13.831       14.401      698.461      191.292      207.391        0.124        0.055       35.264       14.302        0.164      336.867        8.457      858.351
02/26/2014  01:37:00      -16.662      -18.943       15.379       25.423       15.348       15.740      646.340      235.552      247.761        0.100        0.056       25.228       16.386        0.422      336.806        8.355      858.363
02/26/2014  01:38:00      -36.569      -30.948       15.313       55.655       26.006       17.770     3097.528      676.313      315.775        0.331        0.204       47.907       19.529        0.166      336.907        8.522      858.364
02/26/2014  01:39:00      -23.848       -9.978       16.122       26.293       24.711       14.560      691.332      610.651      212.006        0.122        0.076       25.852       15.269        0.349      336.974        8.634      858.357
02/26/2014  01:40:00      -38.520      -37.847        0.491       32.059       22.359       17.608     1027.773      499.937      310.059        0.238        0.092       54.002        9.191        0.029      337.057        8.773      858.341
02/26/2014  01:41:00      -40.883      -42.875        1.833       46.011       22.178       16.512     2117.003      491.843      272.643        0.320        0.144       59.243       20.046        0.114      337.057        8.771      858.335
02/26/2014  01:42:00      -63.088      -59.179        0.258       19.974       23.059       16.938      398.951      531.719      286.894        0.435        0.061       86.500        9.567        0.012      336.959        8.609      858.323
02/26/2014  01:43:00      -26.174      -26.826        7.969       28.397       20.348       16.662      806.412      414.032      277.606        0.148        0.075       37.479       12.491        0.111      336.978        8.640      858.330
02/26/2014  01:44:00      -37.976      -23.850        8.813       42.888       18.917       18.691     1839.381      357.851      349.355        0.232        0.127       44.844       21.451        0.229      336.925        8.552      858.332
02/26/2014  01:45:00      -61.311      -35.930        4.169       40.863       24.587       16.773     1669.805      604.531      281.350        0.381        0.128       71.063       19.247        0.073      336.872        8.466      858.324
02/26/2014  01:46:00      -36.856      -25.794       10.945       37.455       24.169       20.748     1402.909      584.156      430.470        0.228        0.121       44.986       20.483        0.207      336.844        8.419      858.315
02/26/2014  01:47:00      -73.222      -83.917       -2.824       47.789       34.407       22.157     2283.748     1183.841      490.919        0.818        0.198      111.371       25.536        0.053      336.903        8.516      858.304
02/26/2014  01:48:00      -56.899      -62.226        9.137       45.436       31.796       24.759     2064.466     1010.973      613.014        0.544        0.184       84.319       26.091        0.096      336.919        8.542      858.299
02/26/2014  01:49:00      -43.715      -44.617        4.729       38.254       23.692       20.028     1463.394      561.300      401.115        0.317        0.121       62.464       17.838        0.082      336.904        8.519      858.293
02/26/2014  01:50:00      -84.712      -25.963       -7.690       22.845       23.993       10.169      521.901      575.678      103.399        0.455        0.060       88.601        6.107        0.005      336.745        8.253      858.299
02/26/2014  01:51:00      -65.348      -25.936       -2.417       27.006       19.002       16.016      729.328      361.082      256.521        0.315        0.067       70.307       17.251        0.060      336.690        8.162      858.302
02/26/2014  01:52:00      -68.650      -25.091       -4.325       17.247       15.958       13.479      297.463      254.672      181.678        0.305        0.037       73.091        5.755        0.006      336.744        8.252      858.308
02/26/2014  01:53:00      -48.444      -37.353        7.088       29.941       20.463       14.220      896.445      418.734      202.203        0.265        0.076       61.173       15.335        0.063      336.774        8.303      858.313
02/26/2014  01:54:00      -59.501      -25.735        3.285       34.695       18.835       14.482     1203.749      354.759      209.730        0.299        0.088       64.828        9.987        0.024      336.740        8.246      858.327
02/26/2014  01:55:00      -64.177      -23.458        1.743       42.828       25.141       19.424     1834.219      632.087      377.288        0.376        0.142       68.330       22.940        0.113      336.659        8.110      858.334
02/26/2014  01:56:00      -91.099      -36.271       -2.808       16.934       18.383       11.640      286.753      337.925      135.500        0.519        0.038       98.054        7.589        0.006      336.664        8.119      858.325
02/26/2014  01:57:00      -70.129       -4.706        0.671       19.506       18.138       14.324      380.491      328.979      205.178        0.293        0.046       70.287       11.481        0.027      336.736        8.240      858.301
02/26/2014  01:58:00      -98.980      -17.649      -16.817       14.908       18.216       10.592      222.244      331.819      112.197        0.553        0.033      100.541        4.503        0.002      336.783        8.318      858.266
02/26/2014  01:59:00      -57.929      -28.792       -0.623       26.700       26.812       23.532      712.890      718.857      553.747        0.308        0.099       64.690       17.093        0.070      336.933        8.566      858.235
02/26/2014  02:00:00      -44.635      -33.956        3.966       34.719       26.705       18.837     1205.438      713.137      354.849        0.272        0.114       56.083       16.875        0.091      336.855        8.436      858.211
02/26/2014  02:01:00      -96.952      -22.120       -9.756       23.267       11.425       12.133      541.337      130.526      147.199        0.540        0.041       99.444       11.879        0.014      336.644        8.085      858.195
02/26/2014  02:02:00      -99.211      -32.564       -9.216       18.839       17.837       17.069      354.905      318.151      291.334        0.598        0.048      104.419       15.670        0.023      336.605        8.020      858.177
02/26/2014  02:03:00      -91.027      -34.679       -9.808       21.386       11.681       13.211      457.353      136.446      174.519        0.518        0.038       97.409        7.714        0.006      336.591        7.996      858.154
02/26/2014  02:04:00      -58.268      -25.838      -12.076       24.347       21.726       11.320      592.760      472.014      128.145        0.270        0.060       63.740        6.802        0.011      336.612        8.031      858.133
02/26/2014  02:05:00      -65.911      -25.363      -10.732       15.410       14.559       11.763      237.480      211.958      138.359        0.285        0.029       70.623        5.447        0.006      336.541        7.912      858.113
02/26/2014  02:06:00      -71.027      -30.364       -9.754       16.082       11.066        9.000      258.633      122.466       80.994        0.326        0.023       77.245        7.057        0.008      336.542        7.915      858.086
02/26/2014  02:07:00      -57.068      -44.545       -5.227       15.304       15.396        8.771      234.209      237.050       76.932        0.291        0.027       72.395        4.046        0.003      336.493        7.830      858.060
02/26/2014  02:08:00       -2.902      -30.505        8.225       29.381       19.510       15.697      863.231      380.644      246.395        0.125        0.075       30.642       11.284        0.136      336.631        8.066      858.045
02/26/2014  02:09:00      -71.051      -38.556       -3.575       17.763       16.726       14.958      315.528      279.757      223.740        0.368        0.041       80.838       11.873        0.022      336.515        7.869      858.033
02/26/2014  02:10:00      -88.006      -25.939      -10.595       14.108       18.282       10.591      199.024      334.224      112.179        0.459        0.032       91.749       10.523        0.013      336.469        7.791      858.018
02/26/2014  02:11:00      -95.606      -30.653      -13.839       20.980       15.913        9.702      440.181      253.230       94.121        0.553        0.039      100.399       10.795        0.012      336.440        7.743      858.007
02/26/2014  02:12:00      -87.160      -39.516      -13.474       38.885       21.403       12.323     1512.009      458.083      151.858        0.573        0.106       95.699       15.027        0.025      336.469        7.792      857.995
02/26/2014  02:13:00      -75.481      -39.802        0.978       29.740       23.560       20.510      884.461      555.054      420.664        0.457        0.093       85.332       17.593        0.043      336.504        7.850      857.981
02/26/2014  02:14:00      -95.244      -53.232      -15.549       21.326       23.403       17.846      454.798      547.713      318.495        0.673        0.066      109.110       14.114        0.017      336.414        7.701      857.975
02/26/2014  02:15:00      -80.504      -54.530       -2.009       28.349       23.427       17.933      803.687      548.833      321.608        0.557        0.084       97.234       14.145        0.021      336.507        7.855      857.969
02/26/2014  02:16:00      -68.676      -62.618        4.721       44.966       32.394       22.257     2021.900     1049.372      495.380        0.611        0.178       92.938       19.943        0.046      336.536        7.904      857.965
02/26/2014  02:17:00      -84.632      -41.931       -2.617       38.111       20.276       12.541     1452.479      411.109      157.281        0.547        0.101       94.450       15.549        0.027      336.516        7.870      857.946
02/26/2014  02:18:00      -92.622      -53.179       -4.354       21.347       16.489       13.447      455.714      271.881      180.825        0.617        0.045      106.803       11.003        0.011      336.558        7.942      857.938
02/26/2014  02:19:00      -42.430      -33.975        5.632       29.278       16.616       12.548      857.207      276.107      157.443        0.214        0.065       54.356       11.995        0.049      336.626        8.055      857.933
02/26/2014  02:20:00      -24.465      -21.273        8.056       28.640       18.580       16.792      820.273      345.204      281.988        0.128        0.072       32.420       16.140        0.248      336.682        8.150      857.923
02/26/2014  02:21:00      -34.505      -26.237        5.049       39.513       14.354       14.151     1561.286      206.036      200.239        0.194        0.098       43.347       17.876        0.170      336.676        8.138      857.907
02/26/2014  02:22:00      -84.522      -16.640       -8.642        9.792        8.489       11.657       95.874       72.055      135.885        0.390        0.015       86.145        6.216        0.005      336.514        7.866      857.891
02/26/2014  02:23:00      -74.825      -32.515      -14.977        7.330        8.063        6.106       53.729       65.012       37.289        0.352        0.008       81.585        3.227        0.002      336.518        7.875      857.867
02/26/2014  02:24:00      -73.538      -28.775      -14.758        9.232        8.917        7.959       85.238       79.513       63.347        0.334        0.011       78.968        5.407        0.005      336.527        7.889      857.844
02/26/2014  02:25:00      -85.731      -36.436        2.367       20.732       17.785       15.826      429.818      316.302      250.461        0.484        0.050       93.152       11.816        0.016      336.609        8.027      857.831
02/26/2014  02:26:00      -48.551      -43.648        6.673       45.012       28.142       21.016     2026.085      791.981      441.655        0.378        0.163       65.286       21.425        0.108      336.681        8.148      857.819
02/26/2014  02:27:00      -43.038      -42.617        8.648       35.819       30.137       24.955     1283.003      908.260      622.777        0.328        0.141       60.568       21.717        0.129      336.654        8.102      857.821
02/26/2014  02:28:00      -48.155      -36.017       10.381       44.577       28.826       21.843     1987.124      830.914      477.134        0.351        0.165       60.134       20.467        0.116      336.617        8.040      857.827
02/26/2014  02:29:00      -68.804      -42.807        3.648       38.797       34.628       22.455     1505.240     1199.129      504.247        0.489        0.160       81.034       21.471        0.070      336.620        8.045      857.830
02/26/2014  02:30:00      -75.751      -33.429        6.901       52.863       32.550       19.211     2794.469     1059.484      369.051        0.556        0.211       82.800       23.779        0.082      336.596        8.006      857.831
02/26/2014  02:31:00     -120.473      -58.143       -1.369       40.861       35.338       25.605     1669.660     1248.763      655.627        1.073        0.179      133.770       17.348        0.017      336.612        8.031      857.836
02/26/2014  02:32:00      -93.308      -53.295       -2.050       47.457       22.891       19.456     2252.127      524.005      378.518        0.735        0.158      107.456       19.902        0.034      336.637        8.074      857.835
02/26/2014  02:33:00      -94.549      -55.104       -2.282       42.249       25.429       18.303     1784.960      646.657      334.988        0.737        0.138      109.435       19.833        0.033      336.654        8.103      857.829
02/26/2014  02:34:00      -79.726      -45.103        1.385       50.705       25.890       17.293     2571.017      670.280      299.044        0.597        0.177       91.600       17.734        0.037      336.676        8.138      857.825
02/26/2014  02:35:00      -98.635      -34.920       -7.840       18.485       24.168       16.105      341.714      584.098      259.367        0.610        0.059      104.634        8.642        0.007      336.636        8.074      857.831
02/26/2014  02:36:00      -90.982      -42.014       -3.239       32.689       18.695       18.568     1068.572      349.496      344.785        0.591        0.088      100.214       19.498        0.038      336.672        8.134      857.834
02/26/2014  02:37:00      -91.977      -36.799        1.149       28.307       33.909       16.999      801.276     1149.824      288.959        0.603        0.112       99.065       16.351        0.027      336.681        8.147      857.832
02/26/2014  02:38:00     -105.347      -49.481        0.904       44.629       39.205       26.916     1991.768     1537.017      724.447        0.890        0.213      116.389       29.007        0.062      336.638        8.075      857.818
02/26/2014  02:39:00     -142.605      -51.531       -8.035       32.311       36.266       20.044     1044.017     1315.241      401.769        1.291        0.138      151.630       17.934        0.014      336.603        8.018      857.803
02/26/2014  02:40:00     -131.512      -39.321        0.898       30.006       25.887       18.936      900.337      670.153      358.577        1.039        0.096      137.265       15.409        0.013      336.561        7.946      857.799
02/26/2014  02:41:00     -117.559      -35.124       -4.865       22.887       26.701       21.691      523.836      712.968      470.516        0.839        0.085      122.694       16.084        0.017      336.482        7.814      857.791
02/26/2014  02:42:00      -90.663      -22.813        0.568       39.976       31.995       20.239     1598.116     1023.649      409.618        0.589        0.152       93.489       22.823        0.060      336.469        7.791      857.776
02/26/2014  02:43:00     -100.376      -30.763      -10.468       20.840       19.073       13.324      434.301      363.778      177.534        0.605        0.049      104.984        6.256        0.004      336.417        7.703      857.764
02/26/2014  02:44:00      -70.423      -40.465       -2.250       27.076       28.184       14.075      733.100      794.361      198.111        0.416        0.086       81.221       13.745        0.029      336.531        7.895      857.752
02/26/2014  02:45:00     -103.557      -35.327       -5.790       18.489       17.764       12.637      341.826      315.553      159.701        0.641        0.041      109.417        6.358        0.003      336.508        7.858      857.749
02/26/2014  02:46:00      -68.331      -47.010       -1.443       26.776       26.952       15.345      716.970      726.431      235.479        0.428        0.084       82.941       13.619        0.027      336.539        7.909      857.744
02/26/2014  02:47:00      -77.586      -11.011      -12.466       14.038       12.598       11.841      197.067      158.718      140.210        0.340        0.025       78.363        8.285        0.011      336.584        7.985      857.731
02/26/2014  02:48:00      -32.913      -36.172        5.946       28.808       20.547       13.137      829.909      422.199      172.580        0.193        0.071       48.905       14.293        0.085      336.597        8.007      857.722
02/26/2014  02:49:00      -32.968      -27.384        6.359       26.391       25.579       16.748      696.470      654.282      280.497        0.175        0.082       42.857       16.036        0.140      336.615        8.037      857.715
02/26/2014  02:50:00      -52.794       -6.914       -0.753       30.042       27.486       13.025      902.499      755.495      169.660        0.233        0.091       53.245       11.733        0.049      336.672        8.132      857.720
02/26/2014  02:51:00      -25.127       -1.652       -2.593       15.866       25.493       14.529      251.719      649.897      211.106        0.088        0.056       25.182        9.138        0.132      336.675        8.137      857.716
02/26/2014  02:52:00      -76.304       -8.492       -6.794       20.871       20.605       13.156      435.585      424.570      173.079        0.349        0.052       76.775        9.307        0.015      336.549        7.926      857.702
02/26/2014  02:53:00      -69.067      -17.167       -3.638       29.218       32.909       17.286      853.675     1083.000      298.796        0.366        0.112       71.168       18.352        0.066      336.588        7.990      857.702
02/26/2014  02:54:00      -72.538      -20.011       -0.088       42.245       32.155       17.011     1784.624     1033.922      289.381        0.438        0.155       75.247       15.214        0.041      336.335        7.567      857.708
02/26/2014  02:55:00      -93.131      -48.373       -4.670       18.160       24.883       16.865      329.801      619.169      284.436        0.613        0.062      104.945        8.917        0.007      336.206        7.352      857.730
02/26/2014  02:56:00      -98.242      -13.083       -8.347       21.952       19.687       16.919      481.888      387.578      286.259        0.552        0.058       99.109       12.878        0.017      336.078        7.137      857.741
02/26/2014  02:57:00      -86.852      -44.898      -16.458       14.372       12.630        9.224      206.567      159.510       85.079        0.514        0.023       97.770        2.761        0.001      336.085        7.149      857.746
02/26/2014  02:58:00      -65.791      -46.741       -6.615       14.093       23.944       13.240      198.622      573.333      175.300        0.375        0.047       80.704       10.415        0.017      336.201        7.343      857.753
02/26/2014  02:59:00      -70.580      -59.236       -3.522       18.775       15.797        9.937      352.494      249.545       98.748        0.460        0.035       92.144        8.300        0.008      336.328        7.556      857.764
02/26/2014  03:00:00      -94.276      -44.397        4.221       27.564       27.657       17.488      759.796      764.934      305.834        0.635        0.092      104.207       16.205        0.024      336.386        7.651      857.775
02/26/2014  03:01:00      -48.905      -47.230        7.459       37.690       25.971       20.925     1420.542      674.468      437.876        0.360        0.127       67.988       22.749        0.112      336.497        7.840      857.794
02/26/2014  03:02:00      -47.571      -61.525        5.750       39.449       37.396       24.896     1556.209     1398.456      619.790        0.483        0.179       77.771       23.589        0.092      336.508        7.857      857.803
02/26/2014  03:03:00      -33.307      -54.451        5.674       33.583       43.408       23.841     1127.799     1884.214      568.392        0.384        0.179       63.830       18.904        0.088      336.547        7.922      857.812
02/26/2014  03:04:00      -98.772      -83.677       -1.062       45.219       41.002       27.140     2044.722     1681.197      736.593        1.061        0.223      129.452       26.316        0.041      336.505        7.852      857.819
02/26/2014  03:05:00      -94.998      -98.459      -10.892       35.290       28.761       23.641     1245.380      827.181      558.880        1.073        0.132      136.816       19.842        0.021      336.558        7.943      857.842
02/26/2014  03:06:00     -107.169      -79.777        2.415       34.759       37.170       23.467     1208.181     1381.617      550.697        1.050        0.157      133.602       22.218        0.028      336.541        7.912      857.836
02/26/2014  03:07:00      -59.434      -65.755       -1.915       30.293       31.084       16.724      917.646      966.185      279.685        0.501        0.108       88.635       15.639        0.031      336.608        8.024      857.824
02/26/2014  03:08:00      -42.509      -66.323        6.980       36.987       29.034       23.582     1368.019      842.951      556.095        0.451        0.138       78.777       26.307        0.112      336.702        8.182      857.837
02/26/2014  03:09:00      -78.440      -75.965       -9.823       23.499       19.401       17.047      552.208      376.408      290.593        0.662        0.061      109.195        5.861        0.003      336.660        8.113      857.831
02/26/2014  03:10:00      -36.447      -57.558       -1.013       39.443       25.318       17.559     1555.769      641.009      308.306        0.357        0.125       68.128       12.516        0.034      336.730        8.230      857.832
02/26/2014  03:11:00      -45.901      -39.676       -1.602       48.625       28.718       18.479     2364.385      824.721      341.482        0.361        0.177       60.673       21.656        0.127      336.733        8.235      857.848
02/26/2014  03:12:00      -64.942      -80.344       -2.430       43.011       35.683       17.014     1849.944     1273.282      289.491        0.704        0.171      103.309       20.879        0.041      336.712        8.199      857.843
02/26/2014  03:13:00      -55.591      -97.348       -1.547       37.938       37.652       21.891     1439.306     1417.638      479.204        0.795        0.167      112.103       23.558        0.044      336.619        8.045      857.842
02/26/2014  03:14:00      -68.912      -84.553       -9.192       52.650       31.827       19.528     2771.992     1012.962      381.345        0.807        0.208      109.079       15.878        0.021      336.523        7.884      857.847
02/26/2014  03:15:00       -4.267      -61.131        0.560       21.210       43.390       17.210      449.871     1882.669      296.169        0.319        0.131       61.279       19.084        0.097      336.525        7.885      857.855
02/26/2014  03:16:00      -32.381      -91.877       -7.561       25.520       22.042       16.318      651.288      485.853      266.262        0.547        0.070       97.416        2.755        0.001      336.523        7.882      857.850
02/26/2014  03:17:00      -21.545      -57.880        3.998       22.272       35.334       19.823      496.034     1248.471      392.956        0.298        0.107       61.759       14.431        0.055      336.531        7.896      857.855
02/26/2014  03:18:00      -22.779      -44.878        0.827       30.455       32.860       22.758      927.497     1079.795      517.941        0.253        0.126       50.328       15.297        0.092      336.514        7.868      857.841
02/26/2014  03:19:00      -18.191       14.745        7.862       17.562       13.548       11.427      308.438      183.557      130.576        0.062        0.031       23.416        9.421        0.162      336.477        7.804      857.826
02/26/2014  03:20:00      -13.185       10.276       17.376       14.850       12.655       11.729      220.509      160.138      137.573        0.055        0.026       16.716        6.370        0.145      336.491        7.828      857.820
02/26/2014  03:21:00       -0.579       33.851       31.428       13.085       21.955       26.916      171.230      482.035      724.497        0.176        0.069       33.856       12.324        0.133      336.514        7.867      857.799
02/26/2014  03:22:00       -6.212       28.331       43.545       19.707       24.088       20.717      388.381      580.249      429.178        0.207        0.070       29.004       19.949        0.473      336.496        7.836      857.793
02/26/2014  03:23:00        6.529       19.537       22.073       22.718       16.230       19.366      516.113      263.407      375.046        0.103        0.058       20.599       16.350        0.630      336.478        7.808      857.802
02/26/2014  03:24:00        2.093       26.441        3.719        8.418       15.332       10.548       70.858      235.085      111.258        0.057        0.021       26.524        9.293        0.123      336.433        7.733      857.812
02/26/2014  03:25:00        1.699       22.729        0.259       12.452       14.260       11.049      155.065      203.339      122.074        0.050        0.024       22.793        6.310        0.077      336.398        7.672      857.820
02/26/2014  03:26:00        4.049       14.942        9.337       12.073        9.535       10.293      145.758       90.924      105.951        0.033        0.017       15.481        6.613        0.182      336.381        7.644      857.833
02/26/2014  03:27:00        7.572       30.149        1.973        6.797        7.810        7.550       46.205       60.989       56.999        0.057        0.008       31.085        5.116        0.027      336.359        7.606      857.831
02/26/2014  03:28:00        6.578       30.722        2.586       10.866       13.270        8.612      118.067      176.089       74.158        0.068        0.018       31.418        5.039        0.026      336.319        7.541      857.822
02/26/2014  03:29:00        5.478       48.625       -9.023        9.031       12.847        7.000       81.556      165.037       48.996        0.139        0.015       48.933        7.513        0.024      336.176        7.302      857.822
02/26/2014  03:30:00       25.708       33.783       -5.242       15.210       15.077       12.717      231.349      227.305      161.716        0.122        0.031       42.453        9.407        0.049      336.103        7.180      857.840
02/26/2014  03:31:00       21.490       49.602       -6.387       13.560       14.230       11.929      183.886      202.496      142.307        0.175        0.026       54.057        9.515        0.031      336.085        7.148      857.857
02/26/2014  03:32:00       19.067       30.154       -6.082       10.816        8.446        8.237      116.990       71.343       67.846        0.078        0.013       35.676        4.495        0.016      336.057        7.102      857.889
02/26/2014  03:33:00        8.881       24.381      -11.596        7.707        6.974        4.172       59.395       48.640       17.409        0.047        0.006       25.949        3.584        0.019      336.038        7.072      857.942
02/26/2014  03:34:00       -2.924        7.885        1.526        7.804       16.114        9.000       60.905      259.664       81.002        0.024        0.020        8.410        6.691        0.633      336.142        7.245      857.974
02/26/2014  03:35:00       11.755       18.303        7.076       12.656       15.591        9.697      160.182      243.087       94.041        0.051        0.025       21.753        8.777        0.163      336.179        7.306      857.962
02/26/2014  03:36:00       37.330       41.611        0.593       11.614       14.206       11.371      134.891      201.813      129.298        0.180        0.023       55.902        9.431        0.028      336.129        7.222      857.936
02/26/2014  03:37:00       41.637       47.380       -9.133       18.004       19.011       13.281      324.128      361.410      176.375        0.246        0.043       63.075       12.202        0.037      336.086        7.152      857.911
02/26/2014  03:38:00       35.707       59.510       -4.364       17.847       29.121       20.341      318.512      848.039      413.763        0.321        0.079       69.401       14.975        0.047      336.067        7.120      857.900
02/26/2014  03:39:00       39.300       43.400       -4.728       19.460       23.262       19.109      378.694      541.116      365.136        0.237        0.064       58.550       15.852        0.073      336.064        7.115      857.890
02/26/2014  03:40:00       21.393       14.356        4.222       24.525       23.604       16.235      601.455      557.134      263.572        0.105        0.071       25.764       11.227        0.190      336.061        7.110      857.888
02/26/2014  03:41:00       64.210       36.097        6.667       30.676       26.048       19.897      940.990      678.489      395.889        0.374        0.101       73.661       15.147        0.042      336.052        7.097      857.889
02/26/2014  03:42:00       52.863       44.062       10.712       28.655       30.057       20.384      821.112      903.440      415.502        0.349        0.107       68.819       17.422        0.064      336.085        7.150      857.906
02/26/2014  03:43:00       41.271       33.754       -4.540       22.485       20.780       13.062      505.570      431.817      170.609        0.199        0.055       53.317        8.475        0.025      336.116        7.200      857.903
02/26/2014  03:44:00       14.688       31.730       -3.194       17.087       23.247       12.024      291.956      540.410      144.578        0.110        0.049       34.965       11.682        0.112      336.198        7.340      857.899
02/26/2014  03:45:00       36.307       62.287       -3.702       12.840       21.951       11.121      164.874      481.825      123.671        0.299        0.039       72.096        7.787        0.012      336.214        7.365      857.903
02/26/2014  03:46:00       30.377       45.536       -2.292       23.772       38.248       19.281      565.113     1462.888      371.753        0.270        0.120       54.739       22.514        0.169      336.146        7.253      857.881
02/26/2014  03:47:00       20.623       62.649       -2.216       23.849       34.142       19.122      568.757     1165.669      365.670        0.323        0.105       65.956       20.189        0.094      336.125        7.217      857.877
02/26/2014  03:48:00       30.930       48.194       -2.327       28.035       32.257       22.072      785.963     1040.531      487.153        0.280        0.116       57.265       20.106        0.123      336.260        7.442      857.878
02/26/2014  03:49:00        7.295       70.962       -2.823       13.644       17.264       13.650      186.162      298.035      186.332        0.288        0.034       71.336       11.581        0.026      336.227        7.388      857.898
02/26/2014  03:50:00       18.906       70.990       -5.374       11.291       15.309       10.963      127.490      234.355      120.191        0.295        0.024       73.465        8.370        0.013      336.252        7.428      857.914
02/26/2014  03:51:00       34.862       44.603       -2.263       19.652       18.480       12.586      386.211      341.493      158.418        0.205        0.044       56.611        9.932        0.031      336.329        7.557      857.923
02/26/2014  03:52:00       22.178       18.736       -0.381       15.230        9.665       10.424      231.942       93.421      108.656        0.064        0.022       29.033        5.131        0.031      336.285        7.486      857.948
02/26/2014  03:53:00       54.499       22.465        6.255       17.372       10.775        8.208      301.788      116.104       67.367        0.200        0.024       58.947        5.281        0.008      336.386        7.654      857.959
02/26/2014  03:54:00       57.089       45.777       24.694       14.899       13.213       19.444      221.988      174.595      378.076        0.337        0.039       73.175       11.526        0.025      336.365        7.617      857.962
02/26/2014  03:55:00       37.814       41.527       26.253       13.949       17.897       20.193      194.567      320.296      407.777        0.238        0.046       56.164       12.113        0.047      336.297        7.503      857.972
02/26/2014  03:56:00       31.853       23.065        7.922       12.691       10.428       11.287      161.060      108.739      127.407        0.100        0.020       39.327        8.554        0.047      336.296        7.503      857.983
02/26/2014  03:57:00       55.810       32.750       14.201       10.961       12.620        7.315      120.138      159.271       53.505        0.236        0.017       64.710        3.692        0.003      336.290        7.493      857.984
02/26/2014  03:58:00       67.776       36.890        7.960        7.438        7.434        7.245       55.327       55.269       52.486        0.309        0.008       77.165        3.176        0.002      336.314        7.533      857.995
02/26/2014  03:59:00       37.628       35.730        7.535       13.520       10.723        8.978      182.777      114.975       80.609        0.156        0.019       51.889        7.254        0.020      336.272        7.461      858.015
02/26/2014  04:00:00       85.947       53.843       14.453       26.754       15.288       12.775      715.799      233.720      163.207        0.580        0.056      101.420        6.964        0.005      336.307        7.520      858.010
02/26/2014  04:01:00       97.228       48.150       23.670       26.147       23.737       28.019      683.678      563.422      785.063        0.718        0.102      108.498       16.939        0.024      336.304        7.515      857.992
02/26/2014  04:02:00       93.685       63.429       39.452       35.872       34.288       35.800     1286.830     1175.653     1281.624        0.905        0.187      113.138       21.115        0.035      336.303        7.514      857.989
02/26/2014  04:03:00       47.687       45.283       32.900       35.228       20.848       25.522     1240.996      434.620      651.375        0.387        0.116       65.762       16.142        0.060      336.213        7.362      857.991
02/26/2014  04:04:00       49.026       24.665       -2.124       14.324       15.493       14.115      205.187      240.032      199.241        0.183        0.032       54.881        8.420        0.024      336.168        7.288      858.005
02/26/2014  04:05:00       32.015       25.586       -4.279       11.900       11.656       10.550      141.622      135.869      111.295        0.104        0.019       40.983        8.047        0.039      336.221        7.377      858.019
02/26/2014  04:06:00       12.098       40.577       -2.837       10.962       10.113        9.483      120.175      102.263       89.934        0.106        0.016       42.342        8.083        0.036      336.288        7.491      858.024
02/26/2014  04:07:00      -32.180       14.311       -6.570       14.985       18.764        9.231      224.564      352.088       85.220        0.097        0.033       35.219        9.242        0.069      336.142        7.246      858.025
02/26/2014  04:08:00      -29.313        7.942       -8.967       13.639        6.209        8.612      186.011       38.556       74.169        0.065        0.015       30.370        7.730        0.065      336.203        7.347      858.027
02/26/2014  04:09:00       -2.565       18.233       -2.574       17.091       11.292        7.549      292.089      127.510       56.991        0.041        0.024       18.412        6.151        0.112      336.270        7.459      858.011
02/26/2014  04:10:00       11.917       17.718        2.897       12.674       11.672       13.248      160.624      136.225      175.499        0.047        0.024       21.352        8.094        0.144      336.322        7.544      858.005
02/26/2014  04:11:00       15.694       52.933       -2.852       18.736       26.928       19.321      351.033      725.135      373.310        0.225        0.072       55.210       17.350        0.099      336.289        7.490      857.968
02/26/2014  04:12:00      -45.270       13.277       -6.672       30.340       44.281       21.789      920.523     1960.780      474.751        0.281        0.168       47.177       10.062        0.045      336.205        7.351      857.981
02/26/2014  04:13:00      -79.156      -21.742       -9.960       28.140       32.560       16.507      791.867     1060.121      272.475        0.448        0.106       82.088        7.690        0.009      335.959        6.939      858.003
02/26/2014  04:14:00      -44.045       11.389       -7.541       17.188        8.911        7.017      295.434       79.400       49.239        0.128        0.021       45.494        7.714        0.029      335.868        6.788      857.989
02/26/2014  04:15:00       11.714       91.496      -15.731       22.313       25.948        8.999      497.860      673.292       80.982        0.500        0.063       92.243       10.922        0.014      336.278        7.473      857.973
02/26/2014  04:16:00       23.063       78.421      -10.262       16.725       49.315       16.116      279.741     2431.955      259.736        0.488        0.149       81.742       26.702        0.107      336.258        7.440      857.995
02/26/2014  04:17:00       20.059       58.888      -10.185       17.697       36.845       10.612      313.176     1357.565      112.613        0.288        0.089       62.210       15.563        0.063      336.259        7.439      858.005
02/26/2014  04:18:00        8.702       -5.998        0.255       21.182       16.874        6.817      448.679      284.731       46.468        0.045        0.039       10.569        5.382        0.259      336.227        7.386      858.037
02/26/2014  04:19:00       92.156       43.408       22.034       32.068       20.246       21.673     1028.341      409.912      469.701        0.638        0.095      101.867       19.617        0.037      336.146        7.251      858.015
02/26/2014  04:20:00       49.023       30.493       34.471       33.679       20.511       22.997     1134.246      420.688      528.852        0.330        0.104       57.733       15.034        0.068      336.144        7.248      858.028
02/26/2014  04:21:00       78.203       63.253       45.713       78.191       34.131       28.037     6113.823     1164.903      786.097        1.013        0.403      100.581       34.377        0.117      336.204        7.349      858.052
02/26/2014  04:22:00       18.521       91.575       89.651       40.861       35.789       37.045     1669.624     1280.882     1372.314        1.054        0.216       93.429       31.682        0.115      336.330        7.560      858.046
02/26/2014  04:23:00       -2.555       50.121       67.339       23.800       27.039       22.060      566.424      731.108      486.623        0.442        0.089       50.186       16.539        0.109      336.367        7.621      858.067
02/26/2014  04:24:00        7.887       47.295       71.505       33.680       38.173       23.160     1134.328     1457.155      536.380        0.527        0.156       47.948       25.899        0.292      336.338        7.572      858.058
02/26/2014  04:25:00       10.548       67.611       89.305       31.691       45.752       29.377     1004.291     2093.277      862.994        0.831        0.198       68.429       32.400        0.224      336.232        7.396      858.061
02/26/2014  04:26:00       47.213       51.050       49.467       28.614       21.265       31.168      818.770      452.218      971.436        0.476        0.112       69.536       22.004        0.100      336.162        7.279      858.072
02/26/2014  04:27:00       38.156       72.602       71.945       41.266       40.578       28.135     1702.877     1646.574      791.565        0.802        0.207       82.018       22.792        0.077      336.198        7.340      858.046
02/26/2014  04:28:00       36.460       12.826       11.129       26.355       36.044       21.774      694.573     1299.189      474.125        0.204        0.123       38.650       14.909        0.149      336.095        7.167      858.056
02/26/2014  04:29:00      190.168       97.428       22.779       54.364       30.530       35.437     2955.408      932.060     1255.800        2.566        0.257      213.673       19.898        0.009      335.996        6.998      857.980
02/26/2014  04:30:00      139.780       65.236       31.003       84.858       43.204       40.302     7200.870     1866.544     1624.284        1.772        0.535      154.254       39.095        0.064      335.941        6.909      857.940
02/26/2014  04:31:00       17.622        8.326       41.206       29.557       48.838       26.367      873.621     2385.164      695.221        0.302        0.198       19.490       25.297        1.685      335.973        6.963      857.944
02/26/2014  04:32:00       94.334     -117.167      -14.106       47.410       58.274       40.501     2247.736     3395.804     1640.307        1.505        0.364      150.423       32.315        0.046      335.975        6.967      857.957
02/26/2014  04:33:00       60.161      -65.131       18.014       54.119       74.228       39.075     2928.845     5509.835     1526.859        0.907        0.498       88.664       43.527        0.241      335.923        6.879      857.980
02/26/2014  04:34:00      124.351     -119.831      -10.220       38.472       43.233       29.194     1480.111     1869.127      852.271        1.706        0.210      172.692       22.106        0.016      335.862        6.777      858.013
02/26/2014  04:35:00       83.939       -2.551       49.402       49.732      100.443       48.831     2473.279    10088.868     2384.464        1.222        0.747       83.978       61.285        0.533      335.916        6.868      858.022
02/26/2014  04:36:00       73.618      105.434       84.708       71.586       35.930       39.590     5124.562     1290.936     1567.368        1.585        0.399      128.592       35.102        0.075      335.918        6.871      857.992
02/26/2014  04:37:00      101.888       66.983       39.435       65.980       45.561       44.173     4353.386     2075.776     1951.282        1.240        0.419      121.934       36.262        0.088      335.865        6.783      858.005
02/26/2014  04:38:00      123.553       38.604       13.529       61.194       47.308       33.689     3744.664     2238.072     1134.932        1.203        0.356      129.443       21.678        0.028      335.824        6.714      857.994
02/26/2014  04:39:00       92.588       64.968       32.373       34.847       32.424       32.932     1214.339     1051.318     1084.542        0.860        0.168      113.108       18.454        0.027      335.848        6.755      857.999
02/26/2014  04:40:00      127.153      101.179       55.783       55.279       39.822       47.837     3055.795     1585.775     2288.385        1.822        0.346      162.497       39.050        0.058      335.902        6.842      857.978
02/26/2014  04:41:00       88.657      146.754      123.353       85.035       50.699       51.386     7230.947     2570.416     2640.530        2.852        0.622      171.455       51.943        0.092      335.892        6.825      857.954
02/26/2014  04:42:00      114.528      127.018      116.065       67.980       57.893       49.181     4621.298     3351.629     2418.789        2.655        0.520      171.027       42.785        0.063      335.839        6.737      857.950
02/26/2014  04:43:00      179.552       95.760       50.149       69.959       52.984       63.856     4894.272     2807.278     4077.532        2.785        0.589      203.492       46.563        0.052      335.804        6.679      857.938
02/26/2014  04:44:00      172.406       65.909       34.882       82.125       67.727       53.293     6744.521     4586.947     2840.195        2.473        0.709      184.575       31.089        0.028      335.796        6.666      857.927
02/26/2014  04:45:00      143.404       78.104       25.184       70.545       46.036       43.267     4976.600     2119.325     1872.023        1.813        0.448      163.295       23.634        0.021      335.778        6.637      857.970
02/26/2014  04:46:00       81.947       44.865       11.457       43.796       45.593       26.504     1918.052     2078.703      702.473        0.678        0.235       93.425       14.518        0.024      335.721        6.545      858.005
02/26/2014  04:47:00       67.794       42.716       12.284       29.047       20.268       14.664      843.706      410.798      215.044        0.402        0.073       80.129        9.390        0.014      335.674        6.466      858.034
02/26/2014  04:48:00       24.400       22.851       -8.345       20.561       18.969       10.528      422.735      359.808      110.841        0.104        0.045       33.429       10.337        0.096      335.700        6.511      858.060
02/26/2014  04:49:00       43.889       38.413       -3.483       20.251       12.738       11.037      410.099      162.264      121.821        0.205        0.035       58.325       10.415        0.032      335.708        6.525      858.056
02/26/2014  04:50:00       94.723       62.325       19.231       21.940       29.302       21.429      481.352      858.634      459.222        0.751        0.090      113.388       17.096        0.023      335.734        6.567      858.024
02/26/2014  04:51:00      118.032       75.020       15.934       39.300       32.685       24.706     1544.505     1068.307      610.380        1.152        0.161      139.856       16.825        0.014      335.746        6.586      857.974
02/26/2014  04:52:00      100.761       73.755       17.233       49.590       36.169       30.622     2459.120     1308.184      937.695        1.030        0.235      124.870       26.652        0.046      335.793        6.663      857.969
02/26/2014  04:53:00       92.475       57.611       21.669       42.869       33.330       34.379     1837.748     1110.900     1181.929        0.823        0.207      108.953       20.869        0.037      335.822        6.712      857.985
02/26/2014  04:54:00       57.699       37.135        2.247       31.606       25.511       18.932      998.916      650.790      358.436        0.336        0.100       68.616       13.021        0.036      335.769        6.626      858.002
02/26/2014  04:55:00        2.542      -44.108        6.349       18.111       21.714       15.212      328.001      471.499      231.407        0.151        0.052       44.181        9.365        0.045      336.102        7.178      858.047
02/26/2014  04:56:00       30.340      -36.014       -6.220       21.575       31.728       20.250      465.470     1006.682      410.078        0.207        0.094       47.091       16.061        0.116      335.984        6.981      858.084
02/26/2014  04:57:00       -6.995      -37.140       -1.640       27.812       29.170       21.829      773.513      850.890      476.523        0.177        0.105       37.793       19.489        0.266      336.083        7.147      858.081
02/26/2014  04:58:00       29.650       36.843       40.711       22.060       14.917       15.694      486.635      222.522      246.310        0.242        0.048       47.292        9.062        0.037      335.958        6.937      858.074
02/26/2014  04:59:00       64.174       45.923       -2.668       14.125       18.524       16.873      199.504      343.132      284.705        0.353        0.041       78.913       13.431        0.029      336.000        7.007      858.073
02/26/2014  05:00:00       55.866       43.806       18.453       28.830       26.098       24.511      831.172      681.111      600.788        0.375        0.106       70.993       10.451        0.022      336.026        7.051      858.069
02/26/2014  05:01:00       40.529       64.097       63.612       30.083       24.931       28.850      904.975      621.564      832.308        0.608        0.118       75.836       19.685        0.067      336.000        7.007      858.069
02/26/2014  05:02:00       39.013       64.471       77.959       58.217       37.767       32.972     3389.241     1426.366     1087.147        0.883        0.295       75.356       35.011        0.216      336.025        7.048      858.080
02/26/2014  05:03:00       43.991       59.183       60.689       59.121       25.516       20.482     3495.334      651.075      419.495        0.684        0.228       73.742       21.250        0.083      336.041        7.077      858.078
02/26/2014  05:04:00       15.183       32.393       45.785       25.051       21.730       18.857      627.529      472.211      355.575        0.242        0.073       35.775       13.459        0.142      336.067        7.119      858.080
02/26/2014  05:05:00       56.018        6.913       23.881       29.561       33.212       21.009      873.869     1103.046      441.369        0.309        0.121       56.443       21.356        0.143      336.015        7.033      858.079
02/26/2014  05:06:00       54.321       37.190       29.014       28.357       26.256       30.620      804.113      689.368      937.576        0.380        0.122       65.832       19.127        0.084      336.054        7.097      858.065
02/26/2014  05:07:00       16.246       34.476       48.339       26.677       20.549       15.318      711.679      422.268      234.630        0.258        0.068       38.112        8.844        0.054      336.074        7.131      858.056
02/26/2014  05:08:00       -1.047       13.531       42.578       15.159       36.728       28.029      229.788     1348.955      785.643        0.218        0.118       13.571       27.273        4.038      336.074        7.131      858.045
02/26/2014  05:09:00        5.930       17.971       52.405       22.376       24.238       15.619      500.694      587.489      243.940        0.222        0.067       18.924       15.621        0.681      336.053        7.095      858.030
02/26/2014  05:10:00       19.342       60.324       71.196       25.067       38.670       19.568      628.379     1495.385      382.893        0.579        0.125       63.349       21.019        0.110      336.000        7.007      858.023
02/26/2014  05:11:00       17.636       17.697       44.373       23.297       26.750       21.862      542.768      715.554      477.960        0.216        0.087       24.984       17.933        0.515      336.012        7.027      858.014
02/26/2014  05:12:00       36.587       10.369       30.000       38.706       18.129       24.683     1498.138      328.669      609.240        0.239        0.122       38.028       15.449        0.165      335.976        6.967      857.998
02/26/2014  05:13:00       53.786      -12.717        4.962       27.904       22.429       22.888      778.620      503.077      523.850        0.244        0.090       55.269       16.224        0.086      335.940        6.907      857.972
02/26/2014  05:14:00       24.662       32.759       28.412       29.456       20.822       26.269      867.680      433.564      690.052        0.224        0.100       41.005       15.209        0.138      335.963        6.946      857.944
02/26/2014  05:15:00        2.476       25.550       48.617       16.132       25.233       15.011      260.253      636.689      225.341        0.207        0.056       25.669       12.634        0.242      335.991        6.992      857.933
02/26/2014  05:16:00       -1.291      -12.996       35.575       15.818       35.107       18.520      250.208     1232.515      343.003        0.163        0.091       13.060       19.358        2.197      336.061        7.110      857.923
02/26/2014  05:17:00       15.828      -26.560       22.116       17.304       29.966       21.636      299.432      897.977      468.103        0.155        0.083       30.919       14.476        0.219      336.020        7.041      857.906
02/26/2014  05:18:00        9.272      -37.578        9.997       13.218       23.779       19.199      174.707      565.454      368.589        0.135        0.055       38.704        9.786        0.064      336.100        7.174      857.886
02/26/2014  05:19:00       23.481      -44.547       -5.171       19.819       16.379       16.416      392.777      268.273      269.485        0.175        0.047       50.356        9.582        0.036      336.080        7.142      857.880
02/26/2014  05:20:00        7.484      -42.423      -12.329       27.651       22.316       13.329      764.581      497.992      177.662        0.172        0.072       43.078        8.836        0.042      336.239        7.407      857.897
02/26/2014  05:21:00       -3.295      -27.791        2.258       17.692       13.680       18.870      313.000      187.153      356.094        0.082        0.043       27.985        9.687        0.120      336.216        7.368      857.927
02/26/2014  05:22:00       11.294        5.127       20.821       19.441       16.795       16.971      377.968      282.082      288.028        0.077        0.047       12.403        4.879        0.155      336.135        7.233      857.960
02/26/2014  05:23:00       15.843       -6.895       25.213       32.740       51.612       28.883     1071.909     2663.785      834.231        0.275        0.228       17.279       36.051        4.353      336.063        7.113      857.998
02/26/2014  05:24:00       41.876      -70.606      -11.297       30.243       36.663       17.243      914.634     1344.172      297.318        0.471        0.128       82.090       13.550        0.027      336.155        7.267      858.040
02/26/2014  05:25:00        8.826      -55.148      -16.885       43.163       28.750       21.945     1863.012      826.583      481.581        0.329        0.159       55.849       11.528        0.043      336.203        7.345      858.073
02/26/2014  05:26:00       -5.570       16.487       21.901       13.648       23.662       18.029      186.276      559.909      325.058        0.093        0.054       17.402       14.775        0.721      336.195        7.334      858.088
02/26/2014  05:27:00      -34.259       22.384       21.524       26.993       24.120       21.344      728.640      581.779      455.579        0.195        0.088       40.924       18.816        0.211      336.160        7.275      858.091
02/26/2014  05:28:00      -50.677        9.721        6.925       26.172       24.553       16.546      684.970      602.833      273.762        0.214        0.078       51.601       12.933        0.063      336.126        7.219      858.086
02/26/2014  05:29:00      -22.700        5.672        6.128       15.377       11.588       13.999      236.448      134.285      195.964        0.058        0.028       23.398       11.171        0.228      336.131        7.226      858.080
02/26/2014  05:30:00       -9.711       17.349        3.488       15.869       13.879       12.073      251.823      192.617      145.757        0.050        0.030       19.882        9.967        0.251      336.164        7.281      858.072
02/26/2014  05:31:00       -1.551       28.140        2.432       13.493       17.189        9.591      182.066      295.459       91.983        0.068        0.028       28.183        7.744        0.076      336.134        7.231      858.051
02/26/2014  05:32:00       -1.934       41.204       -7.634        8.361        8.193        4.989       69.899       67.132       24.889        0.096        0.008       41.249        3.950        0.009      336.105        7.180      858.033
02/26/2014  05:33:00      -10.244       16.956       -3.048        7.406       10.624        4.545       54.846      112.865       20.658        0.030        0.009       19.810        5.025        0.064      336.159        7.275      858.018
02/26/2014  05:34:00      -17.163       -2.245        0.909       14.114        7.053        5.641      199.194       49.742       31.816        0.029        0.014       17.309        5.574        0.104      336.178        7.305      858.009
02/26/2014  05:35:00      -51.186       -8.094       -5.632       12.816       11.308        9.229      164.253      127.879       85.171        0.155        0.019       51.822        7.265        0.020      336.192        7.329      858.007
02/26/2014  05:36:00      -50.340      -15.028       -4.831       16.591       12.904        8.309      275.258      166.524       69.039        0.165        0.026       52.536        8.568        0.027      336.153        7.263      858.014
02/26/2014  05:37:00      -52.828      -14.940       -7.032       18.713       16.398       12.307      350.169      268.902      151.466        0.192        0.039       54.899        9.805        0.032      336.163        7.280      858.010
02/26/2014  05:38:00      -72.427       -2.735       -7.656       22.507       23.183       12.248      506.551      537.464      150.010        0.325        0.060       72.479       11.022        0.023      336.123        7.213      857.998
02/26/2014  05:39:00      -91.486      -11.970       -4.243       37.503       29.464       18.931     1406.481      868.099      358.377        0.558        0.132       92.266       19.751        0.046      336.016        7.035      857.982
02/26/2014  05:40:00      -91.343       11.676       -5.299       44.663       35.134       26.792     1994.803     1234.429      717.785        0.623        0.197       92.086       22.991        0.062      335.925        6.883      857.962
02/26/2014  05:41:00      -79.442       59.411      -13.922       41.215       36.073       28.977     1698.701     1301.261      839.657        0.694        0.192       99.200       27.597        0.077      335.919        6.874      857.933
02/26/2014  05:42:00     -137.851       82.955      -28.450       32.841       31.539       27.926     1078.558      994.713      779.870        1.477        0.143      160.886       18.810        0.014      336.056        7.101      857.900
02/26/2014  05:43:00     -115.071       19.603      -18.185       37.859       36.753       24.445     1433.334     1350.782      597.560        0.867        0.169      116.729       11.414        0.010      336.018        7.037      857.876
02/26/2014  05:44:00     -155.715       -8.865      -16.319       37.793       56.932       23.231     1428.275     3241.287      539.696        1.490        0.260      155.967       18.376        0.014      335.935        6.898      857.866
02/26/2014  05:45:00     -104.946      -62.441      -11.002       47.742       41.250       24.950     2279.339     1701.559      622.505        0.982        0.230      122.117       16.905        0.019      335.908        6.854      857.874
02/26/2014  05:46:00     -121.069      -20.551      -23.901       29.722       45.691       19.564      883.394     2087.650      382.745        0.950        0.168      122.801       18.277        0.022      335.879        6.806      857.888
02/26/2014  05:47:00     -125.288        3.073      -19.797       26.728       26.268       20.008      714.360      690.024      400.340        0.895        0.090      125.326       13.273        0.011      335.937        6.902      857.886
02/26/2014  05:48:00     -103.298       14.183      -11.005       29.052       24.239       15.375      844.014      587.523      236.390        0.633        0.083      104.267        6.010        0.003      335.987        6.988      857.875
02/26/2014  05:49:00     -114.244        3.658       -9.665       37.818       28.087       20.400     1430.189      788.865      416.148        0.790        0.132      114.302       20.066        0.031      335.998        7.004      857.863
02/26/2014  05:50:00     -126.977      -55.615       -2.130       45.019       42.394       20.942     2026.711     1797.268      438.564        1.174        0.213      138.622       18.848        0.018      336.014        7.031      857.853
02/26/2014  05:51:00     -171.324      -21.665      -19.763       45.993       33.963       24.169     2115.401     1153.506      584.139        1.703        0.193      172.689       23.277        0.018      335.883        6.811      857.850
02/26/2014  05:52:00     -129.599       -9.879      -12.278       33.776       41.685       23.125     1140.829     1737.662      534.787        1.023        0.171      129.975       21.698        0.028      335.863        6.781      857.844
02/26/2014  05:53:00     -143.663       15.078      -12.115       25.413       22.132       16.362      645.798      489.840      267.709        1.121        0.070      144.453       12.282        0.007      335.868        6.788      857.842
02/26/2014  05:54:00     -150.776        5.810      -13.838       31.088       26.834       13.800      966.485      720.054      190.441        1.242        0.094      150.888       10.214        0.005      335.934        6.898      857.841
02/26/2014  05:55:00     -141.837      -12.150      -15.583       38.871       36.094       23.062     1510.944     1302.743      531.879        1.193        0.167      142.357       21.481        0.023      335.942        6.911      857.845
02/26/2014  05:56:00     -147.122      -23.907      -14.841       22.322       42.008       20.120      498.271     1764.693      404.797        1.255        0.133      149.051       14.090        0.009      335.900        6.841      857.846
02/26/2014  05:57:00     -152.901       14.195      -15.786       31.446       31.812       17.980      988.857     1012.012      323.265        1.308        0.116      153.558       13.540        0.008      335.966        6.951      857.837
02/26/2014  05:58:00     -180.408       64.008      -17.770       36.983       24.880       19.280     1367.752      619.022      371.700        1.966        0.118      191.426       11.980        0.004      335.884        6.815      857.825
02/26/2014  05:59:00     -149.014       17.599      -19.415       32.716       39.027       18.805     1070.342     1523.137      353.631        1.292        0.147      150.050       15.198        0.010      335.920        6.875      857.821
02/26/2014  06:00:00     -161.458        9.715      -16.798       41.995       35.586       30.259     1763.597     1266.397      915.610        1.519        0.197      161.750       26.236        0.026      336.000        7.007      857.822
02/26/2014  06:01:00      -91.850       -9.652      -11.914       27.986       25.320       17.104      783.232      641.102      292.533        0.519        0.086       92.356       14.615        0.025      335.963        6.945      857.823
02/26/2014  06:02:00      -91.156      -23.812       -9.957       18.578       31.525       15.139      345.150      993.851      229.196        0.527        0.078       94.215       11.156        0.014      336.096        7.167      857.821
02/26/2014  06:03:00      -29.153      -37.027        0.824       34.180       24.817       19.707     1168.302      615.875      388.371        0.220        0.109       47.126       23.015        0.239      336.082        7.144      857.820
02/26/2014  06:04:00      -25.978      -24.094        1.945       37.532       24.640       20.641     1408.657      607.144      426.050        0.185        0.122       35.432        9.972        0.079      336.135        7.233      857.817
02/26/2014  06:05:00      -61.630      -32.574       -1.884       26.147       16.742       16.044      683.670      280.293      257.401        0.304        0.061       69.709       15.327        0.048      336.013        7.028      857.806
02/26/2014  06:06:00      -81.091      -17.731       -7.494       19.186       19.514       15.325      368.086      380.787      234.864        0.396        0.049       83.007       15.283        0.034      336.011        7.026      857.798
02/26/2014  06:07:00      -67.034      -27.693       -3.543       23.464       19.988       12.110      550.574      399.525      146.655        0.318        0.055       72.529       11.844        0.027      336.070        7.125      857.787
02/26/2014  06:08:00       -0.552      -19.851       14.128       20.745       17.253       12.650      430.336      297.674      160.030        0.074        0.044       19.858       10.219        0.265      336.157        7.270      857.776
02/26/2014  06:09:00        4.802      -12.992       10.121       19.515        7.355       11.435      380.819       54.100      130.769        0.043        0.028       13.851       13.151        0.902      336.146        7.250      857.767
02/26/2014  06:10:00      -20.951      -28.314        0.366       18.359       11.102       12.316      337.045      123.248      151.676        0.093        0.031       35.222        8.700        0.061      336.214        7.365      857.759
02/26/2014  06:11:00      -62.449      -31.878       -5.298       15.740       11.466        7.765      247.763      131.469       60.296        0.269        0.022       70.114        4.155        0.004      336.233        7.399      857.748
02/26/2014  06:12:00     -105.314      -38.411       -6.241       12.820       17.347       10.050      164.364      300.925      101.005        0.659        0.028      112.100        7.362        0.004      336.182        7.312      857.736
02/26/2014  06:13:00      -90.579       -6.990       -6.323       18.677       17.395       14.708      348.831      302.595      216.313        0.458        0.043       90.848       12.385        0.019      336.214        7.365      857.725
02/26/2014  06:14:00      -66.806      -20.724       -4.384       25.238       20.001       14.465      636.979      400.040      209.241        0.308        0.062       69.947       12.001        0.029      336.253        7.430      857.703
02/26/2014  06:15:00     -117.295       -5.468      -14.819       16.134       16.180       12.060      260.315      261.804      145.438        0.734        0.033      117.423        5.291        0.002      336.262        7.446      857.690
02/26/2014  06:16:00     -189.868      -23.924      -18.635       24.025       29.917       13.253      577.208      895.014      175.644        1.931        0.082      191.370       10.063        0.003      336.172        7.295      857.684
02/26/2014  06:17:00     -145.261      -29.363      -13.305       31.544       24.918       16.415      994.997      620.920      269.446        1.201        0.094      148.199       16.244        0.012      336.136        7.235      857.680
02/26/2014  06:18:00      -83.030       -3.015        5.210       33.843       25.381       18.091     1145.320      644.196      327.285        0.452        0.106       83.085       17.662        0.045      336.193        7.329      857.670
02/26/2014  06:19:00     -130.233      -13.498       -9.865       26.657       35.983       23.420      710.620     1294.775      548.517        0.990        0.128      130.931       16.462        0.016      336.148        7.254      857.659
02/26/2014  06:20:00     -174.462       33.215      -29.976       29.787       33.209       27.400      887.278     1102.828      750.740        1.759        0.137      177.595       16.532        0.009      335.926        6.884      857.650
02/26/2014  06:21:00     -169.549      -11.646      -16.486       45.010       39.091       24.302     2025.904     1528.081      590.581        1.665        0.207      169.949       26.240        0.024      335.929        6.888      857.655
02/26/2014  06:22:00     -190.855        5.902      -22.968       50.856       34.247       24.248     2586.298     1172.888      587.985        2.067        0.217      190.947       22.305        0.014      335.984        6.980      857.666
02/26/2014  06:23:00     -114.827      -52.274      -12.885       31.511       41.561       24.768      992.929     1727.299      613.463        0.971        0.167      126.166       17.919        0.020      335.964        6.946      857.683
02/26/2014  06:24:00     -109.049      -62.378       -3.277       28.607       34.543       25.533      818.381     1193.247      651.947        0.923        0.133      125.629       19.327        0.024      335.988        6.987      857.699
02/26/2014  06:25:00      -88.944      -19.964       -6.908       53.871       29.565       30.788     2902.038      874.076      947.879        0.654        0.236       91.157       26.757        0.086      335.999        7.007      857.698
02/26/2014  06:26:00     -144.553       30.500      -13.883       50.370       44.299       23.933     2537.165     1962.365      572.804        1.354        0.254      147.735       26.494        0.032      336.008        7.021      857.685
02/26/2014  06:27:00     -163.238        9.981      -17.273       33.759       34.759       18.730     1139.671     1208.167      350.804        1.487        0.135      163.543       15.062        0.008      335.987        6.987      857.664
02/26/2014  06:28:00     -171.815       36.050      -16.725       38.970       39.316       23.974     1518.632     1545.782      574.729        1.737        0.182      175.556       17.199        0.010      335.927        6.887      857.634
02/26/2014  06:29:00     -143.236       34.232      -14.899       35.084       35.563       20.959     1230.907     1264.728      439.267        1.242        0.147      147.269       12.034        0.007      335.985        6.984      857.611
02/26/2014  06:30:00     -137.777       16.251      -11.184       40.546       44.043       21.138     1643.943     1939.772      446.796        1.170        0.202      138.733       20.852        0.023      335.970        6.957      857.607
02/26/2014  06:31:00     -126.366       -9.365      -13.993       33.976       34.785       23.302     1154.340     1209.979      543.000        0.958        0.145      126.713       18.031        0.020      335.977        6.969      857.595
02/26/2014  06:32:00     -140.109       -0.854      -13.936       39.732       30.631       27.253     1578.634      938.253      742.717        1.154        0.163      140.112       24.072        0.030      335.980        6.974      857.597
02/26/2014  06:33:00     -121.284      -34.680       -6.637       35.213       32.678       16.772     1239.948     1067.849      281.297        0.927        0.129      126.145       15.491        0.015      336.051        7.095      857.602
02/26/2014  06:34:00      -48.955       -4.568        1.337       58.453       41.672       27.714     3416.728     1736.587      768.082        0.417        0.296       49.168       35.540        0.522      336.113        7.197      857.618
02/26/2014  06:35:00     -148.644       -7.148      -12.782       45.283       36.301       24.357     2050.576     1317.750      593.271        1.313        0.198      148.816       18.752        0.016      336.051        7.092      857.640
02/26/2014  06:36:00     -110.556      -10.013       -0.488       69.809       36.569       26.317     4873.317     1337.293      692.571        0.961        0.345      111.009       32.412        0.085      336.100        7.174      857.676
02/26/2014  06:37:00      -88.892       -8.112        3.230       47.341       37.315       22.960     2241.187     1392.407      527.181        0.607        0.208       89.261       25.158        0.079      336.078        7.138      857.714
02/26/2014  06:38:00      -83.028      -27.259        1.005       39.810       34.236       20.011     1584.821     1172.099      400.424        0.540        0.158       87.388       20.455        0.055      336.169        7.289      857.759
02/26/2014  06:39:00      -85.461      -44.405       -1.519       34.993       27.717       17.890     1224.517      768.257      320.043        0.579        0.116       96.309       20.861        0.047      336.242        7.412      857.802
02/26/2014  06:40:00      -74.175      -30.651       -2.017       35.756       24.160       18.153     1278.475      583.715      329.540        0.432        0.110       80.259       20.194        0.063      336.306        7.519      857.826
02/26/2014  06:41:00      -70.230      -28.363       -6.056       34.613       25.900       25.643     1198.053      670.790      657.553        0.415        0.126       75.741       21.552        0.081      336.274        7.466      857.838
02/26/2014  06:42:00      -58.959       -2.651       -8.002       21.985       19.747       14.726      483.347      389.960      216.841        0.232        0.055       59.019       10.388        0.031      336.234        7.399      857.832
02/26/2014  06:43:00     -112.462       -7.038       -6.900       32.105       25.948       14.038     1030.757      673.311      197.071        0.732        0.095      112.682       15.528        0.019      336.223        7.381      857.833
02/26/2014  06:44:00     -168.404       19.229      -12.005       36.937       42.559       22.752     1364.309     1811.306      517.635        1.628        0.185      169.499       22.797        0.018      336.193        7.329      857.837
02/26/2014  06:45:00     -126.976       38.620      -14.652       54.398       38.203       24.846     2959.182     1459.472      617.318        1.143        0.252      132.719       25.618        0.037      336.143        7.247      857.822
02/26/2014  06:46:00     -155.969       34.202      -22.832       31.566       44.564       20.260      996.433     1985.945      410.470        1.470        0.170      159.675       15.081        0.009      336.190        7.326      857.800
02/26/2014  06:47:00     -108.555       13.552      -14.442       38.493       27.770       17.710     1481.676      771.167      313.630        0.737        0.128      109.398       16.345        0.022      336.213        7.366      857.779
02/26/2014  06:48:00     -137.734       49.702      -18.542       44.925       22.761       22.109     2018.254      518.068      488.828        1.240        0.151      146.427       24.871        0.029      336.284        7.482      857.763
02/26/2014  06:49:00     -138.690       -6.186      -16.701       31.263       39.696       19.437      977.353     1575.784      377.807        1.124        0.147      138.827       13.844        0.010      336.345        7.586      857.757
02/26/2014  06:50:00     -113.964      -31.005      -17.842       33.895       29.869       19.613     1148.870      892.133      384.681        0.835        0.121      118.107       11.783        0.010      336.351        7.594      857.742
02/26/2014  06:51:00      -73.976      -44.753       -7.367       29.855       40.947       18.034      891.292     1676.697      325.214        0.521        0.145       86.460        6.805        0.006      336.399        7.676      857.725
02/26/2014  06:52:00      -93.418      -44.916      -10.513       24.965       28.165       19.747      623.247      793.281      389.936        0.633        0.090      103.655       12.701        0.015      336.366        7.619      857.706
02/26/2014  06:53:00      -64.568      -55.915        0.921       41.692       37.701       23.224     1738.235     1421.361      539.352        0.550        0.185       85.414       23.099        0.073      336.439        7.742      857.694
02/26/2014  06:54:00      -29.769       -9.581        7.938       52.305       23.676       24.580     2735.779      560.540      604.156        0.247        0.195       31.273       29.673        0.900      336.459        7.774      857.684
02/26/2014  06:55:00      -92.092      -12.863       -9.055       21.742       31.710       23.001      472.694     1005.522      529.029        0.537        0.100       92.986       19.744        0.045      336.444        7.750      857.677
02/26/2014  06:56:00     -109.583      -37.873       -9.448       33.047       26.821       25.243     1092.075      719.382      637.227        0.799        0.122      115.943       21.186        0.033      336.456        7.769      857.673
02/26/2014  06:57:00     -110.082      -64.602      -10.740       30.041       27.029       23.820      902.449      730.585      567.416        0.930        0.110      127.638       19.303        0.023      336.358        7.607      857.669
02/26/2014  06:58:00      -73.127      -18.594       -5.527       19.648       30.183       20.580      386.052      911.001      423.535        0.372        0.086       75.454       14.539        0.037      336.348        7.589      857.650
02/26/2014  06:59:00      -56.366      -29.994       -8.405       13.911       13.450       12.704      193.525      180.899      161.380        0.234        0.027       63.849        8.327        0.017      336.406        7.688      857.649
02/26/2014  07:00:00      -31.697      -38.368       -2.387       24.901       23.124       17.437      620.068      534.697      304.058        0.197        0.073       49.768        7.601        0.023      336.458        7.772      857.652
02/26/2014  07:01:00      -47.759      -48.352       -2.256       28.453       25.546       17.027      809.564      652.612      289.921        0.319        0.088       67.962       17.145        0.064      336.615        8.037      857.661
02/26/2014  07:02:00      -18.969       -3.061        0.336       13.693       10.034        9.266      187.501      100.679       85.858        0.037        0.019       19.214        5.544        0.083      336.632        8.065      857.682
02/26/2014  07:03:00        2.400       37.572       10.322       13.539       12.077       23.804      183.308      145.858      566.654        0.121        0.045       37.649        9.165        0.059      336.646        8.090      857.711
02/26/2014  07:04:00       16.290       41.241       36.993       19.213       15.694       11.249      369.144      246.309      126.535        0.204        0.037       44.342        6.613        0.022      336.665        8.120      857.740
02/26/2014  07:05:00        1.603       11.028       31.866       19.599       29.099       13.160      384.140      846.777      173.198        0.127        0.070       11.143       13.191        1.401      336.732        8.231      857.761
02/26/2014  07:06:00       18.230      -37.307        1.108       22.717       34.134       27.961      516.054     1165.097      781.806        0.209        0.123       41.523       21.107        0.258      336.789        8.326      857.777
02/26/2014  07:07:00        5.064      -21.298       21.413       21.532       22.674       23.729      463.640      514.098      563.070        0.124        0.077       21.892        9.558        0.191      336.893        8.500      857.780
02/26/2014  07:08:00      -22.361      -39.013       20.843       29.943       27.317       17.310      896.569      746.243      299.653        0.220        0.097       44.967       13.089        0.085      336.877        8.474      857.775
02/26/2014  07:09:00      -43.572      -21.987       16.177       26.277       17.943       21.176      690.499      321.950      448.441        0.205        0.073       48.806       12.861        0.069      336.799        8.344      857.766
02/26/2014  07:10:00       -7.313       -2.664       10.205       15.126       20.406       20.539      228.790      416.389      421.854        0.062        0.053        7.783       15.139        3.783      336.816        8.374      857.752
02/26/2014  07:11:00      -55.865        5.976       -1.695       16.203       12.021       11.920      262.543      144.513      142.076        0.185        0.027       56.184       10.913        0.038      336.732        8.232      857.728
02/26/2014  07:12:00      -73.022        9.972      -11.667       10.578       11.258        7.322      111.897      126.750       53.615        0.293        0.015       73.699        3.467        0.002      336.734        8.234      857.711
02/26/2014  07:13:00      -72.782        6.785       -5.330       12.995       10.463        5.890      168.865      109.469       34.691        0.284        0.016       73.097        2.916        0.002      336.761        8.281      857.692
02/26/2014  07:14:00      -53.064       13.967      -16.046       20.884       18.861       12.817      436.142      355.753      164.281        0.211        0.048       54.871       10.921        0.040      336.764        8.284      857.666
02/26/2014  07:15:00      -40.344        4.237      -12.434       18.371       16.388       13.639      337.489      268.564      186.017        0.130        0.040       40.566        6.010        0.022      336.679        8.143      857.650
02/26/2014  07:16:00      -60.241      -10.588       -5.863       19.749       14.045       11.717      390.041      197.275      137.294        0.225        0.036       61.164       10.154        0.028      336.717        8.207      857.633
02/26/2014  07:17:00      -57.181        2.098      -14.168       16.135       17.096       14.879      260.327      292.279      221.390        0.212        0.039       57.220       11.576        0.041      336.780        8.312      857.598
02/26/2014  07:18:00      -17.166       -0.333       -3.825       19.838       15.435       12.601      393.566      238.226      158.789        0.055        0.040       17.169       12.482        0.529      336.847        8.425      857.583
02/26/2014  07:19:00       13.691       81.535      -10.666       28.505       40.910       20.414      812.543     1673.607      416.742        0.493        0.145       82.677       22.405        0.073      336.677        8.140      857.585
02/26/2014  07:20:00        9.812       72.949       -9.535       16.606       53.980       15.440      275.756     2913.894      238.396        0.447        0.171       73.606       25.416        0.119      336.627        8.056      857.590
02/26/2014  07:21:00        9.748       29.394       14.458       21.965       25.671       19.239      482.445      659.014      370.134        0.134        0.076       30.968       18.840        0.370      336.749        8.260      857.622
02/26/2014  07:22:00       22.627       23.153        0.798       13.595       12.121       17.958      184.836      146.917      322.502        0.085        0.033       32.374       13.484        0.173      336.677        8.141      857.647
02/26/2014  07:23:00       10.553       28.248       17.375       22.295       21.746       18.872      497.053      472.870      356.141        0.127        0.066       30.155       13.494        0.200      336.577        7.972      857.675
02/26/2014  07:24:00       15.838       19.074        1.245       11.917       13.808       11.703      142.024      190.656      136.950        0.054        0.023       24.792        8.006        0.104      336.566        7.956      857.685
02/26/2014  07:25:00       32.094       32.504       -1.039       11.601       11.076       13.734      134.583      122.682      188.610        0.127        0.022       45.679        3.973        0.008      336.598        8.008      857.666
02/26/2014  07:26:00       58.348       34.704        2.533       18.329        9.287       13.334      335.942       86.240      177.790        0.261        0.030       67.889        6.775        0.010      336.516        7.872      857.661
02/26/2014  07:27:00       74.814       40.810        1.317       16.788       14.629       16.062      281.837      214.010      258.002        0.401        0.038       85.221       10.987        0.017      336.552        7.932      857.649
02/26/2014  07:28:00       61.640       62.087       32.603       31.755       21.536       25.653     1008.394      463.802      658.082        0.542        0.107       87.489       23.868        0.074      336.638        8.076      857.644
02/26/2014  07:29:00       36.414       65.494       63.469       27.229       18.692       19.786      741.408      349.390      391.498        0.556        0.074       74.936       10.926        0.021      336.660        8.113      857.638
02/26/2014  07:30:00       52.945       87.747       68.499       50.837       27.514       27.017     2584.428      757.022      729.893        0.963        0.204      102.483       22.813        0.050      336.607        8.023      857.622
02/26/2014  07:31:00      104.450       89.753       55.593       36.425       25.535       25.996     1326.745      652.023      675.779        1.235        0.133      137.715       21.918        0.025      336.470        7.793      857.593
02/26/2014  07:32:00       87.164       72.963       52.462       34.521       30.501       36.664     1191.688      930.341     1344.244        0.957        0.173      113.671       29.395        0.067      336.542        7.913      857.565
02/26/2014  07:33:00       89.642       70.119       43.813       42.333       27.915       37.641     1792.057      779.245     1416.830        0.943        0.199      113.808       26.786        0.055      336.557        7.939      857.528
02/26/2014  07:34:00       66.497       63.219       51.459       37.911       33.644       29.516     1437.258     1131.891      871.170        0.725        0.172       91.753       20.839        0.052      336.569        7.959      857.486
02/26/2014  07:35:00       93.064       84.349       46.634       33.075       33.638       34.003     1093.973     1131.490     1156.227        1.067        0.169      125.601       18.940        0.023      336.554        7.935      857.466
02/26/2014  07:36:00      121.978       79.514       22.732       43.153       34.333       29.974     1862.141     1178.767      898.459        1.283        0.197      145.606       25.241        0.030      336.505        7.853      857.465
02/26/2014  07:37:00      131.272       66.495       16.770       65.520       38.856       37.347     4292.883     1509.804     1394.811        1.456        0.360      147.153       37.475        0.065      336.464        7.781      857.487
02/26/2014  07:38:00      115.958       78.647       48.466       56.001       45.491       41.675     3136.163     2069.453     1736.791        1.446        0.347      140.113       28.715        0.042      336.457        7.771      857.516
02/26/2014  07:39:00       87.906       38.457       48.941       59.213       45.950       35.642     3506.180     2111.380     1270.376        0.924        0.344       95.950       33.896        0.125      336.551        7.929      857.540
02/26/2014  07:40:00       35.902       65.629       83.882       50.571       37.698       31.084     2557.381     1421.165      966.238        0.879        0.247       74.807       17.470        0.055      336.646        8.089      857.564
02/26/2014  07:41:00       61.232       51.975       44.478       54.402       28.160       31.511     2959.597      792.963      992.912        0.659        0.237       80.316       25.943        0.104      336.661        8.113      857.578
02/26/2014  07:42:00        3.763      -11.171       29.684       30.114       46.980       21.336      906.825     2207.161      455.242        0.229        0.178       11.788       22.902        3.775      336.808        8.358      857.577
02/26/2014  07:43:00       43.428       45.873       40.618       38.451       30.975       27.893     1478.463      959.426      778.026        0.443        0.161       63.169       25.854        0.168      336.716        8.207      857.609
02/26/2014  07:44:00       11.178       25.452       38.022       32.285       28.353       20.189     1042.295      803.893      407.596        0.224        0.113       27.798       16.055        0.334      336.817        8.373      857.651
02/26/2014  07:45:00       54.530        8.647       28.344       34.940       33.692       21.925     1220.792     1135.131      480.708        0.334        0.142       55.212       18.983        0.118      336.756        8.273      857.689
02/26/2014  07:46:00        8.395       -5.092       26.976       21.742       41.624       24.119      472.722     1732.568      581.744        0.181        0.139        9.819       26.388        7.223      336.897        8.506      857.709
02/26/2014  07:47:00       31.488      -40.941       17.993       40.631       52.962       36.344     1650.873     2804.966     1320.890        0.438        0.289       51.649       41.575        0.648      336.944        8.584      857.723
02/26/2014  07:48:00      -29.892       -6.603       13.431       43.840       40.656       30.286     1921.969     1652.921      917.239        0.280        0.225       30.612       24.021        0.616      336.956        8.603      857.733
02/26/2014  07:49:00      -47.202      -55.757        1.189       40.863       48.637       24.421     1669.808     2365.575      596.406        0.498        0.232       73.054       29.317        0.161      336.936        8.572      857.740
02/26/2014  07:50:00     -108.848      -73.932        4.598       53.514       54.266       28.962     2863.746     2944.791      838.811        1.199        0.332      131.582       29.084        0.049      336.867        8.457      857.735
02/26/2014  07:51:00     -148.252     -110.908       -6.109       44.349       46.857       32.643     1966.836     2195.551     1065.538        1.977        0.261      185.147       26.085        0.020      336.731        8.228      857.738
02/26/2014  07:52:00      -87.485     -114.527        1.280       30.817       29.136       22.000      949.704      848.924      484.012        1.153        0.114      144.119       17.644        0.015      336.752        8.265      857.744
02/26/2014  07:53:00      -66.056      -79.006       -6.750       30.826       23.699       14.929      950.241      561.626      222.870        0.619        0.087      102.982       13.302        0.017      336.838        8.409      857.765
02/26/2014  07:54:00     -127.500      -13.980       -6.163       25.826       31.213       17.270      666.965      974.245      298.245        0.921        0.097      128.264       14.126        0.012      336.765        8.288      857.800
02/26/2014  07:55:00      -81.753      -64.892       -1.693       45.359       37.584       20.152     2057.439     1412.567      406.106        0.739        0.194      104.376       21.512        0.042      336.849        8.427      857.834
02/26/2014  07:56:00     -141.026     -101.261       -3.362       53.992       41.098       25.521     2915.109     1689.007      651.338        1.770        0.263      173.615       20.678        0.014      336.770        8.294      857.853
02/26/2014  07:57:00     -157.246     -109.915       -1.426       88.824       55.339       36.473     7889.689     3062.351     1330.272        2.454        0.614      191.853       32.697        0.029      336.777        8.304      857.879
02/26/2014  07:58:00     -154.148      -84.213       -1.680       68.579       42.479       28.326     4703.096     1804.434      802.367        1.908        0.365      175.651       29.989        0.029      336.741        8.245      857.908
02/26/2014  07:59:00     -141.273      -93.538       -1.577       68.340       46.886       24.507     4670.290     2198.268      600.577        1.809        0.373      169.432       13.816        0.007      336.710        8.195      857.934
02/26/2014  08:00:00      -94.206      -58.083        1.754       46.532       43.215       25.111     2165.241     1867.506      630.557        0.846        0.233      110.673       19.046        0.030      336.785        8.320      857.936
02/26/2014  08:01:00     -146.340      -68.995       -6.079       50.766       44.401       21.333     2577.155     1971.476      455.101        1.561        0.250      161.789       15.650        0.009      336.770        8.294      857.932
02/26/2014  08:02:00     -183.475      -64.381      -21.039       50.238       54.920       34.869     2523.838     3016.169     1215.878        2.250        0.338      194.443       30.925        0.025      336.681        8.147      857.935
02/26/2014  08:03:00     -101.832      -52.945        1.202       49.324       62.660       29.561     2432.836     3926.237      873.868        1.020        0.362      114.774       23.225        0.041      336.697        8.176      857.928
02/26/2014  08:04:00     -106.106      -10.604        7.056       45.116       46.159       26.344     2035.484     2130.652      693.989        0.814        0.243      106.635       28.548        0.072      336.716        8.207      857.908
02/26/2014  08:05:00      -39.124        3.551        5.867       38.312       17.543       16.275     1467.772      307.764      264.860        0.181        0.102       39.285       21.159        0.290      336.807        8.357      857.860
02/26/2014  08:06:00      -15.713       22.644        6.321       20.195       15.017       10.728      407.821      225.503      115.088        0.077        0.037       27.561       11.975        0.189      336.772        8.299      857.815
02/26/2014  08:07:00        7.653       -3.375       14.022       12.158       14.201        9.907      147.808      201.677       98.158        0.036        0.022        8.363        5.540        0.439      336.835        8.403      857.779
02/26/2014  08:08:00      -13.104       11.591        3.234       11.598       11.911        8.483      134.509      141.864       71.957        0.033        0.017       17.495        8.557        0.239      336.814        8.370      857.751
02/26/2014  08:09:00        3.324       24.867       -1.367       11.395       11.372        8.208      129.853      129.317       67.378        0.048        0.016       25.088        4.838        0.037      336.776        8.306      857.749
02/26/2014  08:10:00       11.327       26.249       -0.895        8.553       21.060        8.723       73.148      443.505       76.092        0.071        0.030       28.589       10.964        0.147      336.826        8.388      857.753
02/26/2014  08:11:00      -10.487       -1.740        9.622        8.696        6.257        7.290       75.617       39.145       53.145        0.019        0.008       10.630        5.579        0.275      336.972        8.630      857.766
02/26/2014  08:12:00      -50.290        4.366        1.484       25.234       12.907        8.504      636.760      166.584       72.327        0.171        0.044       50.479        8.550        0.029      336.912        8.531      857.779
02/26/2014  08:13:00      -66.940       -8.686      -12.288       13.507       12.440        9.743      182.434      154.747       94.919        0.257        0.022       67.501        5.161        0.006      336.822        8.383      857.801
02/26/2014  08:14:00      -66.533      -30.584        2.402       26.800       23.679       14.207      718.243      560.681      201.839        0.342        0.074       73.226       11.153        0.023      336.963        8.616      857.823
02/26/2014  08:15:00      -95.481      -32.553       -7.377       27.177       22.013       12.888      738.605      484.588      166.090        0.581        0.069      100.878        9.492        0.009      336.916        8.538      857.833
02/26/2014  08:16:00      -81.334      -31.581        3.836       25.669       27.682       14.242      658.878      766.293      202.820        0.463        0.081       87.250       13.045        0.022      337.005        8.686      857.823
02/26/2014  08:17:00     -117.236      -22.972       -2.000       27.484       28.690       18.256      755.354      823.088      333.266        0.809        0.096      119.465       16.256        0.019      336.917        8.539      857.797
02/26/2014  08:18:00     -125.834      -33.107       -7.212       16.020       29.523        8.670      256.637      871.586       75.175        0.909        0.060      130.117        5.792        0.002      336.875        8.470      857.780
02/26/2014  08:19:00      -91.083        8.798       -7.970       27.955       28.710       21.039      781.508      824.250      442.641        0.524        0.102       91.507       14.189        0.024      336.937        8.572      857.771
02/26/2014  08:20:00     -105.637       38.286      -17.481       37.432       25.722       15.803     1401.185      661.626      249.731        0.762        0.116      112.361       11.950        0.011      336.899        8.509      857.763
02/26/2014  08:21:00     -149.340       36.418      -10.016       17.976       20.396       12.342      323.135      415.998      152.336        1.231        0.045      153.716        8.672        0.003      336.870        8.461      857.756
02/26/2014  08:22:00     -128.744       14.589      -15.233       33.901       22.817       18.544     1149.311      520.615      343.887        0.952        0.101      129.568       16.342        0.016      336.876        8.472      857.765
02/26/2014  08:23:00     -148.513      -67.400       -6.339       29.965       28.502       21.883      897.902      812.366      478.884        1.441        0.109      163.092       18.601        0.013      336.910        8.528      857.803
02/26/2014  08:24:00      -92.364      -59.529       -4.234       47.871       35.197       23.402     2291.676     1238.808      547.638        0.808        0.204      109.885       22.777        0.043      336.955        8.604      857.830
02/26/2014  08:25:00      -51.402      -35.846        4.683       42.502       35.179       26.642     1806.454     1237.587      709.780        0.385        0.188       62.667       13.558        0.047      337.110        8.862      857.834
02/26/2014  08:26:00      -74.843      -76.414       -4.887       31.299       33.639       23.728      979.630     1131.600      563.023        0.707        0.134      106.960       15.209        0.020      336.941        8.580      857.814
02/26/2014  08:27:00      -50.235      -15.680        1.516       34.908       50.917       19.381     1218.590     2592.562      375.607        0.348        0.209       52.625       18.481        0.123      336.992        8.663      857.777
02/26/2014  08:28:00      -89.636       -1.768       -2.930       35.133       38.316       21.295     1234.301     1468.150      453.478        0.560        0.158       89.653       11.616        0.017      337.025        8.719      857.760
02/26/2014  08:29:00       -2.401      -29.314       13.448       46.265       25.529       31.719     2140.478      651.747     1006.095        0.242        0.190       29.412       31.208        1.126      337.121        8.882      857.783
02/26/2014  08:30:00       -8.498      -22.206       15.435       39.531       33.358       28.914     1562.683     1112.778      836.021        0.216        0.176       23.777       25.426        1.144      337.098        8.844      857.824
02/26/2014  08:31:00      -61.352      -33.846       -0.376       25.993       20.078       16.819      675.643      403.142      282.863        0.314        0.068       70.069       16.443        0.055      337.004        8.684      857.864
02/26/2014  08:32:00      -14.487       -9.283       14.837       34.644       31.785       22.527     1200.207     1010.280      507.480        0.162        0.136       17.206       25.933        2.272      337.079        8.810      857.882
02/26/2014  08:33:00        0.157       48.490       55.782       20.862       38.418       36.013      435.221     1475.948     1296.916        0.433        0.160       48.490       18.128        0.140      337.230        9.064      857.903
02/26/2014  08:34:00        2.155       74.294       86.956       20.807       33.523       20.115      432.942     1123.783      404.614        0.752        0.098       74.326       21.845        0.086      337.172        8.967      857.911
02/26/2014  08:35:00       11.747       29.588       46.058       22.284       41.866       28.012      496.580     1752.777      784.695        0.308        0.152       31.834       32.403        1.036      337.215        9.039      857.918
02/26/2014  08:36:00      -33.692      -31.196       -2.270       40.561       26.688       22.116     1645.174      712.249      489.133        0.248        0.142       45.917       13.119        0.082      337.321        9.217      857.911
02/26/2014  08:37:00      -54.467      -54.376        4.868       48.842       38.338       25.751     2385.497     1469.774      663.125        0.523        0.226       76.964       23.878        0.096      337.315        9.207      857.909
02/26/2014  08:38:00     -102.663     -102.509       -0.415       34.453       31.601       20.445     1186.985      998.653      417.988        1.183        0.130      145.079       16.287        0.013      337.194        9.003      857.911
02/26/2014  08:39:00     -104.625      -94.570      -13.083       38.333       33.890       26.269     1469.446     1148.520      690.071        1.168        0.165      141.032       21.016        0.022      337.223        9.052      857.918
02/26/2014  08:40:00     -122.010      -81.049        1.126       61.058       35.826       29.477     3728.026     1283.468      868.908        1.367        0.294      146.477       35.537        0.059      337.251        9.099      857.920
02/26/2014  08:41:00      -60.879      -88.607       -2.790       45.481       32.823       23.352     2068.515     1077.345      545.316        0.763        0.185      107.506       16.360        0.023      337.282        9.151      857.927
02/26/2014  08:42:00      -35.890      -75.955       -5.282       26.918       23.399       14.980      724.600      547.520      224.403        0.429        0.075       84.007       15.537        0.034      337.275        9.139      857.939
02/26/2014  08:43:00      -45.181      -31.755        7.323       39.619       34.699       19.259     1569.690     1204.014      370.922        0.312        0.157       55.224       24.323        0.194      337.328        9.229      857.942
02/26/2014  08:44:00      -86.695      -13.478       10.571       57.414       29.516       24.954     3296.318      871.192      622.722        0.630        0.240       87.736       29.970        0.117      337.392        9.335      857.902
02/26/2014  08:45:00     -183.863      -13.120      -17.348       35.108       36.660       21.848     1232.543     1343.960      477.336        1.867        0.153      184.331       19.305        0.011      337.369        9.296      857.811
02/26/2014  08:46:00     -190.870      -13.428      -20.120       60.583       52.190       26.492     3670.338     2723.836      701.829        2.205        0.355      191.342       21.328        0.012      337.392        9.332      857.711
02/26/2014  08:47:00     -183.662      -14.119      -17.475       50.521       52.431       31.464     2552.343     2749.025      989.960        2.026        0.315      184.204       28.031        0.023      337.365        9.291      857.666
02/26/2014  08:48:00     -126.119      -80.583        8.855       82.380       49.883       34.977     6786.517     2488.325     1223.386        1.649        0.525      149.665       41.601        0.077      337.426        9.391      857.673
02/26/2014  08:49:00     -140.720      -89.703       -6.127       73.641       47.587       27.150     5423.047     2264.564      737.128        1.815        0.421      166.880       14.815        0.008      337.303        9.183      857.694
02/26/2014  08:50:00      -97.130      -13.368        3.672       41.155       42.705       25.462     1693.732     1823.717      648.299        0.690        0.208       98.046       19.572        0.040      337.377        9.309      857.696
02/26/2014  08:51:00      -92.762       -7.503       -4.847       60.392       44.859       20.649     3647.183     2012.370      426.363        0.738        0.304       93.065       20.435        0.048      337.364        9.290      857.688
02/26/2014  08:52:00     -166.503       40.003      -13.087       48.009       35.079       25.228     2304.837     1230.560      636.462        1.683        0.209      171.241       15.839        0.009      337.345        9.254      857.656
02/26/2014  08:53:00     -175.973       68.161       -7.465       76.422       37.170       35.170     5840.338     1381.602     1236.937        2.206        0.423      188.713       35.548        0.035      337.315        9.205      857.601
02/26/2014  08:54:00     -107.074       28.688       -8.765       41.553       52.035       25.605     1726.637     2707.666      655.592        0.873        0.254      110.851       23.401        0.045      337.410        9.365      857.543
02/26/2014  08:55:00     -144.500       14.729      -15.065       51.817       64.948       33.981     2684.987     4218.275     1154.723        1.469        0.403      145.249        9.936        0.005      337.370        9.297      857.534
02/26/2014  08:56:00     -155.047      -15.670       -8.156       56.859       42.359       37.043     3232.980     1794.270     1372.181        1.537        0.320      155.837       30.451        0.038      337.315        9.206      857.568
02/26/2014  08:57:00      -75.810      -37.819        2.236       73.625       37.133       24.978     5420.674     1378.860      623.913        0.730        0.371       84.720       27.949        0.109      337.394        9.338      857.602
02/26/2014  08:58:00      -19.276      -30.371       18.284       62.084       45.203       38.049     3854.429     2043.280     1447.693        0.449        0.367       35.972       35.552        0.977      337.492        9.501      857.649
02/26/2014  08:59:00       -6.923      -39.053        2.663       41.524       32.937       27.022     1724.233     1084.827      730.197        0.256        0.177       39.662       15.564        0.154      337.458        9.444      857.711
02/26/2014  09:00:00      -13.706      -33.469        0.323       39.539       31.431       17.870     1563.313      987.890      319.349        0.209        0.144       36.166       12.309        0.116      337.353        9.268      857.784
02/26/2014  09:01:00        1.011       40.473       63.056       56.238       57.947       67.988     3162.740     3357.862     4622.338        0.838        0.557       40.486       36.251        0.802      337.581        9.651      857.842
02/26/2014  09:02:00       54.523       90.426      121.455       75.531      100.417       71.352     5704.889    10083.564     5091.077        2.339        1.044      105.592       74.450        0.497      337.649        9.763      857.876
02/26/2014  09:03:00       54.784      -85.675        8.844       60.688       75.908       63.217     3683.086     5761.995     3996.387        1.193        0.672      101.693       45.759        0.202      337.658        9.780      857.893
02/26/2014  09:04:00      125.782     -125.546      -23.185       62.093       73.307       45.626     3855.557     5373.927     2081.744        2.171        0.566      177.716       39.202        0.049      337.586        9.658      857.900
02/26/2014  09:05:00      115.570     -141.239      -30.746       47.905       42.951       31.294     2294.869     1844.814      979.324        1.968        0.256      182.496       20.039        0.012      337.611        9.703      857.886
02/26/2014  09:06:00      121.728     -138.785      -13.270       49.882       56.117       38.143     2488.241     3149.166     1454.899        2.067        0.355      184.605       36.635        0.039      337.555        9.606      857.882
02/26/2014  09:07:00      120.900     -123.605       -8.336       77.689       99.082       56.653     6035.611     9817.266     3209.565        2.451        0.953      172.901       68.378        0.156      337.583        9.653      857.900
02/26/2014  09:08:00      116.934     -135.243        5.257      117.477      152.812       78.007    13800.791    23351.631     6085.028        3.761        2.162      178.786       96.500        0.291      337.593        9.671      857.950
02/26/2014  09:09:00       97.156     -127.865       16.907       93.276      141.872       90.282     8700.422    20127.735     8150.771        3.152        1.849      160.589       86.047        0.287      337.554        9.604      857.975
02/26/2014  09:10:00       96.199      -43.798       72.669      120.440      216.375      110.577    14505.686    46818.121    12227.285        4.499        3.678      105.700      148.612        1.977      337.406        9.356      857.992
02/26/2014  09:11:00      139.968     -258.675      -34.131       69.569       66.178       42.073     4839.888     4379.491     1770.099        4.933        0.549      294.115       29.284        0.010      337.269        9.126      857.973
02/26/2014  09:12:00       65.608     -107.128      -17.868       62.559       69.332       42.145     3913.681     4806.914     1776.162        1.330        0.525      125.622       38.912        0.096      337.315        9.205      857.914
02/26/2014  09:13:00      -33.519       -4.441       10.800       58.574       28.922       21.815     3430.872      836.455      475.883        0.300        0.237       33.812       25.376        0.563      337.398        9.346      857.834
02/26/2014  09:14:00      -20.407      -10.267       20.076       39.694       32.537       22.218     1575.650     1058.659      493.621        0.203        0.156       22.844       19.488        0.728      337.426        9.391      857.814
02/26/2014  09:15:00      -83.509      -30.330       -3.988       48.067       26.492       27.085     2310.446      701.810      733.604        0.583        0.187       88.847       28.516        0.103      337.316        9.207      857.814
02/26/2014  09:16:00      -49.394      -23.233        6.826       40.591       24.185       21.850     1647.644      584.928      477.405        0.287        0.135       54.585       19.811        0.132      337.288        9.160      857.806
02/26/2014  09:17:00      -14.309       11.265       10.520       16.578       17.755       13.907      274.821      315.231      193.408        0.061        0.039       18.211       10.996        0.365      337.392        9.335      857.819
02/26/2014  09:18:00       -1.724       33.333       74.794       45.843       51.373       60.889     2101.612     2639.221     3707.524        0.758        0.422       33.377       47.555        2.030      337.474        9.471      857.842
02/26/2014  09:19:00       36.388       26.693      101.396       53.328      114.302       61.127     2843.882    13064.949     3736.546        1.598        0.982       45.129       68.615        2.312      337.385        9.322      857.885
02/26/2014  09:20:00       81.415       40.544       60.956       57.974       72.337       42.835     3360.978     5232.660     1834.876        1.121        0.521       90.952       41.291        0.206      337.375        9.304      857.884
02/26/2014  09:21:00      168.627      116.522       65.199       92.241       79.863       62.561     8508.369     6378.044     3913.915        3.253        0.940      204.970       48.581        0.056      337.243        9.083      857.822
02/26/2014  09:22:00       95.524       58.763       73.091       72.352       75.414       52.691     5234.859     5687.339     2776.384        1.581        0.685      112.152       43.106        0.148      337.218        9.044      857.809
02/26/2014  09:23:00       55.046      -54.621        7.504       48.774       52.076       37.724     2378.906     2711.859     1423.082        0.629        0.326       77.547       35.726        0.212      337.352        9.269      857.814
02/26/2014  09:24:00       24.272        2.354       27.715       28.573       39.669       21.386      816.419     1573.626      457.359        0.210        0.142       24.386       15.327        0.395      337.375        9.307      857.787
02/26/2014  09:25:00        0.454       10.828       47.382       22.568       48.551       29.350      509.328     2357.176      861.419        0.304        0.186       10.837       28.125        6.735      337.489        9.497      857.745
02/26/2014  09:26:00       30.805       58.189       56.469       32.391       23.458       14.286     1049.180      550.287      204.102        0.466        0.090       65.840       10.410        0.025      337.264        9.120      857.717
02/26/2014  09:27:00        7.509       10.282       43.644       27.886       26.297       18.653      777.651      691.529      347.940        0.194        0.091       12.732       18.137        2.029      337.449        9.430      857.717
02/26/2014  09:28:00       23.526      -18.426       10.407       30.950       31.974       16.796      957.919     1022.322      282.112        0.163        0.113       29.883       18.449        0.381      337.526        9.559      857.725
02/26/2014  09:29:00       33.790       47.780        6.221       24.065       29.258       22.904      579.129      856.038      524.603        0.271        0.098       58.521       19.205        0.108      337.405        9.357      857.701
02/26/2014  09:30:00       -3.971      109.051      -14.872       26.595       47.957       19.647      707.294     2299.903      385.989        0.776        0.170      109.123       23.417        0.046      337.350        9.264      857.648
02/26/2014  09:31:00      -47.678       26.760       -9.165       26.138       46.203       16.264      683.195     2134.678      264.518        0.308        0.154       54.674       16.265        0.089      337.535        9.576      857.621
02/26/2014  09:32:00      -80.415       45.252      -12.583       22.571       25.667       18.642      509.465      658.816      347.522        0.509        0.076       92.273       11.253        0.015      337.526        9.560      857.611
02/26/2014  09:33:00      -64.375       56.378      -11.998       30.237       46.908       20.240      914.264     2200.352      409.651        0.549        0.176       85.573       17.880        0.044      337.438        9.412      857.601
02/26/2014  09:34:00      -53.884      -17.828        3.554       60.987       28.852       20.974     3719.449      832.438      439.926        0.411        0.250       56.757       22.660        0.159      337.625        9.725      857.623
02/26/2014  09:35:00      -86.115       -9.414       -9.531       25.247       22.477       10.168      637.432      505.215      103.393        0.442        0.062       86.628       10.092        0.014      337.327        9.227      857.626
02/26/2014  09:36:00       -2.691       69.201        0.435       33.846       49.285       28.744     1145.529     2428.971      826.194        0.460        0.220       69.253       25.248        0.133      337.571        9.635      857.584
02/26/2014  09:37:00       54.489      124.730       -7.342       41.853       61.237       41.090     1751.664     3749.965     1688.413        1.288        0.360      136.112       37.651        0.077      337.541        9.584      857.541
02/26/2014  09:38:00       33.077       48.500        6.122       45.259       35.231       26.757     2048.335     1241.208      715.956        0.374        0.200       58.706       20.856        0.126      337.666        9.794      857.526
02/26/2014  09:39:00       71.202       25.377        5.838       44.063       33.326       25.407     1941.553     1110.594      645.539        0.472        0.185       75.589       10.338        0.019      337.606        9.693      857.512
02/26/2014  09:40:00       31.784       38.215        0.139       45.427       29.423       17.477     2063.619      865.740      305.447        0.285        0.162       49.705       15.056        0.092      337.575        9.641      857.469
02/26/2014  09:41:00      -67.085      158.562      -26.929       38.575       44.510       24.932     1488.058     1981.131      621.629        1.723        0.205      172.170       17.744        0.011      337.582        9.652      857.413
02/26/2014  09:42:00     -121.484       46.764      -12.706       58.119       31.898       25.380     3377.856     1017.502      644.152        1.107        0.252      130.174       26.691        0.042      337.571        9.635      857.349
02/26/2014  09:43:00     -169.026       21.545      -21.480       79.893       55.701       31.232     6382.938     3102.561      975.448        1.998        0.523      170.394       36.104        0.045      337.670        9.799      857.291
02/26/2014  09:44:00     -159.410       83.831      -14.219       60.621       45.463       31.682     3674.924     2066.893     1003.764        1.969        0.337      180.109       22.080        0.015      337.685        9.825      857.250
02/26/2014  09:45:00      -53.802       78.253        2.007       39.214       67.115       33.961     1537.734     4504.404     1153.372        0.811        0.360       94.964       37.441        0.155      337.882       10.156      857.228
02/26/2014  09:46:00      -68.167      -15.810      -10.029       32.110       54.137       31.590     1031.042     2930.814      997.929        0.498        0.248       69.977       18.996        0.074      337.874       10.143      857.216
02/26/2014  09:47:00      -88.350      -21.086       -4.626       72.802       51.227       31.025     5300.061     2624.157      962.581        0.858        0.444       90.831       30.638        0.114      337.853       10.108      857.209
02/26/2014  09:48:00     -115.175        4.360      -15.010       57.451       46.661       25.998     3300.674     2177.255      675.905        0.983        0.308      115.257       11.036        0.009      337.858       10.116      857.171
02/26/2014  09:49:00     -134.145       34.713      -23.361       50.573       47.427       27.352     2557.623     2249.319      748.107        1.265        0.278      138.564       23.988        0.030      337.852       10.106      857.146
02/26/2014  09:50:00     -133.988       21.372      -11.715       71.080       56.468       40.753     5052.298     3188.628     1660.780        1.422        0.495      135.682       47.060        0.120      337.848       10.099      857.125
02/26/2014  09:51:00     -140.972      -16.678      -18.618       51.077       43.386       22.959     2608.890     1882.362      527.102        1.276        0.251      141.955       21.840        0.024      337.852       10.104      857.089
02/26/2014  09:52:00     -159.639      -71.733      -12.696       50.573       50.858       34.497     2557.605     2586.577     1190.057        1.856        0.317      175.015       27.186        0.024      338.019       10.386      857.047
02/26/2014  09:53:00     -128.201      -40.837       -0.858       60.489       54.620       44.778     3658.867     2983.329     2005.087        1.337        0.432      134.548       36.733        0.075      338.029       10.403      857.039
02/26/2014  09:54:00     -144.913      -22.087      -21.274       49.486       42.355       32.705     2448.903     1793.953     1069.585        1.363        0.266      146.587       12.931        0.008      338.014       10.379      857.021
02/26/2014  09:55:00      -97.796       49.197      -26.643       45.772       49.318       29.163     2095.101     2432.261      850.478        0.903        0.269      109.473       16.816        0.024      338.101       10.524      857.003
02/26/2014  09:56:00      -58.539      -31.926      -12.453       53.398       35.816       25.169     2851.344     1282.776      633.462        0.468        0.238       66.679       25.476        0.146      338.197       10.684      857.013
02/26/2014  09:57:00       19.275      -29.059        6.146       35.268       29.120       28.238     1243.816      847.996      797.403        0.207        0.144       34.870       14.980        0.185      338.414       11.049      857.022
02/26/2014  09:58:00      -42.450      -21.598        2.875       43.698       22.681       20.048     1909.489      514.425      401.916        0.255        0.141       47.629       21.616        0.206      338.310       10.875      857.016
02/26/2014  09:59:00      -22.471      -28.982      -13.200       27.786       19.995       12.616      772.068      399.820      159.152        0.142        0.067       36.673        2.680        0.005      338.326       10.902      857.031
02/26/2014  10:00:00       -0.403      -33.359       -7.763       26.626       31.530       30.976      708.943      994.111      959.540        0.192        0.133       33.361       24.871        0.556      338.332       10.912      857.061
02/26/2014  10:01:00       48.862      -39.070       18.883       26.746       38.385       22.479      715.330     1473.388      505.318        0.348        0.135       62.562       24.632        0.155      338.485       11.169      857.072
02/26/2014  10:02:00       13.406       21.083       34.978       28.654       33.797       21.279      821.072     1142.266      452.783        0.213        0.121       24.984       21.245        0.723      338.578       11.325      857.065
02/26/2014  10:03:00      -37.886      -14.804        1.219       38.014       23.914       18.626     1445.060      571.856      346.944        0.201        0.118       40.676       16.965        0.174      338.626       11.406      857.059
02/26/2014  10:04:00        9.673      -15.238        1.811       23.448       22.094       17.625      549.819      488.166      310.629        0.084        0.067       18.049       16.361        0.822      338.694       11.520      857.074
02/26/2014  10:05:00      -39.879       -5.835       12.047       36.470       21.686       15.939     1330.084      470.268      254.057        0.191        0.103       40.304       18.258        0.205      338.683       11.500      857.071
02/26/2014  10:06:00      -35.423        2.488        8.999       21.997       20.052       14.035      483.865      402.090      196.973        0.121        0.054       35.510       10.567        0.089      338.536       11.255      857.065
02/26/2014  10:07:00       -4.693        8.137       18.619        7.300       11.484       11.898       53.289      131.893      141.569        0.038        0.016        9.393        6.426        0.468      338.860       11.799      857.049
02/26/2014  10:08:00      -12.875       11.259       37.467       19.701       27.313       18.526      388.116      746.027      343.213        0.159        0.074       17.103       19.183        1.258      338.761       11.632      857.032
02/26/2014  10:09:00       53.245      -38.562       26.186       43.794       53.862       37.758     1917.910     2901.125     1425.703        0.562        0.312       65.742       40.494        0.379      338.594       11.351      857.037
02/26/2014  10:10:00       25.995      -48.149        0.393       45.693       62.932       43.808     2087.835     3960.389     1919.181        0.548        0.398       54.718       31.786        0.337      338.668       11.474      857.053
02/26/2014  10:11:00       18.231      -22.841       27.640       35.576       49.275       42.525     1265.685     2428.034     1808.356        0.356        0.275       29.225       23.478        0.645      338.716       11.556      857.057
02/26/2014  10:12:00       22.612       24.349       41.825       39.871       46.291       39.804     1589.715     2142.851     1584.398        0.408        0.266       33.229       20.052        0.364      338.742       11.600      857.044
02/26/2014  10:13:00       48.422      108.999      118.990       57.144       57.485       37.587     3265.411     3304.547     1412.805        1.818        0.399      119.271       29.780        0.062      338.621       11.396      857.037
02/26/2014  10:14:00       11.106       80.109      102.195       36.210       43.786       38.806     1311.189     1917.235     1505.879        1.086        0.237       80.875       26.143        0.104      338.568       11.308      857.042
02/26/2014  10:15:00       78.033       73.096       63.585       72.778       37.781       43.664     5296.566     1427.379     1906.572        1.205        0.432      106.921       24.975        0.055      338.537       11.255      857.029
02/26/2014  10:16:00       60.490       89.983       85.351       48.145       36.629       30.769     2317.924     1341.687      946.717        1.182        0.230      108.426       27.173        0.063      338.519       11.226      857.019
02/26/2014  10:17:00       91.908       79.487       54.130       46.663       45.316       44.096     2177.434     2053.551     1944.430        1.193        0.309      121.513       32.740        0.073      338.381       10.995      857.020
02/26/2014  10:18:00       23.215       68.827       74.796       52.440       39.937       34.011     2749.903     1595.002     1156.773        0.818        0.275       72.637       31.011        0.182      338.470       11.142      856.996
02/26/2014  10:19:00       49.654       -0.844       18.333       28.709       56.793       42.356      824.197     3225.444     1794.044        0.432        0.292       49.661       45.216        0.829      338.440       11.092      856.974
02/26/2014  10:20:00       42.309       18.227        5.779       18.662       17.310       23.313      348.287      299.643      543.501        0.167        0.060       46.069       13.561        0.087      338.515       11.219      856.927
02/26/2014  10:21:00       41.406       45.129       39.516       23.430       20.845       20.980      548.965      434.518      440.153        0.337        0.071       61.246       14.522        0.056      338.587       11.340      856.916
02/26/2014  10:22:00       14.880       72.200       79.304       32.912       34.115       28.110     1083.201     1163.855      790.180        0.738        0.152       73.718       19.025        0.067      338.746       11.607      856.920
02/26/2014  10:23:00       58.067       86.514       89.541       48.291       38.876       22.030     2332.008     1511.378      485.311        1.160        0.216      104.194       21.617        0.043      338.637       11.423      856.914
02/26/2014  10:24:00       82.113       95.255       65.571       43.502       26.934       27.238     1892.436      725.426      741.930        1.174        0.168      125.762       15.584        0.015      338.516       11.220      856.923
02/26/2014  10:25:00       63.455       51.171       68.907       58.208       36.737       32.636     3388.209     1349.577     1065.126        0.860        0.290       81.517       32.147        0.156      338.635       11.419      856.928
02/26/2014  10:26:00       56.844       53.616       58.520       59.469       40.395       40.585     3536.561     1631.785     1647.175        0.817        0.341       78.140       40.147        0.264      338.632       11.416      856.932
02/26/2014  10:27:00      123.891       52.276       32.522       51.253       49.867       31.674     2626.874     2486.709     1003.240        1.263        0.306      134.468       21.901        0.027      338.547       11.273      856.933
02/26/2014  10:28:00      106.922       72.898       29.450       45.757       32.169       34.330     2093.662     1034.857     1178.568        1.096        0.215      129.408       24.401        0.036      338.585       11.336      856.933
02/26/2014  10:29:00       59.264       90.291      104.582       77.420       58.354       54.371     5993.895     3405.207     2956.231        1.748        0.618      108.004       54.287        0.253      338.639       11.426      856.941
02/26/2014  10:30:00       75.590       77.557       91.798       78.361       62.763       53.862     6140.519     3939.223     2901.114        1.657        0.649      108.300       56.413        0.271      338.640       11.428      856.934
02/26/2014  10:31:00      114.892       95.442       44.315       85.691       59.444       58.032     7342.961     3533.546     3367.747        1.926        0.712      149.363       55.549        0.138      338.536       11.252      856.942
02/26/2014  10:32:00      124.325       74.088       34.063       46.514       53.242       46.840     2163.590     2834.731     2193.982        1.465        0.360      144.727       21.934        0.023      338.486       11.170      856.922
02/26/2014  10:33:00       77.341       46.650        9.132       48.492       49.164       37.590     2351.440     2417.054     1412.975        0.721        0.309       90.321       20.786        0.053      338.457       11.122      856.915
02/26/2014  10:34:00       12.674       26.118       46.779       30.481       23.494       23.763      929.085      551.985      564.687        0.254        0.102       29.031       20.760        0.511      338.733       11.585      856.883
02/26/2014  10:35:00       55.418       37.622       19.524       32.563       28.629       27.190     1060.373      819.644      739.292        0.374        0.131       66.982       19.038        0.081      338.611       11.380      856.874
02/26/2014  10:36:00       70.938       50.403        6.135       38.038       34.690       23.412     1446.921     1203.368      548.143        0.540        0.160       87.021       12.554        0.021      338.428       11.072      856.851
02/26/2014  10:37:00      115.111       69.924       17.773       24.543       24.023       21.315      602.374      577.085      454.338        1.004        0.082      134.685       13.310        0.010      338.375       10.984      856.837
02/26/2014  10:38:00       47.455       80.794       -3.167       32.918       30.430       30.844     1083.617      925.992      951.360        0.587        0.148       93.700       22.966        0.060      338.467       11.138      856.822
02/26/2014  10:39:00       53.309       48.407       -1.741       33.790       24.849       28.698     1141.781      617.490      823.555        0.388        0.129       72.007       18.008        0.063      338.506       11.204      856.796
02/26/2014  10:40:00       29.347       52.620       -6.295       32.003       29.450       21.015     1024.208      867.275      441.649        0.300        0.117       60.250       17.146        0.081      338.598       11.358      856.781
02/26/2014  10:41:00       68.447       58.346       -7.347       40.111       39.957       24.887     1608.862     1596.591      619.344        0.598        0.191       89.940       14.462        0.026      338.567       11.306      856.768
02/26/2014  10:42:00       48.192       32.714        2.532       34.209       29.541       23.711     1170.282      872.688      562.235        0.300        0.130       58.247       16.489        0.080      338.659       11.460      856.763
02/26/2014  10:43:00       83.588       64.083       16.043       43.608       30.161       27.706     1901.615      909.693      767.645        0.746        0.179      105.326       11.250        0.011      338.610       11.380      856.756
02/26/2014  10:44:00       37.793       61.796       11.055       28.668       38.931       32.739      821.830     1515.605     1071.866        0.439        0.170       72.437       28.546        0.155      338.589       11.345      856.752
02/26/2014  10:45:00       46.538       51.051        5.826       31.635       29.350       27.820     1000.799      861.413      773.943        0.372        0.132       69.080       18.360        0.071      338.611       11.380      856.740
02/26/2014  10:46:00       33.237       60.636       -2.949       28.821       31.335       25.734      830.648      981.879      662.243        0.363        0.124       69.148       20.076        0.084      338.652       11.450      856.725
02/26/2014  10:47:00       63.499       49.354        3.562       36.155       27.454       35.187     1307.176      753.712     1238.138        0.489        0.165       80.424       26.329        0.107      338.714       11.553      856.704
02/26/2014  10:48:00       75.679       29.593        0.160       44.612       27.362       22.156     1990.268      748.658      490.898        0.492        0.161       81.259       17.096        0.044      338.730       11.579      856.687
02/26/2014  10:49:00       54.012       18.915        3.548       35.586       18.874       19.372     1266.383      356.241      375.262        0.264        0.100       57.228       12.899        0.051      338.869       11.812      856.677
02/26/2014  10:50:00       67.147       58.463        0.625       39.408       37.855       33.332     1552.979     1433.023     1111.004        0.601        0.205       89.031       24.026        0.073      338.720       11.564      856.657
02/26/2014  10:51:00      105.735       57.751        5.503       29.308       31.631       30.048      858.932     1000.509      902.904        0.865        0.138      120.478       12.455        0.011      338.694       11.519      856.648
02/26/2014  10:52:00       98.170       41.725       11.246       53.732       43.592       35.713     2887.135     1900.234     1275.432        0.878        0.303      106.669       28.497        0.071      338.602       11.363      856.633
02/26/2014  10:53:00       39.487       20.974       -2.118       21.670       26.868       25.177      469.605      721.911      633.882        0.191        0.091       44.712       11.748        0.069      338.734       11.586      856.624
02/26/2014  10:54:00       61.124       36.954       16.508       31.078       23.646       27.742      965.873      559.143      769.640        0.383        0.115       71.427       16.336        0.052      338.790       11.680      856.614
02/26/2014  10:55:00       44.899       16.351       23.364       41.336       30.019       27.018     1708.684      901.169      729.986        0.308        0.167       47.784       21.939        0.211      338.942       11.935      856.618
02/26/2014  10:56:00        3.690       19.852       31.200       25.204       25.222       26.271      635.254      636.133      690.161        0.167        0.098       20.192       18.242        0.816      339.299       12.538      856.607
02/26/2014  10:57:00       34.175       52.058        9.382       25.794       20.656       24.953      665.315      426.682      622.650        0.284        0.086       62.273       15.807        0.064      338.990       12.016      856.618
02/26/2014  10:58:00       33.286       43.108       14.128       26.556       24.473       21.800      705.216      598.944      475.241        0.247        0.089       54.463       16.998        0.097      339.066       12.144      856.624
02/26/2014  10:59:00       27.050      -22.324       26.457       19.355       20.495       18.106      374.600      420.055      327.837        0.153        0.056       35.073        9.309        0.070      339.240       12.438      856.616
02/26/2014  11:00:00        8.308        4.028       24.001       23.955       27.011       16.278      573.823      729.604      264.986        0.111        0.078        9.233        8.157        0.781      339.340       12.607      856.604
02/26/2014  11:01:00       44.012        2.026       20.185       18.012       20.016       20.083      324.418      400.637      403.330        0.174        0.056       44.059       11.621        0.070      339.133       12.258      856.584
02/26/2014  11:02:00       31.185        1.299       42.638       36.029       29.883       22.863     1298.072      892.990      522.722        0.275        0.136       31.213       19.367        0.385      339.536       12.938      856.568
02/26/2014  11:03:00       48.482       29.345       25.156       39.782       31.103       29.167     1582.633      967.411      850.702        0.362        0.170       56.671       23.483        0.172      339.253       12.460      856.544
02/26/2014  11:04:00       60.270       34.460        3.710       60.920       37.053       30.522     3711.296     1372.927      931.605        0.542        0.301       69.426       17.479        0.063      339.439       12.772      856.535
02/26/2014  11:05:00       20.705       62.202       75.688       46.306       43.513       33.332     2144.201     1893.404     1111.004        0.759        0.257       65.557       27.973        0.182      339.565       12.986      856.527
02/26/2014  11:06:00       56.837       61.818       46.128       71.157       46.761       54.601     5063.363     2186.569     2981.288        0.970        0.512       83.976       54.672        0.424      339.289       12.520      856.513
02/26/2014  11:07:00      113.573       89.263       10.640       33.927       31.528       34.913     1151.056      994.035     1218.883        1.217        0.168      144.453       20.017        0.019      339.064       12.140      856.508
02/26/2014  11:08:00      133.018       98.353       18.519       46.535       32.571       28.383     2165.509     1060.883      805.594        1.587        0.202      165.430       12.250        0.005      339.036       12.094      856.503
02/26/2014  11:09:00       88.471       65.167       14.947       53.669       36.539       31.905     2880.311     1335.077     1017.939        0.876        0.262      109.881       19.071        0.030      339.347       12.618      856.476
02/26/2014  11:10:00       73.805        8.515       13.948       43.739       46.421       26.492     1913.078     2154.917      701.842        0.524        0.238       74.294       20.721        0.078      339.314       12.562      856.470
02/26/2014  11:11:00       51.390       33.034       19.342       49.313       43.320       34.238     2431.799     1876.603     1172.207        0.479        0.274       61.092       23.318        0.146      339.582       13.014      856.443
02/26/2014  11:12:00      116.664       73.883       10.002       61.963       46.063       37.288     3839.428     2121.791     1390.426        1.326        0.368      138.092       28.655        0.043      339.467       12.820      856.426
02/26/2014  11:13:00      121.350       71.152       47.914       70.581       54.424       36.319     4981.660     2962.001     1319.094        1.567        0.463      140.672       25.315        0.032      339.505       12.883      856.422
02/26/2014  11:14:00       47.682       88.900       95.667       50.384       51.363       47.892     2538.547     2638.147     2293.647        1.340        0.374      100.880       34.457        0.117      339.726       13.255      856.426
02/26/2014  11:15:00       60.772       84.597       72.458       61.669       47.695       41.556     3803.084     2274.828     1726.939        1.195        0.390      104.163       24.972        0.057      339.791       13.366      856.409
02/26/2014  11:16:00       45.709       47.986       46.378       52.141       58.151       31.774     2718.635     3381.577     1009.604        0.682        0.355       66.273       21.306        0.103      339.987       13.698      856.398
02/26/2014  11:17:00       78.608       39.358       64.035       86.989       56.764       61.464     7567.133     3222.175     3777.774        1.319        0.728       87.911       59.430        0.457      339.979       13.684      856.376
02/26/2014  11:18:00       50.578       74.376       92.766       46.252       44.109       42.819     2139.261     1945.574     1833.499        1.131        0.296       89.943       25.933        0.083      339.722       13.250      856.374
02/26/2014  11:19:00       63.582       65.062       48.299       69.532       58.841       58.424     4834.673     3462.295     3413.345        1.116        0.586       90.971       52.838        0.337      339.847       13.461      856.379
02/26/2014  11:20:00       98.644       63.657       60.018       46.823       39.055       36.583     2192.352     1525.320     1338.341        1.122        0.253      117.400       29.541        0.063      339.651       13.132      856.391
02/26/2014  11:21:00       67.458       44.578       59.214       59.650       34.335       36.785     3558.109     1178.858     1353.105        0.807        0.305       80.857       34.863        0.186      339.798       13.377      856.387
02/26/2014  11:22:00       19.756       17.855       65.072       47.797       64.135       46.072     2284.595     4113.242     2122.589        0.673        0.426       26.629       37.717        2.006      340.111       13.906      856.371
02/26/2014  11:23:00       53.177      -39.138       29.526       38.761       56.442       36.481     1502.385     3185.697     1330.865        0.562        0.301       66.027       38.762        0.345      339.937       13.613      856.356
02/26/2014  11:24:00       79.577      -56.276        7.446       48.934       40.087       43.240     2394.548     1606.961     1869.661        0.771        0.294       97.465       30.720        0.099      339.615       13.070      856.341
02/26/2014  11:25:00       92.894      -23.898       30.909       50.122       47.038       32.253     2512.219     2212.532     1040.250        0.796        0.288       95.918       29.477        0.094      339.658       13.142      856.322
02/26/2014  11:26:00       31.440      -52.477        9.712       36.199       57.884       34.706     1310.359     3350.518     1204.489        0.485        0.293       61.174       36.179        0.350      339.889       13.534      856.297
02/26/2014  11:27:00       54.347      -32.140        4.575       56.485       53.162       41.094     3190.502     2826.250     1688.700        0.585        0.385       63.139       32.457        0.264      339.805       13.390      856.273
02/26/2014  11:28:00        5.830       24.973       17.642       24.664       31.286       20.983      608.322      978.844      440.288        0.150        0.101       25.644       17.348        0.458      340.063       13.827      856.241
02/26/2014  11:29:00      -11.762        7.277       15.254       12.605       11.146       15.859      158.893      124.228      251.516        0.048        0.027       13.831        7.327        0.281      340.389       14.377      856.217
02/26/2014  11:30:00       10.484      -12.996       15.214       14.503       18.424       21.094      210.324      339.460      444.966        0.075        0.050       16.697       14.299        0.733      340.449       14.477      856.221
02/26/2014  11:31:00       17.597      -59.874       10.025       45.930       59.674       33.380     2109.549     3560.967     1114.249        0.539        0.339       62.406       34.878        0.312      340.272       14.179      856.217
02/26/2014  11:32:00        7.636      -33.333       39.825       33.117       54.382       32.404     1096.714     2957.362     1049.988        0.393        0.255       34.197       14.877        0.189      340.325       14.267      856.192
02/26/2014  11:33:00       27.247       21.965       47.952       38.981       64.698       40.147     1519.496     4185.834     1611.815        0.542        0.366       34.998       40.413        1.333      340.101       13.890      856.172
02/26/2014  11:34:00       82.335        0.384       40.073       46.154       47.535       48.046     2130.191     2259.609     2308.385        0.754        0.335       82.336       41.254        0.251      339.920       13.584      856.155
02/26/2014  11:35:00       42.334        7.013       39.606       38.388       33.038       28.691     1473.645     1091.517      823.169        0.340        0.169       42.911       23.461        0.299      340.049       13.800      856.123
02/26/2014  11:36:00       89.881      100.934       93.930       68.638       72.270       67.929     4711.122     5222.938     4614.403        2.082        0.727      135.153       65.640        0.236      339.928       13.597      856.109
02/26/2014  11:37:00       63.528       41.071       53.947       59.592       49.493       44.566     3551.259     2449.508     1986.123        0.831        0.399       75.648       48.400        0.409      340.062       13.823      856.130
02/26/2014  11:38:00       73.880       25.308       27.810       52.164       36.501       40.016     2721.093     1332.329     1601.273        0.626        0.283       78.095       34.732        0.198      339.973       13.674      856.109
02/26/2014  11:39:00       67.125       11.762       32.561       50.739       44.667       37.857     2574.496     1995.173     1433.115        0.585        0.300       68.148       38.236        0.315      340.109       13.903      856.104
02/26/2014  11:40:00       79.199       65.889       58.742       51.941       34.401       46.017     2697.898     1183.454     2117.540        1.003        0.300      103.024       28.517        0.077      340.174       14.013      856.074
02/26/2014  11:41:00       32.029       56.115       73.719       44.424       44.824       33.977     1973.478     2009.172     1154.415        0.737        0.257       64.612       32.735        0.257      340.439       14.459      856.020
02/26/2014  11:42:00       52.950       -2.770       26.646       46.763       75.866       35.914     2186.763     5755.719     1289.849        0.638        0.462       53.023       45.343        0.731      340.137       13.949      855.995
02/26/2014  11:43:00       57.726       22.537       21.453       49.924       48.969       30.409     2492.368     2397.931      924.687        0.506        0.291       61.970       20.346        0.108      340.240       14.124      855.966
02/26/2014  11:44:00      145.218       84.516       33.424       66.052       50.985       40.938     4362.931     2599.461     1675.948        1.899        0.432      168.022       21.771        0.017      340.223       14.095      855.927
02/26/2014  11:45:00       74.249       88.018       64.794       78.231       70.124       76.026     6120.100     4917.412     5780.006        1.713        0.841      115.152       63.384        0.303      340.320       14.258      855.897
02/26/2014  11:46:00       88.729       94.800       50.547      116.525       65.296       55.787    13578.180     4263.556     3112.162        2.018        1.048      129.846       53.342        0.169      340.132       13.939      855.889
02/26/2014  11:47:00       43.633       19.745       33.539       42.024       64.320       40.219     1766.017     4137.121     1617.552        0.547        0.376       47.892       25.477        0.283      340.404       14.402      855.870
02/26/2014  11:48:00       83.945      -44.451       41.755       78.049      114.187       70.899     6091.655    13038.613     5026.617        1.746        1.208       94.987       83.242        0.768      340.396       14.387      855.862
02/26/2014  11:49:00      103.742       -1.658       56.879       60.880       98.393       52.552     3706.352     9681.166     2761.718        1.507        0.807      103.755       52.381        0.255      340.462       14.499      855.857
02/26/2014  11:50:00       39.190       53.272       46.438       54.195       39.014       32.710     2937.147     1522.119     1069.952        0.603        0.276       66.135       18.819        0.081      340.694       14.891      855.827
02/26/2014  11:51:00       22.106        2.295       18.797       71.273       44.725       36.131     5079.860     2000.304     1305.469        0.461        0.419       22.225       25.640        1.331      340.709       14.916      855.807
02/26/2014  11:52:00       67.632       48.997       28.874       60.240       62.556       37.378     3628.854     3913.290     1397.084        0.837        0.447       83.515       25.788        0.095      340.370       14.345      855.802
02/26/2014  11:53:00       37.234     -131.947      -19.558       56.843       43.509       33.917     3231.081     1893.001     1150.341        1.273        0.314      137.100       24.712        0.032      340.557       14.660      855.801
02/26/2014  11:54:00        6.355      -16.799       14.673       45.452       31.421       28.850     2065.883      987.249      832.322        0.221        0.194       17.961       19.875        1.224      340.759       15.001      855.785
02/26/2014  11:55:00       35.319      -95.000       11.191       76.088      105.893       61.910     5789.400    11213.259     3832.787        1.561        1.042      101.353       62.511        0.380      340.618       14.761      855.764
02/26/2014  11:56:00       82.904      108.330       91.621       63.501       47.303       42.381     4032.405     2237.572     1796.147        1.753        0.403      136.413       34.597        0.064      340.456       14.488      855.730
02/26/2014  11:57:00       90.261       84.442       96.124       65.775       62.116       45.942     4326.324     3858.373     2110.703        1.740        0.515      123.602       20.598        0.028      340.660       14.834      855.691
02/26/2014  11:58:00       74.139       62.857       66.910       49.085       50.750       51.361     2409.293     2575.581     2637.914        1.077        0.381       97.199       38.595        0.158      340.500       14.564      855.685
02/26/2014  11:59:00      -66.877      -35.270       13.565       70.947       44.975       31.422     5033.508     2022.719      987.346        0.697        0.402       75.608       28.752        0.145      340.679       14.865      855.683
02/26/2014  12:00:00       20.970       -9.897       44.141       38.851       78.399       64.185     1509.369     6146.376     4119.712        0.713        0.589       23.188       67.573        8.492      341.024       15.450      855.666
02/26/2014  12:01:00       42.692      -27.434       77.541       64.036      111.750       96.261     4100.590    12488.062     9266.164        1.722        1.293       50.747       74.154        2.135      340.885       15.215      855.626
02/26/2014  12:02:00      -73.078      -79.336       19.530       89.999       80.478       42.001     8099.876     6476.703     1764.098        1.418        0.817      107.864       41.591        0.149      340.937       15.302      855.637
02/26/2014  12:03:00     -151.973     -143.145      -15.821      110.247      175.363       53.783    12154.333    30752.321     2892.607        4.481        2.290      208.773       41.824        0.040      340.570       14.680      855.603
02/26/2014  12:04:00     -141.534      -90.203       27.473      115.478       74.583       59.999    13335.153     5562.660     3599.867        2.571        1.125      167.835       53.687        0.102      340.749       14.983      855.574
02/26/2014  12:05:00     -157.520     -137.960      -15.706       78.818       72.514       50.002     6212.353     5258.303     2500.227        2.903        0.699      209.393       47.948        0.052      340.696       14.891      855.547
02/26/2014  12:06:00      -54.617     -101.224        7.509       46.780       35.279       36.324     2188.345     1244.598     1319.455        0.902        0.238      115.019       17.590        0.023      340.851       15.157      855.543
02/26/2014  12:07:00        0.060      -86.189       27.628       52.155       81.802       61.298     2720.097     6691.528     3757.427        1.068        0.658       86.189       48.108        0.312      341.267       15.860      855.544
02/26/2014  12:08:00      143.804     -236.953       17.417      116.562      217.488       62.928    13586.600    47301.223     3959.994        7.098        3.242      277.176       77.744        0.079      340.902       15.241      855.541
02/26/2014  12:09:00       45.834     -281.621        6.890      186.348      168.550       86.373    34725.472    28409.153     7460.376        7.601        3.530      285.326       68.380        0.057      340.799       15.066      855.559
02/26/2014  12:10:00       12.805     -319.424       -9.455      189.336      147.035       93.276    35848.222    21619.272     8700.449        8.421        3.308      319.680       85.541        0.072      340.769       15.015      855.513
02/26/2014  12:11:00       78.149     -180.213        0.969      184.030      108.080       61.344    33867.159    11681.353     3763.043        4.394        2.466      196.428       55.993        0.081      340.857       15.164      855.494
02/26/2014  12:12:00       61.509     -222.589      -20.773      151.122      149.095       89.326    22837.958    22229.318     7979.074        5.339        2.652      230.931       63.982        0.077      340.826       15.110      855.467
02/26/2014  12:13:00       60.756     -169.834      -11.008      116.572      134.269       71.425    13589.029    18028.284     5101.582        3.468        1.836      180.375       46.758        0.067      340.944       15.314      855.463
02/26/2014  12:14:00      -31.062     -288.247      -16.543      113.604      121.891       68.957    12905.889    14857.314     4755.112        5.842        1.626      289.916       47.342        0.027      340.820       15.102      855.465
02/26/2014  12:15:00        1.854     -189.208       22.002      123.905      194.198       98.922    15352.432    37712.805     9785.520        4.956        3.143      189.217      112.115        0.351      340.959       15.337      855.403
02/26/2014  12:16:00       36.437     -210.207      -11.351      213.339      104.645       70.703    45513.422    10950.472     4998.852        5.354        3.073      213.341       55.115        0.067      340.787       15.045      855.406
02/26/2014  12:17:00       24.358      -42.962       14.989       73.042       96.147       51.450     5335.154     9244.233     2647.065        0.994        0.861       49.387       48.882        0.980      341.121       15.615      855.403
02/26/2014  12:18:00      -73.449      -49.058      -17.548       55.499       66.241       34.695     3080.128     4387.837     1203.717        0.839        0.434       88.326       22.453        0.065      341.094       15.568      855.368
02/26/2014  12:19:00       -0.917      -73.610       19.018       39.885       93.058       35.945     1590.819     8659.842     1292.009        0.866        0.577       73.616       29.746        0.163      341.128       15.625      855.353
02/26/2014  12:20:00      -38.301      -69.213      -15.256       80.414       54.865       24.650     6466.424     3010.189      607.630        0.829        0.504       79.104       24.722        0.098      341.123       15.616      855.334
02/26/2014  12:21:00      -34.436      -76.616       -2.996       83.288       49.727       32.781     6936.839     2472.821     1074.605        0.877        0.524       83.999       21.678        0.067      341.117       15.610      855.337
02/26/2014  12:22:00     -129.584      -81.643       10.927      116.726       99.389       53.445    13624.973     9878.092     2856.396        2.496        1.318      153.159       56.078        0.134      340.872       15.191      855.329
02/26/2014  12:23:00      -56.227      -53.593       31.504       80.229       64.946       40.256     6436.723     4217.963     1620.517        0.965        0.614       77.677       42.119        0.294      341.084       15.550      855.310
02/26/2014  12:24:00     -251.832     -233.044      -24.807      146.319      142.654       68.150    21409.273    20350.051     4644.355        8.236        2.320      343.116       74.903        0.048      340.809       15.082      855.317
02/26/2014  12:25:00     -205.549     -324.452       -3.683      108.549      187.867       61.238    11782.843    35293.898     3750.064        9.917        2.541      384.083       66.205        0.030      340.641       14.800      855.305
02/26/2014  12:26:00     -138.123     -216.604        9.401      120.035      127.064       62.810    14408.380    16145.178     3945.114        5.028        1.725      256.896       62.467        0.059      340.754       14.989      855.292
02/26/2014  12:27:00     -179.557     -265.402       -4.982      136.581      144.604       60.728    18654.283    20910.454     3687.850        7.297        2.163      320.436       56.294        0.031      340.711       14.918      855.280
02/26/2014  12:28:00      -85.114     -213.425      -11.386      219.135      168.191       72.674    48020.153    28288.205     5281.528        6.724        4.079      229.771       81.718        0.126      340.783       15.040      855.251
02/26/2014  12:29:00     -164.645     -217.385      -17.373       96.028      154.767       63.878     9221.471    23952.908     4080.431        5.595        1.863      272.698       56.547        0.043      340.696       14.890      855.252
02/26/2014  12:30:00     -148.868     -104.096        4.423      123.551      113.946       53.676    15264.933    12983.640     2881.105        3.207        1.556      181.653       55.262        0.093      340.786       15.045      855.230
02/26/2014  12:31:00      -56.736     -114.872       -3.168       47.523       82.770       32.935     2258.474     6850.941     1084.742        1.331        0.510      128.120       29.306        0.052      340.739       14.967      855.227
02/26/2014  12:32:00     -126.302     -203.905      -11.522      102.406      188.160       41.169    10487.024    35404.009     1694.903        5.261        2.379      239.853       48.105        0.040      340.776       15.029      855.230
02/26/2014  12:33:00     -140.304     -182.498      -20.177       96.534      103.494       49.182     9318.747    10710.974     2418.846        3.792        1.122      230.197       41.232        0.032      340.725       14.940      855.218
02/26/2014  12:34:00     -182.748     -212.649        1.252      103.956      113.407       50.966    10806.765    12861.214     2597.581        5.244        1.313      280.386       44.990        0.026      340.760       14.999      855.199
02/26/2014  12:35:00     -219.759     -111.878        0.564      132.373      117.211       67.522    17522.645    13738.352     4559.239        4.831        1.791      246.598       71.377        0.084      340.740       14.965      855.154
02/26/2014  12:36:00     -157.698     -120.922       -0.381      102.749       88.542       45.811    10557.357     7839.736     2098.614        2.999        1.025      198.723       50.573        0.065      340.811       15.087      855.154
02/26/2014  12:37:00     -219.911     -151.050      -14.665       92.161       63.950       49.016     8493.616     4089.587     2402.597        4.319        0.749      266.790       51.754        0.038      340.729       14.947      855.131
02/26/2014  12:38:00     -263.842     -173.897      -11.586       69.671       64.387       51.038     4854.051     4145.638     2604.841        5.579        0.580      315.995       34.093        0.012      340.748       14.978      855.117
02/26/2014  12:39:00     -296.601     -121.665       -5.042      167.754       88.954       66.576    28141.526     7912.812     4432.372        7.164        2.024      320.584       79.598        0.062      340.737       14.960      855.110
02/26/2014  12:40:00     -169.582     -103.742       -3.982      125.788       94.406       57.140    15822.600     8912.576     3264.994        3.376        1.400      198.798       54.035        0.074      340.701       14.901      855.087
02/26/2014  12:41:00     -107.767     -102.790       -2.104       73.832       89.400       41.651     5451.188     7992.366     1734.806        1.868        0.759      148.928       28.124        0.036      340.799       15.067      855.080
02/26/2014  12:42:00     -210.038     -118.691        2.927      125.884      127.757       58.886    15846.730    16321.830     3467.507        4.692        1.782      241.254       66.338        0.076      340.793       15.056      855.068
02/26/2014  12:43:00     -256.847     -118.028       12.369      144.967      129.373       71.142    21015.419    16737.499     5061.251        6.143        2.141      282.667       75.710        0.072      340.761       15.002      855.067
02/26/2014  12:44:00     -308.587     -234.972      -15.859      124.235       91.124       63.108    15434.449     8303.553     3982.568        8.920        1.386      387.863       61.001        0.025      340.620       14.764      855.058
02/26/2014  12:45:00     -274.725     -161.658       -6.230      119.565      103.612       58.928    14295.775    10735.502     3472.508        6.507        1.425      318.758       57.369        0.032      340.722       14.937      855.045
02/26/2014  12:46:00     -305.689     -112.191       -2.164      125.405      117.773       51.125    15726.311    13870.377     2613.776        6.912        1.611      325.627       46.549        0.020      340.701       14.899      855.031
02/26/2014  12:47:00     -118.387      -33.107        6.606       65.888       78.634       35.390     4341.250     6183.366     1252.448        1.346        0.589      122.929       29.582        0.058      340.821       15.106      855.019
02/26/2014  12:48:00     -103.601      -79.532       -0.993       69.996       79.047       47.119     4899.451     6248.498     2220.188        1.521        0.668      130.608       43.301        0.110      340.929       15.287      854.999
02/26/2014  12:49:00     -186.861     -195.244       -5.104      101.392       84.221       57.355    10280.305     7093.149     3289.547        4.686        1.033      270.254       56.894        0.044      340.802       15.071      854.963
02/26/2014  12:50:00     -191.709      -77.542       -2.798       83.281       78.409       43.841     6935.663     6148.010     1922.022        2.889        0.750      206.797       39.353        0.036      340.889       15.218      854.926
02/26/2014  12:51:00      -94.939     -130.497       42.899      167.568      132.203       78.451    28079.175    17477.543     6154.589        3.979        2.586      161.378       94.750        0.345      340.938       15.303      854.902
02/26/2014  12:52:00     -135.166     -131.442       10.400      107.457      103.181       66.112    11546.911    10646.309     4370.780        3.110        1.328      188.539       68.758        0.133      340.887       15.215      854.911
02/26/2014  12:53:00     -285.752      -82.910       -2.602      110.378       87.726       54.750    12183.406     7695.921     2997.547        5.570        1.144      297.537       47.653        0.026      340.842       15.138      854.896
02/26/2014  12:54:00     -307.106     -208.666        0.800      134.205      120.846       66.385    18010.934    14603.770     4407.015        8.743        1.851      371.289       63.927        0.030      340.745       14.975      854.878
02/26/2014  12:55:00     -308.975     -166.641       -4.828      110.397       96.974       64.359    12187.598     9403.884     4142.045        7.449        1.287      351.048       58.541        0.028      340.731       14.952      854.881
02/26/2014  12:56:00     -439.627     -240.046      -20.676      134.654      103.692       66.273    18131.693    10752.059     4392.078       14.229        1.664      500.893       56.722        0.013      340.702       14.901      854.875
02/26/2014  12:57:00     -327.367      -73.335        4.523      162.113      131.422       70.061    26280.551    17271.634     4908.489        8.050        2.423      335.480       76.720        0.052      340.747       14.979      854.860
02/26/2014  12:58:00     -231.427      -78.469       11.722      136.061      103.976       59.247    18512.556    10811.059     3510.180        4.634        1.642      244.368       71.388        0.085      340.850       15.153      854.857
02/26/2014  12:59:00     -225.438      -77.025       -1.445       90.613       95.965       41.199     8210.754     9209.274     1697.351        3.793        0.956      238.233       39.353        0.027      340.737       14.961      854.854
02/26/2014  13:00:00     -164.357     -133.504      -16.767      107.177      107.342       46.932    11486.970    11522.327     2202.610        3.516        1.261      211.746       39.204        0.034      340.759       14.998      854.842
02/26/2014  13:01:00     -252.798      -94.306        2.074      126.121      113.748       60.789    15906.512    12938.613     3695.276        5.267        1.627      269.815       61.350        0.052      340.862       15.174      854.833
02/26/2014  13:02:00     -283.204     -145.711        3.076      147.916       73.975       61.399    21879.130     5472.332     3769.896        6.628        1.556      318.491       74.875        0.055      340.792       15.054      854.817
02/26/2014  13:03:00     -123.342      -71.146        2.127       91.820       68.760       44.927     8430.839     4727.876     2018.476        1.773        0.759      142.390       47.909        0.113      340.877       15.199      854.801
02/26/2014  13:04:00     -204.477      -48.397       -5.260      125.323       69.976       38.749    15705.829     4896.656     1501.489        3.314        1.105      210.127       40.430        0.037      340.905       15.247      854.788
02/26/2014  13:05:00     -137.420     -103.996       17.037      112.747       91.564       64.301    12711.851     8383.983     4134.651        2.761        1.262      172.336       61.706        0.128      340.784       15.042      854.780
02/26/2014  13:06:00     -212.852     -131.156       -6.728      121.613       92.068       61.951    14789.768     8476.594     3837.916        4.482        1.355      250.016       61.531        0.061      340.686       14.875      854.776
02/26/2014  13:07:00     -275.517     -158.694      -24.100      186.146      121.995       62.933    34650.498    14882.711     3960.583        7.757        2.675      317.952       72.355        0.052      340.586       14.707      854.772
02/26/2014  13:08:00     -161.427      -88.594        3.668      111.423      107.809       47.645    12415.171    11622.842     2270.089        3.011        1.315      184.140       50.141        0.074      340.646       14.808      854.764
02/26/2014  13:09:00      -97.936     -118.226        5.947       61.783       87.583       35.318     3817.170     7670.789     1247.333        1.817        0.637      153.522       37.242        0.059      340.680       14.867      854.756
02/26/2014  13:10:00     -148.909     -142.760      -11.438       76.646       55.009       36.438     5874.638     3026.037     1327.744        2.645        0.511      206.287       26.277        0.016      340.662       14.834      854.704
02/26/2014  13:11:00     -208.195     -127.364      -15.713       70.870       47.338       36.989     5022.590     2240.841     1368.160        3.422        0.432      244.063       38.009        0.024      340.713       14.920      854.700
02/26/2014  13:12:00     -143.649      -88.301        8.707       82.788       73.949       44.475     6853.834     5468.449     1977.991        2.140        0.715      168.618       42.498        0.064      340.825       15.112      854.684
02/26/2014  13:13:00     -130.751      -69.813       11.075      101.491       67.900       48.138    10300.413     4610.446     2317.267        1.966        0.861      148.222       52.414        0.125      340.942       15.309      854.672
02/26/2014  13:14:00     -157.586     -131.263      -12.172      124.952       76.455       47.796    15612.972     5845.378     2284.432        3.297        1.187      205.094       56.001        0.075      340.946       15.313      854.661
02/26/2014  13:15:00     -267.567      -61.480       13.595      203.040      153.033       68.947    41225.420    23419.157     4753.747        7.246        3.470      274.539       82.209        0.090      340.960       15.338      854.637
02/26/2014  13:16:00     -169.161     -105.055      -17.717      106.856       84.078       53.349    11418.144     7069.193     2846.109        3.065        1.067      199.128       41.292        0.043      340.948       15.318      854.652
02/26/2014  13:17:00     -230.637     -115.149        0.164      107.784      143.122       59.212    11617.419    20483.848     3506.003        5.102        1.780      257.784       59.116        0.053      341.047       15.486      854.654
02/26/2014  13:18:00     -312.652      -77.646       -6.253      150.556       94.154       68.190    22667.049     8864.985     4649.865        6.999        1.809      322.149       73.775        0.052      340.871       15.188      854.650
02/26/2014  13:19:00     -256.152     -274.235       -2.848      202.312      191.022       87.129    40930.163    36489.237     7591.518       11.290        4.251      375.258       98.415        0.069      340.756       14.992      854.636
02/26/2014  13:20:00     -248.868     -208.295        4.012      206.008      155.369       84.819    42439.410    24139.498     7194.228        8.954        3.689      324.534       96.202        0.088      340.629       14.777      854.635
02/26/2014  13:21:00     -358.752      -99.977       -9.323      254.196      212.993       92.694    64615.751    45365.855     8592.135       12.866        5.929      372.423      102.811        0.076      340.498       14.557      854.616
02/26/2014  13:22:00     -293.588     -108.654       -6.023      198.537      158.966       94.759    39416.906    25270.194     8979.318        8.584        3.683      313.049      107.955        0.119      340.456       14.486      854.630
02/26/2014  13:23:00     -415.815     -124.988        5.556      275.789      235.577      116.287    76059.808    55496.745    13522.769       16.679        7.254      434.193      124.263        0.082      340.361       14.324      854.597
02/26/2014  13:24:00     -588.425     -201.408       -5.957      407.640      217.738      126.181   166170.733    47409.755    15921.554       30.813       11.475      621.940      177.886        0.082      340.177       14.016      854.571
02/26/2014  13:25:00     -345.250     -111.429       13.734      336.876      213.341      144.984   113485.224    45514.504    21020.335       15.588        9.001      362.786      179.500        0.245      340.249       14.135      854.550
02/26/2014  13:26:00     -183.952      -69.829       41.771      232.374      156.584      118.203    53997.722    24518.518    13971.892        6.646        4.624      196.760      130.350        0.439      340.246       14.133      854.591
02/26/2014  13:27:00     -325.764     -159.549       -8.121      261.232      184.945      105.676    68242.389    34204.809    11167.502       12.261        5.681      362.737      128.060        0.125      340.075       13.841      854.595
02/26/2014  13:28:00     -454.037     -191.308       -7.813      263.291      167.656       99.141    69322.156    28108.481     9828.876       17.501        5.363      492.695      107.065        0.047      340.078       13.847      854.619
02/26/2014  13:29:00     -414.874     -154.126      -28.065      164.691      148.291       81.708    27123.122    21990.273     6676.116       12.622        2.789      442.578       78.094        0.031      340.177       14.014      854.620
02/26/2014  13:30:00     -456.976     -190.382      -21.391      305.625      183.276       99.854    93406.518    33590.100     9970.861       19.122        6.848      495.047      129.451        0.068      340.075       13.842      854.592
02/26/2014  13:31:00     -342.491     -245.902      -10.992      188.389      238.361      100.782    35490.275    56815.785    10156.964       14.016        5.123      421.625      120.538        0.082      340.103       13.890      854.559
02/26/2014  13:32:00     -298.881     -173.487        1.989      249.378      143.528       91.592    62189.337    20600.197     8389.068       10.529        4.559      345.584      108.022        0.098      340.150       13.970      854.562
02/26/2014  13:33:00     -312.222     -165.208        2.631      206.031      158.926       91.939    42448.927    25257.510     8452.814       10.046        3.808      353.237      108.844        0.095      340.173       14.007      854.561
02/26/2014  13:34:00     -349.778     -163.583      -15.023      213.639      191.569       86.907    45641.472    36698.627     7552.832       11.959        4.495      386.140      104.969        0.074      340.078       13.846      854.604
02/26/2014  13:35:00     -559.722     -252.679      -23.266      291.098      203.472      102.905    84738.117    41400.771    10589.405       25.717        6.836      614.113      107.087        0.030      339.891       13.531      854.595
02/26/2014  13:36:00     -452.979     -167.594      -15.232      277.743      233.116      110.922    77141.309    54343.296    12303.636       18.862        7.189      482.989      129.364        0.072      339.899       13.546      854.572
02/26/2014  13:37:00     -374.407     -197.164       -8.988      211.469      187.956       98.224    44719.322    35327.566     9647.961       13.440        4.485      423.148       99.737        0.056      339.889       13.528      854.583
02/26/2014  13:38:00     -524.434     -118.913      -13.920      249.353      208.443      101.412    62176.681    43448.387    10284.400       20.261        5.795      537.747      104.360        0.038      339.859       13.478      854.571
02/26/2014  13:39:00     -279.713     -137.955       20.620      259.613      187.983      110.188    67398.847    35337.503    12141.461       10.626        5.744      311.883      126.046        0.163      339.912       13.568      854.567
02/26/2014  13:40:00     -640.615     -327.256      -39.247      296.927      237.624      126.889    88165.679    56465.265    16100.926       33.985        8.037      719.364      142.644        0.039      339.776       13.338      854.514
02/26/2014  13:41:00     -503.471     -188.004        6.769      321.893      200.865      126.897   103615.400    40346.837    16102.886       22.444        8.003      537.427      155.249        0.083      339.775       13.335      854.535
02/26/2014  13:42:00     -392.069     -122.866      -14.811      193.368      186.666       96.026    37391.338    34844.284     9220.966       12.523        4.073      410.870      100.506        0.060      339.854       13.470      854.527
02/26/2014  13:43:00     -570.833     -178.409      -20.568      246.892      215.190      123.238    60955.459    46306.826    15187.494       24.025        6.122      598.063      146.185        0.060      339.777       13.340      854.501
02/26/2014  13:44:00     -577.677      -52.167      -41.985      221.377      180.367       87.764    49007.774    32532.244     7702.439       21.370        4.462      580.028       93.483        0.026      339.781       13.346      854.514
02/26/2014  13:45:00     -710.986     -131.571      -13.315      372.214      197.849      113.331   138543.398    39144.226    12843.826       35.672        9.527      723.058      140.135        0.038      339.645       13.117      854.492
02/26/2014  13:46:00     -668.365     -165.496       -4.942      294.247      211.951      128.560    86581.062    44923.170    16527.735       31.105        7.402      688.550      151.603        0.048      339.512       12.892      854.528
02/26/2014  13:47:00     -295.010     -153.197        3.693      214.371      194.005      115.363    45955.073    37637.822    13308.664       10.369        4.845      332.416      120.077        0.130      339.625       13.084      854.570
02/26/2014  13:48:00     -176.685      -89.642       10.324      234.192      176.105      100.062    54846.070    31012.822    10012.329        6.760        4.794      198.125       98.223        0.246      339.734       13.268      854.587
02/26/2014  13:49:00     -493.252     -226.300      -32.572      272.713      219.899      102.144    74372.540    48355.537    10433.406       21.434        6.658      542.687       89.854        0.027      339.575       12.998      854.572
02/26/2014  13:50:00     -300.626      -58.489        2.743      143.772      151.857       78.331    20670.495    23060.646     6135.809        7.183        2.493      306.263       72.570        0.056      339.661       13.144      854.568
02/26/2014  13:51:00     -674.991     -167.304      -18.148      259.900      187.841      101.958    67548.092    35284.166    10395.380       29.856        5.661      695.416      121.519        0.031      339.558       12.969      854.527
02/26/2014  13:52:00     -602.695     -166.688      -34.572      204.307      184.841       96.420    41741.400    34166.213     9296.732       23.870        4.260      625.321      101.251        0.026      339.558       12.970      854.547
02/26/2014  13:53:00     -501.020     -145.147      -32.737      256.287      222.529       94.143    65682.937    49519.143     8862.980       19.859        6.203      521.621      111.122        0.045      339.582       13.011      854.562
02/26/2014  13:54:00     -340.101      -89.414       -8.955      179.126      149.744       77.295    32085.963    22423.222     5974.527        9.210        3.024      351.658       78.171        0.049      339.581       13.010      854.558
02/26/2014  13:55:00     -555.380      -96.877      -10.394      281.715      192.295      106.124    79363.151    36977.527    11262.396       22.275        6.380      563.766      110.051        0.038      339.492       12.859      854.485
02/26/2014  13:56:00     -715.917     -181.432      -19.851      253.135      298.965      106.911    64077.427    89380.116    11429.881       35.534        8.244      738.549       98.608        0.018      339.354       12.626      854.470
02/26/2014  13:57:00     -754.108     -211.133      -39.730      288.233      181.703      107.248    83078.009    33015.812    11502.129       37.119        6.380      783.107      114.081        0.021      339.236       12.427      854.551
02/26/2014  13:58:00     -732.052     -180.937      -42.109      161.163      177.855       89.010    25973.589    31632.405     7922.708       31.796        3.276      754.081       83.222        0.012      339.285       12.511      854.600
02/26/2014  13:59:00     -467.996     -171.170      -13.768      175.576      138.370       72.774    30826.896    19146.174     5296.052       15.188        2.763      498.317       83.037        0.028      339.409       12.719      854.678
02/26/2014  14:00:00     -505.323     -243.137      -19.487      239.801      196.218      103.634    57504.458    38501.680    10739.970       21.077        5.337      560.773      123.533        0.049      339.440       12.771      854.752
02/26/2014  14:01:00     -418.931     -121.380      -11.023      207.848      174.000       93.084    43200.904    30276.068     8664.659       13.623        4.107      436.161      104.558        0.057      339.487       12.850      854.727
02/26/2014  14:02:00     -375.504     -221.076       -4.231      244.771      227.202      112.285    59912.927    51620.533    12607.904       15.699        6.207      435.749      120.597        0.077      339.484       12.846      854.715
02/26/2014  14:03:00     -483.316     -100.067       -7.733      243.101      164.065       93.201    59097.893    26917.271     8686.385       16.917        4.735      493.566      100.242        0.041      339.446       12.782      854.751
02/26/2014  14:04:00     -561.336      -33.644      -25.604      223.653      171.922      104.879    50020.665    29557.277    10999.525       20.371        4.529      562.343      114.082        0.041      339.318       12.566      854.741
02/26/2014  14:05:00     -600.481     -108.726      -25.729      252.934      211.581      103.902    63975.749    44766.566    10795.656       24.628        5.977      610.245      133.812        0.048      339.277       12.494      854.720
02/26/2014  14:06:00     -636.707       25.661      -52.165      210.331      176.853      103.143    44239.173    31276.977    10638.468       24.745        4.308      637.223      106.477        0.028      339.329       12.583      854.719
02/26/2014  14:07:00     -636.526      -82.269      -26.043      226.994      165.564       92.834    51526.400    27411.372     8618.233       25.007        4.378      641.821      106.797        0.028      339.388       12.682      854.731
02/26/2014  14:08:00     -424.469      -99.893      -16.022      209.801      186.886       91.663    44016.453    34926.416     8402.108       13.886        4.367      436.065       79.586        0.033      339.313       12.559      854.750
02/26/2014  14:09:00     -346.066        5.242      -13.410      185.093      137.254       72.358    34259.576    18838.667     5235.610        8.914        2.917      346.106       79.738        0.053      339.338       12.600      854.820
02/26/2014  14:10:00     -308.698      -31.831      -12.676      197.273      114.536       59.311    38916.551    13118.494     3517.836        7.600        2.778      310.335       56.456        0.033      339.282       12.507      854.855
02/26/2014  14:11:00     -248.683      -95.258        9.252      184.025      125.094       71.969    33865.337    15648.402     5179.538        6.284        2.735      266.303       81.223        0.093      339.488       12.853      854.851
02/26/2014  14:12:00     -309.894      -91.748       -0.437      152.874      162.707       76.479    23370.413    26473.668     5848.965        8.006        2.785      323.190       71.175        0.048      339.622       13.079      854.832
02/26/2014  14:13:00     -383.829     -157.022      -19.823      170.174      174.231       74.689    28959.198    30356.340     5578.481       11.862        3.245      414.705       71.868        0.030      339.719       13.243      854.813
02/26/2014  14:14:00     -356.080     -111.897      -24.087      181.680      173.603       73.975    33007.711    30137.925     5472.323       10.424        3.431      373.248       85.705        0.053      339.682       13.179      854.773
02/26/2014  14:15:00     -253.443     -229.896      -11.988      202.069      168.138       91.673    40831.782    28270.309     8403.925        9.735        3.875      342.177      100.786        0.087      339.701       13.212      854.780
02/26/2014  14:16:00     -279.990     -244.964      -25.270      159.279      141.296       88.812    25369.709    19964.653     7887.505        9.612        2.661      372.024       70.453        0.036      339.944       13.621      854.791
02/26/2014  14:17:00      -40.182     -201.011       -3.231      107.106      100.489       55.694    11471.594    10097.972     3101.805        3.335        1.234      204.988       41.967        0.042      340.324       14.262      854.840
02/26/2014  14:18:00       -5.372     -133.736       60.673      138.614      204.153       98.517    19213.704    41678.602     9705.638        4.608        3.530      133.844      126.111        0.888      340.392       14.378      854.809
02/26/2014  14:19:00      -20.110     -208.795        0.440      158.707      249.709       97.412    25187.812    62354.605     9489.045        7.050        4.852      209.762       57.357        0.075      340.350       14.308      854.849
02/26/2014  14:20:00       87.474     -303.272        3.618      198.287      172.156       93.007    39317.676    29637.819     8650.317        8.861        3.880      315.635       89.582        0.081      340.121       13.920      854.882
02/26/2014  14:21:00      -53.335     -326.516       -4.608      129.786      159.132       91.921    16844.423    25323.122     8449.538        8.004        2.531      330.843       66.516        0.040      340.178       14.017      854.906
02/26/2014  14:22:00      -39.945     -232.926       -3.251       83.023      130.131       58.930     6892.884    16934.180     3472.744        4.157        1.365      236.326       44.423        0.035      340.233       14.109      854.884
02/26/2014  14:23:00      -38.415     -249.742       -9.907      184.478      138.074       75.996    34032.277    19064.440     5775.418        6.140        2.944      252.679       56.960        0.051      340.231       14.105      854.906
02/26/2014  14:24:00     -181.607     -243.084      -17.236      230.427      205.734       71.477    53096.499    42326.315     5108.943        9.643        5.027      303.432       64.618        0.045      340.063       13.823      854.936
02/26/2014  14:25:00     -138.961     -187.888      -22.723      156.806      128.161       76.848    24588.068    16425.348     5905.686        5.101        2.346      233.692       43.353        0.034      340.101       13.887      854.941
02/26/2014  14:26:00     -131.840     -117.577        0.675      128.027       84.409       52.354    16390.943     7124.954     2740.915        2.873        1.313      176.653       29.015        0.027      340.198       14.051      854.960
02/26/2014  14:27:00     -150.043     -206.369       -4.909      114.087       97.244       61.987    13015.790     9456.389     3842.419        4.571        1.316      255.149       39.876        0.024      340.129       13.932      854.996
02/26/2014  14:28:00     -177.364     -275.798       -3.016      189.355      155.238       79.590    35855.273    24098.866     6334.628        8.690        3.314      327.906       54.698        0.028      339.984       13.688      854.976
02/26/2014  14:29:00      -16.319     -168.812       -4.696      156.088      109.241       73.514    24363.425    11933.532     5404.362        3.524        2.085      169.599       70.696        0.174      340.165       13.995      854.957
02/26/2014  14:30:00     -131.905     -175.784       13.642      118.446      147.277       65.266    14029.547    21690.413     4259.673        4.422        1.999      219.771       58.434        0.071      340.085       13.859      854.934
02/26/2014  14:31:00     -227.770     -274.253      -13.837      174.047      183.236       68.490    30292.475    33575.384     4690.911        9.791        3.428      356.502       69.517        0.038      339.884       13.520      854.895
02/26/2014  14:32:00      -44.941     -214.535      -11.643       80.925      123.695       52.471     6548.910    15300.420     2753.199        3.639        1.230      219.191       38.575        0.031      340.081       13.854      854.857
02/26/2014  14:33:00      -43.335      -96.756        6.316       95.385       75.838       49.281     9098.228     5751.394     2428.603        1.428        0.864      106.017        8.058        0.006      340.288       14.204      854.869
02/26/2014  14:34:00        7.661     -190.735       -7.695      119.790      106.816       61.374    14349.715    11409.578     3766.716        3.301        1.476      190.888       49.258        0.067      340.234       14.110      854.860
02/26/2014  14:35:00     -103.726     -193.428        2.835      162.381      123.391       70.279    26367.709    15225.375     4939.177        4.735        2.327      219.485       55.002        0.063      340.054       13.807      854.849
02/26/2014  14:36:00      -59.169     -263.852       -4.515      143.339      228.516       91.724    20545.998    52219.460     8413.346        7.714        4.059      270.405      102.044        0.142      339.996       13.710      854.848
02/26/2014  14:37:00     -161.805     -173.799       12.947      180.046      124.944       86.373    32416.514    15610.977     7460.211        5.601        2.774      237.459       76.978        0.105      339.828       13.426      854.848
02/26/2014  14:38:00      -42.442     -250.198      -17.295      154.940      159.934       77.699    24006.409    25578.896     6037.101        6.015        2.781      253.773       72.432        0.081      339.804       13.386      854.849
02/26/2014  14:39:00        6.475     -299.667      -19.809      186.335      130.532       80.345    34720.555    17038.531     6455.267        7.421        2.911      299.737       73.534        0.060      339.817       13.407      854.849
02/26/2014  14:40:00      -32.211     -255.125      -55.766      147.722      106.824       63.226    21821.717    11411.442     3997.574        5.323        1.862      257.150       62.450        0.059      339.801       13.377      854.867
02/26/2014  14:41:00     -103.112     -111.000       -1.315      112.733      118.876       66.317    12708.656    14131.404     4397.898        2.709        1.562      151.503       67.796        0.200      339.824       13.420      854.875
02/26/2014  14:42:00      -86.264     -203.784       -5.322      115.903      108.826       59.920    13433.483    11843.132     3590.378        3.893        1.443      221.290       57.507        0.068      339.853       13.469      854.886
02/26/2014  14:43:00     -105.694     -125.388        6.910      151.383      128.218       63.030    22916.762    16439.808     3972.828        3.513        2.166      163.993       58.073        0.125      339.812       13.398      854.873
02/26/2014  14:44:00      -88.584      -91.697       22.569      145.182      123.401       77.969    21077.927    15227.859     6079.134        2.957        2.119      127.497       60.364        0.224      339.719       13.243      854.816
02/26/2014  14:45:00      -30.949     -158.341        1.355      116.161       97.265       61.677    13493.382     9460.511     3804.104        2.639        1.338      161.338       50.237        0.097      339.707       13.224      854.797
02/26/2014  14:46:00      -49.118     -257.896      -32.523      147.126      173.189       62.389    21645.976    29994.571     3892.345        6.275        2.777      262.532       24.899        0.009      339.690       13.193      854.794
02/26/2014  14:47:00      -24.989     -170.602       21.155      116.318      155.093       81.181    13529.897    24053.890     6590.306        3.717        2.209      172.422       77.680        0.203      339.741       13.281      854.741
02/26/2014  14:48:00       51.931     -214.461      -21.630      131.934      145.660      100.366    17406.467    21216.754    10073.319        4.892        2.435      220.659       88.552        0.161      339.674       13.167      854.696
02/26/2014  14:49:00      -40.899     -125.123        4.379       88.121       72.533       54.916     7765.395     5261.010     3015.737        1.669        0.802      131.638       27.849        0.045      339.809       13.395      854.661
02/26/2014  14:50:00       -6.553     -193.172       -7.292       83.802      192.436       46.304     7022.794    37031.776     2144.045        4.180        2.310      193.283       31.382        0.026      339.841       13.449      854.630
02/26/2014  14:51:00      -71.113     -208.130       16.116      116.322      135.909       69.175    13530.839    18471.261     4785.180        4.270        1.839      219.943       61.072        0.077      339.753       13.300      854.582
02/26/2014  14:52:00       -5.698      -61.169       24.661       88.495       89.982       59.954     7831.335     8096.793     3594.516        1.195        0.976       61.434       60.393        0.966      339.889       13.530      854.523
02/26/2014  14:53:00       18.083      -36.073       27.203       88.737       70.026       49.962     7874.208     4903.581     2496.156        0.882        0.764       40.351       44.259        1.203      339.969       13.666      854.473
02/26/2014  14:54:00       43.509     -155.375       -2.130       90.056      109.610       69.662     8110.078    12014.313     4852.843        2.550        1.249      161.352       54.578        0.114      340.007       13.727      854.475
02/26/2014  14:55:00       68.151     -137.431        8.208       99.974      146.580       63.207     9994.876    21485.613     3995.175        2.953        1.774      153.401       81.047        0.279      340.011       13.737      854.500
02/26/2014  14:56:00       50.454     -206.792       -4.145      150.175      128.113       62.480    22552.598    16413.067     3903.811        4.409        2.143      212.858       55.219        0.067      339.847       13.457      854.456
02/26/2014  14:57:00       34.018     -194.530       -4.824      127.636      119.905       78.586    16291.016    14377.244     6175.817        3.793        1.842      197.482       78.012        0.156      339.897       13.543      854.438
02/26/2014  14:58:00      -59.862     -199.780        5.463       78.813      134.276       56.086     6211.548    18029.914     3145.623        3.545        1.369      208.556       32.354        0.024      339.919       13.580      854.423
02/26/2014  14:59:00      -29.305     -226.509       -6.221       82.268      130.541       54.971     6768.094    17040.945     3021.861        3.951        1.342      228.397       37.567        0.027      340.023       13.755      854.403
02/26/2014  15:00:00       46.732      -73.113       33.110       85.260       84.878       50.248     7269.299     7204.309     2524.903        1.281        0.850       86.772       47.514        0.300      340.165       13.996      854.356
02/26/2014  15:01:00        7.462        7.422       88.593       76.308      144.004      107.098     5822.935    20737.193    11469.940        2.299        1.902       10.524      110.560      110.361      340.047       13.797      854.332
02/26/2014  15:02:00       78.607      -62.645       76.267      113.283      173.441       80.784    12833.035    30081.659     6526.105        3.267        2.472      100.516      106.451        1.122      340.121       13.922      854.321
02/26/2014  15:03:00       29.499     -157.702        7.532      156.187      155.034       79.006    24394.242    24035.563     6241.990        4.022        2.734      160.438       82.340        0.263      340.005       13.725      854.340
02/26/2014  15:04:00      105.461     -198.913      -11.891      110.855      123.638       72.107    12288.856    15286.334     5199.416        4.180        1.639      225.141       62.403        0.077      339.911       13.566      854.317
02/26/2014  15:05:00        2.357      -16.857       47.989       69.151       96.704       55.023     4781.862     9351.710     3027.486        0.987        0.858       17.021       36.824        4.680      340.207       14.069      854.287
02/26/2014  15:06:00       58.068      -64.309        5.893       89.155       67.494       37.847     7948.535     4555.433     1432.358        1.074        0.697       86.646       38.124        0.194      340.312       14.245      854.282
02/26/2014  15:07:00       29.300      -28.167       44.401       67.125      120.897       61.819     4505.819    14615.965     3821.616        1.328        1.147       40.643       72.311        3.165      340.230       14.107      854.270
02/26/2014  15:08:00       16.308      -74.368       64.061       98.133      184.388      109.267     9630.167    33998.996    11939.356        3.272        2.778       76.135      126.041        2.741      340.328       14.270      854.238
02/26/2014  15:09:00      -48.193     -136.324        6.491      133.364       84.452       57.429    17785.891     7132.197     3298.090        2.458        1.411      144.592       55.663        0.148      340.426       14.437      854.240
02/26/2014  15:10:00      -18.579     -176.084       13.804      124.047      127.867       80.132    15387.722    16349.887     6421.088        3.484        1.908      177.062       73.034        0.170      340.425       14.436      854.233
02/26/2014  15:11:00      -34.061      -46.282       52.594       53.825       70.621       32.483     2897.121     4987.389     1055.150        0.750        0.447       57.465       28.855        0.252      340.689       14.882      854.244
02/26/2014  15:12:00      -50.567      -79.609       21.696       71.948       77.370       41.565     5176.576     5986.141     1727.616        1.113        0.645       94.311       42.533        0.203      340.721       14.937      854.278
02/26/2014  15:13:00       32.262      -91.508       23.157      129.615      114.812       75.773    16799.922    13181.847     5741.512        2.283        1.786       97.029       73.749        0.578      340.651       14.817      854.282
02/26/2014  15:14:00       87.431     -251.393       -0.437      176.083      154.564      101.997    31005.174    23889.923    10403.351        6.806        3.265      266.163       77.867        0.086      340.373       14.345      854.277
02/26/2014  15:15:00      113.038     -189.674      -12.905      103.130      136.839       73.011    10635.699    18724.795     5330.566        4.180        1.735      220.803       74.368        0.113      340.347       14.301      854.308
02/26/2014  15:16:00       87.661     -117.615       47.892      125.179      145.343       86.055    15669.790    21124.705     7405.542        3.400        2.210      146.689       84.596        0.333      340.440       14.461      854.281
02/26/2014  15:17:00       80.001      -17.709      111.387       97.580      135.668      105.036     9521.824    18405.811    11032.626        2.903        1.948       81.938       87.392        1.138      340.440       14.461      854.243
02/26/2014  15:18:00       46.738      -44.538      108.493       99.604      175.150      121.036     9920.963    30677.648    14649.670        3.558        2.762       64.561      135.797        4.424      340.412       14.412      854.238
02/26/2014  15:19:00       13.599     -140.037       12.911      108.596      160.814       70.816    11793.134    25861.267     5014.849        3.131        2.133      140.696       85.729        0.371      340.584       14.704      854.233
02/26/2014  15:20:00      179.003     -323.595        2.402      128.457      164.905       95.891    16501.242    27193.747     9195.002        9.482        2.644      369.805       98.165        0.070      340.483       14.532      854.203
02/26/2014  15:21:00      167.727     -179.358       14.999      150.178      214.228      109.940    22553.389    45893.430    12086.849        7.051        4.027      245.564      141.674        0.333      340.424       14.432      854.201
02/26/2014  15:22:00      116.169     -177.154       23.992      102.466      189.633       92.485    10499.231    35960.842     8553.542        5.022        2.751      211.846      105.454        0.248      340.511       14.579      854.193
02/26/2014  15:23:00      133.200      -72.820      116.241      183.951      209.613      118.741    33837.884    43937.769    14099.393        6.420        4.594      151.806      152.273        1.006      340.510       14.579      854.161
02/26/2014  15:24:00      112.022     -223.414       40.052      140.335      177.085      118.769    19693.840    31359.028    14106.140        6.460        3.258      249.926      124.273        0.247      340.550       14.645      854.171
02/26/2014  15:25:00       10.344     -235.964      -10.882      152.366      162.527      100.938    23215.267    26415.058    10188.564        5.785        2.991      236.190       76.390        0.105      340.454       14.482      854.199
02/26/2014  15:26:00      129.776     -251.608       -4.622      156.746      173.491       90.128    24569.367    30099.254     8123.079        7.147        3.140      283.105       96.697        0.117      340.405       14.400      854.226
02/26/2014  15:27:00      141.952     -186.428       -2.015       95.339      121.280       71.531     9089.561    14708.894     5116.627        4.191        1.446      234.320       58.988        0.063      340.420       14.425      854.278
02/26/2014  15:28:00       -2.721      -98.753        5.677       98.578      122.167       61.721     9717.610    14924.748     3809.444        1.912        1.423       98.791       70.067        0.503      340.792       15.056      854.315
02/26/2014  15:29:00      -50.182      -78.887       -0.511      101.194      104.102       57.300    10240.262    10837.140     3283.305        1.655        1.218       93.496       46.508        0.247      340.531       14.614      854.318
02/26/2014  15:30:00       -5.181     -112.654        8.556       93.215      108.175       69.376     8689.124    11701.840     4813.080        1.899        1.260      112.774       22.385        0.039      340.748       14.980      854.320
02/26/2014  15:31:00     -179.108     -292.062      -27.120      113.034      204.475       67.418    12776.787    41809.829     4545.158        8.861        2.957      342.607       57.066        0.028      340.303       14.226      854.357
02/26/2014  15:32:00       16.946     -234.993       22.779      189.609      215.949      112.428    35951.681    46634.042    12640.036        7.561        4.761      235.603      115.146        0.239      340.310       14.239      854.344
02/26/2014  15:33:00      -48.797     -270.020        2.866      190.328      179.534       95.205    36224.741    32232.612     9063.966        7.640        3.876      274.394       94.854        0.119      340.306       14.233      854.370
02/26/2014  15:34:00      105.401     -177.064        5.634      134.708      149.975       88.180    18146.342    22492.449     7775.743        4.544        2.421      206.060       87.654        0.181      340.222       14.090      854.352
02/26/2014  15:35:00       85.579      -96.341       56.146      126.387      125.517       88.744    15973.679    15754.403     7875.429        2.967        1.980      128.862       91.923        0.509      340.372       14.345      854.335
02/26/2014  15:36:00      245.096     -331.817      -20.186      155.816      184.476       99.951    24278.496    34031.429     9990.300       11.943        3.415      412.522      102.585        0.062      340.161       13.987      854.312
02/26/2014  15:37:00      145.509     -221.334       11.628      170.716      212.919      114.682    29143.856    45334.636    13152.034        7.895        4.382      264.880      137.303        0.269      340.196       14.046      854.288
02/26/2014  15:38:00       98.442     -154.634       38.407      128.920      196.948      116.994    16620.346    38788.339    13687.696        5.207        3.455      183.310      134.177        0.536      340.248       14.135      854.254
02/26/2014  15:39:00       97.846      -78.237       69.341      130.323      186.005      109.024    16984.200    34597.722    11886.288        4.197        3.173      125.279      119.622        0.912      340.217       14.084      854.224
02/26/2014  15:40:00      242.057     -402.271      -21.132      156.316      172.845       94.431    24434.841    29875.306     8917.260       14.203        3.161      469.482       83.947        0.032      339.981       13.683      854.199
02/26/2014  15:41:00      107.277     -270.642       -6.310      131.764      130.210       82.194    17361.710    16954.746     6755.865        6.293        2.054      291.128       67.241        0.053      340.176       14.013      854.206
02/26/2014  15:42:00       -3.430       63.928      127.588       52.913      105.709       87.554     2799.779    11174.327     7665.678        2.100        1.082       64.020       85.304        1.775      340.330       14.274      854.198
02/26/2014  15:43:00      -31.019      -13.122      119.556       84.931      138.791       74.739     7213.200    19262.916     5585.927        2.374        1.603       33.680       57.370        2.901      340.305       14.231      854.152
02/26/2014  15:44:00       10.570     -118.521       19.222      113.002      107.854       60.314    12769.457    11632.582     3637.828        2.128        1.402      118.991       30.725        0.067      340.358       14.323      854.168
02/26/2014  15:45:00       71.279     -163.213       34.899       95.815      181.158       80.804     9180.565    32818.326     6529.364        4.072        2.426      178.099       99.975        0.315      340.078       13.848      854.145
02/26/2014  15:46:00      119.910     -205.059        5.202      126.718      163.995       83.503    16057.517    26894.305     6972.766        5.318        2.496      237.545       95.728        0.162      340.077       13.846      854.109
02/26/2014  15:47:00       70.912     -188.496       -7.904       92.150      125.797       66.477     8491.534    15824.789     4419.165        3.467        1.437      201.393       65.668        0.106      340.142       13.956      854.088
02/26/2014  15:48:00      135.900     -199.927      -12.707       98.356      129.522       59.238     9673.964    16775.834     3509.099        4.427        1.498      241.743       63.857        0.070      340.178       14.016      854.075
02/26/2014  15:49:00     -102.266     -162.662        1.820      118.478      121.006       62.817    14037.030    14642.500     3945.928        3.477        1.631      192.139       68.583        0.127      340.212       14.074      854.079
02/26/2014  15:50:00      -42.522     -158.921       17.053      153.305      164.235       80.248    23502.340    26973.121     6439.748        4.212        2.846      164.512       96.776        0.346      340.132       13.940      854.079
02/26/2014  15:51:00       13.313     -184.592       -5.638       87.004      104.643       58.001     7569.693    10950.088     3364.068        2.808        1.094      185.071       45.960        0.062      340.186       14.030      854.098
02/26/2014  15:52:00      -75.680     -144.963      -24.614       64.050      121.777       37.554     4102.440    14829.620     1410.289        2.384        1.017      163.529       33.307        0.041      340.193       14.042      854.112
02/26/2014  15:53:00      -30.668      -68.041        3.913       63.419       77.716       43.117     4022.025     6039.809     1859.046        0.875        0.596       74.633       18.808        0.064      340.398       14.390      854.117
02/26/2014  15:54:00       67.867     -179.374       12.298      106.371      134.674       72.468    11314.819    18137.205     5251.589        3.581        1.735      191.783       68.473        0.127      340.255       14.147      854.080
02/26/2014  15:55:00       59.947     -121.029       -3.238       99.502       78.350       53.547     9900.646     6138.651     2867.284        1.858        0.945      135.062       39.128        0.084      340.300       14.224      854.036
02/26/2014  15:56:00      -50.781      -22.321       23.712       38.656       42.395       34.089     1494.316     1797.296     1162.060        0.405        0.223       55.470       16.523        0.089      340.537       14.626      853.990
02/26/2014  15:57:00       47.880      -56.389       45.965       81.778      120.939       78.387     6687.670    14626.332     6144.514        1.752        1.373       73.974       74.827        1.023      340.346       14.301      853.934
02/26/2014  15:58:00      -26.938      -98.940       32.571       79.057      112.918       82.340     6250.066    12750.563     6779.896        1.867        1.289      102.541       73.790        0.518      340.477       14.523      853.895
02/26/2014  15:59:00       15.750     -142.395      -20.366       87.619      143.770       70.611     7677.074    20669.756     4985.939        2.713        1.667      143.264       82.368        0.331      340.152       13.973      853.874
02/26/2014  16:00:00       34.748      -79.985       33.075      115.074       75.652       65.125    13241.949     5723.247     4241.286        1.595        1.160       87.207       39.694        0.207      340.367       14.338      853.870
02/26/2014  16:01:00      169.427     -218.113       -1.114      108.116      172.763       61.378    11689.035    29847.021     3767.275        6.078        2.265      276.186       85.740        0.096      340.065       13.826      853.868
02/26/2014  16:02:00       48.517     -178.984       -6.699      122.082       80.825       65.110    14903.913     6532.659     4239.377        3.005        1.284      185.443       47.187        0.065      340.292       14.209      853.854
02/26/2014  16:03:00       12.133       28.049       93.328       53.389       63.113       53.395     2850.402     3983.248     2850.974        0.966        0.484       30.561       17.440        0.326      340.387       14.372      853.848
02/26/2014  16:04:00        5.896      -76.230       29.155       60.425      143.780       73.385     3651.160    20672.700     5385.309        1.820        1.485       76.458       87.399        1.307      340.378       14.356      853.825
02/26/2014  16:05:00      116.499      -77.428       57.013      121.073      114.419       90.856    14658.755    13091.765     8254.798        2.940        1.800      139.883       82.205        0.345      340.256       14.150      853.810
02/26/2014  16:06:00       89.248     -139.447       10.983      109.793      128.054       85.828    12054.398    16397.955     7366.455        3.167        1.791      165.562       89.218        0.290      340.318       14.254      853.817
02/26/2014  16:07:00      113.327     -107.630       29.701      139.194      158.882       84.335    19374.904    25243.547     7112.324        3.851        2.587      156.292      107.043        0.469      340.171       14.005      853.817
02/26/2014  16:08:00       41.777     -157.755       -6.384      122.743      131.314       72.296    15065.857    17243.406     5226.777        3.210        1.877      163.193       72.131        0.195      340.293       14.211      853.790
02/26/2014  16:09:00     -128.429     -106.515       18.781       86.599      120.440       55.542     7499.363    14505.907     3084.870        2.664        1.255      166.852       59.668        0.128      340.286       14.200      853.838
02/26/2014  16:10:00      -89.761      -99.171       -1.159      108.120       62.022       35.289    11689.978     3846.767     1245.285        1.733        0.839      133.760       37.657        0.079      340.227       14.100      853.829
02/26/2014  16:11:00     -143.119     -177.430      -12.694       49.052       85.567       37.097     2406.119     7321.767     1376.182        3.161        0.555      227.957       34.152        0.022      340.031       13.767      853.810
02/26/2014  16:12:00     -109.051      -89.675       12.694       99.246       74.210       39.147     9849.675     5507.138     1532.478        1.849        0.844      141.187       35.087        0.062      340.240       14.124      853.790
02/26/2014  16:13:00     -136.569     -106.065       -7.313       89.862       56.671       42.438     8075.194     3211.579     1801.004        2.152        0.654      172.919       42.671        0.061      340.135       13.945      853.786
02/26/2014  16:14:00     -302.044      -94.534        0.957      130.537       88.769       56.390    17039.903     7879.966     3179.884        6.413        1.405      316.492       56.216        0.032      340.145       13.960      853.775
02/26/2014  16:15:00     -256.842     -202.609      -11.440      101.906       99.153       63.413    10384.812     9831.392     4021.242        6.569        1.212      327.136       45.231        0.019      340.057       13.811      853.756
02/26/2014  16:16:00      -89.168      -82.466       -8.383       64.185       57.561       39.940     4119.721     3313.252     1595.193        1.192        0.451      121.457       26.754        0.049      340.193       14.044      853.795
02/26/2014  16:17:00       -8.073      -81.921       15.683      107.007       62.184       46.305    11450.595     3866.853     2144.119        1.224        0.873       82.318       46.385        0.318      340.280       14.192      853.806
02/26/2014  16:18:00     -168.454     -139.710       -9.207       80.593      114.120       44.247     6495.233    13023.336     1957.824        3.472        1.074      218.851       45.245        0.043      340.097       13.880      853.827
02/26/2014  16:19:00     -107.202     -251.921       -9.195       73.016       71.572       48.060     5331.403     5122.534     2309.798        4.390        0.638      273.782       38.035        0.019      340.012       13.734      853.843
02/26/2014  16:20:00      -86.553     -133.321      -26.033       36.616       71.547       29.609     1340.726     5119.037      876.676        1.664        0.367      158.952       25.087        0.025      340.195       14.047      853.815
02/26/2014  16:21:00      -62.757      -70.918        9.790       61.687       55.432       27.852     3805.237     3072.678      775.737        0.836        0.383       94.698       28.882        0.093      340.259       14.157      853.808
02/26/2014  16:22:00     -119.318     -110.083        0.716       83.170       59.890       37.186     6917.282     3586.819     1382.828        1.912        0.594      162.342       39.034        0.058      340.246       14.133      853.806
02/26/2014  16:23:00     -205.397     -161.101      -19.344       90.396       66.722       42.767     8171.366     4451.771     1828.976        4.148        0.723      261.039       37.964        0.021      340.088       13.864      853.789
02/26/2014  16:24:00     -141.785     -107.919      -23.128       59.788       69.901       42.276     3574.644     4886.101     1787.253        2.126        0.512      178.184       39.344        0.049      340.113       13.908      853.795
02/26/2014  16:25:00     -192.957     -121.795       -3.549       81.765       79.918       45.841     6685.453     6386.869     2101.433        3.362        0.759      228.181       44.755        0.038      340.095       13.876      853.817
02/26/2014  16:26:00     -216.566     -121.102        3.478      125.376       96.433       60.190    15719.096     9299.415     3622.793        4.510        1.432      248.126       56.887        0.053      340.228       14.100      853.830
02/26/2014  16:27:00     -158.054      -74.487       11.592       92.449       81.814       48.416     8546.789     6693.470     2344.098        2.412        0.879      174.726       42.851        0.060      340.256       14.149      853.842
02/26/2014  16:28:00      -84.719      -76.494       20.755      135.707       80.690       56.596    18416.512     6510.826     3203.112        2.079        1.407      114.143       50.845        0.198      340.332       14.280      853.835
02/26/2014  16:29:00       -6.399      -45.774       15.268       31.159       50.261       36.102      970.853     2526.152     1303.354        0.358        0.240       46.219       33.830        0.536      340.627       14.778      853.856
02/26/2014  16:30:00      -27.672      -55.234       -4.251       64.396       35.214       31.496     4146.793     1240.057      991.974        0.511        0.319       61.778       15.065        0.059      340.542       14.635      853.824
02/26/2014  16:31:00       18.440        5.838        2.666       39.497       33.057       30.800     1560.044     1092.774      948.645        0.199        0.180       19.342       26.514        1.879      340.541       14.632      853.799
02/26/2014  16:32:00      -40.649      -63.052       11.133       29.899       53.449       33.424      893.924     2856.777     1117.184        0.531        0.243       75.019       21.375        0.081      340.448       14.475      853.767
02/26/2014  16:33:00        6.023     -149.418      -13.793       87.300       93.315       53.744     7621.284     8707.734     2888.374        2.088        0.961      149.539       51.888        0.120      340.453       14.482      853.728
02/26/2014  16:34:00       57.546     -141.466      -12.176      120.275       66.062       56.107    14466.169     4364.182     3147.962        2.272        1.099      152.723       69.289        0.206      340.346       14.301      853.718
02/26/2014  16:35:00       75.126     -131.225       37.608      125.803      176.372       99.236    15826.491    31107.167     9847.837        4.052        2.839      151.208      109.808        0.527      340.332       14.277      853.668
02/26/2014  16:36:00      -33.967     -148.888      -12.674      103.945       99.831       59.500    10804.473     9966.306     3540.272        2.389        1.216      152.713       47.818        0.098      340.443       14.465      853.693
02/26/2014  16:37:00       50.409      -78.978       28.992       85.473      106.764       63.545     7305.689    11398.619     4037.983        1.618        1.137       93.694       65.970        0.496      340.293       14.213      853.714
02/26/2014  16:38:00      -51.397     -157.975       -4.563       64.633       90.064       49.681     4177.437     8111.553     2468.172        2.118        0.738      166.126       44.423        0.072      340.256       14.149      853.700
02/26/2014  16:39:00       26.059     -120.062       -8.480       57.834       88.819       52.576     3344.742     7888.758     2764.269        1.458        0.700      122.857       56.456        0.211      340.419       14.427      853.706
02/26/2014  16:40:00       -8.028      -79.417      -15.014       75.626       52.533       28.955     5719.292     2759.722      838.374        0.796        0.466       79.821       20.702        0.067      340.458       14.492      853.702
02/26/2014  16:41:00       44.386      -56.751       30.119       64.157       85.447       53.704     4116.155     7301.239     2884.127        1.020        0.715       72.047       46.186        0.411      340.339       14.291      853.692
02/26/2014  16:42:00       28.060      -76.014       23.932       67.245       80.134       37.410     4521.833     6421.518     1399.481        0.974        0.617       81.028       37.795        0.218      340.397       14.388      853.696
02/26/2014  16:43:00      -56.381     -172.575       17.622      122.922      116.352       53.264    15109.903    13537.789     2837.072        3.237        1.574      181.552       46.025        0.064      340.238       14.117      853.653
02/26/2014  16:44:00       -0.585     -161.573       -3.684       84.302      117.009       60.832     7106.874    13691.140     3700.538        2.530        1.225      161.574       59.440        0.135      340.197       14.049      853.620
02/26/2014  16:45:00       -9.957     -106.594       14.303       81.300       96.285       43.290     6609.622     9270.816     1874.059        1.471        0.888      107.058       27.172        0.064      340.158       13.984      853.594
02/26/2014  16:46:00       61.496     -214.537       -0.488      125.172      101.202       58.287    15668.149    10241.808     3397.407        3.955        1.465      223.177       52.824        0.056      340.141       13.952      853.564
02/26/2014  16:47:00      127.705     -120.079        5.812      108.097      150.323       93.776    11684.934    22596.881     8793.950        3.691        2.154      175.292      108.652        0.384      340.102       13.888      853.535
02/26/2014  16:48:00       -2.537      -20.855       50.606       60.763      117.356       98.838     3692.114    13772.514     9768.978        1.511        1.362       21.009       99.797       22.565      340.139       13.954      853.534
02/26/2014  16:49:00       57.921      -78.760       27.156      105.428       98.484       46.773    11115.154     9699.025     2187.683        1.664        1.150       97.765       46.417        0.225      340.066       13.829      853.541
02/26/2014  16:50:00      115.780     -119.701       53.902      158.269      186.195       90.615    25049.002    34668.469     8210.990        4.927        3.396      166.533      125.825        0.571      340.026       13.760      853.516
02/26/2014  16:51:00      118.857     -167.440       10.119       94.300       98.609       49.692     8892.544     9723.695     2469.333        3.167        1.054      205.336       51.934        0.064      340.000       13.716      853.518
02/26/2014  16:52:00       26.121     -130.678       -1.248       61.065       71.625       45.308     3728.937     5130.166     2052.855        1.433        0.546      133.263       38.276        0.082      340.162       13.991      853.529
02/26/2014  16:53:00      120.200     -158.514       -7.206       71.923       99.879       61.859     5172.865     9975.840     3826.511        2.930        0.949      198.934       64.244        0.104      340.058       13.815      853.523
02/26/2014  16:54:00       85.648      -98.020       32.251      115.730      126.920       67.863    13393.529    16108.708     4605.441        2.604        1.705      130.167       77.701        0.356      340.010       13.734      853.488
02/26/2014  16:55:00       -3.466       47.182      122.111       88.835      120.518       96.133     7891.695    14524.620     9241.580        2.440        1.583       47.309       95.430        4.069      340.063       13.824      853.461
02/26/2014  16:56:00       53.673      -94.199       12.812      111.341      107.976       51.507    12396.866    11658.917     2653.001        1.931        1.335      108.417       57.841        0.285      340.098       13.883      853.490
02/26/2014  16:57:00       51.691     -124.826       -4.766       81.332       69.551       50.477     6614.915     4837.374     2547.923        1.614        0.700      135.106       33.129        0.060      340.209       14.070      853.496
02/26/2014  16:58:00       -0.961     -142.345       11.468       91.984       60.403       44.763     8461.102     3648.511     2003.685        1.725        0.706      142.348       34.493        0.059      340.201       14.057      853.511
02/26/2014  16:59:00      -89.211     -158.374       14.087      156.099      169.953       73.924    24366.841    28883.963     5464.789        4.597        2.936      181.771       93.116        0.262      340.066       13.829      853.513
02/26/2014  17:00:00      -50.279      -57.883       13.634      108.542       87.389       54.072    11781.412     7636.842     2923.735        1.420        1.117       76.671       43.302        0.319      340.053       13.808      853.495
02/26/2014  17:01:00        1.640      -50.040       29.913       60.212      106.466       54.953     3625.506    11334.910     3019.851        1.069        0.899       50.067       65.791        1.727      340.103       13.892      853.494
02/26/2014  17:02:00      -52.897     -162.556      -19.690      158.049      123.757       76.961    24979.333    15315.836     5923.042        3.791        2.311      170.946       73.305        0.184      340.082       13.855      853.466
02/26/2014  17:03:00      -33.590      -51.169       49.744       57.126       98.524       51.499     3263.412     9706.946     2652.190        1.092        0.781       61.209       45.785        0.560      340.104       13.894      853.461
02/26/2014  17:04:00        1.444     -147.545       -2.163       94.135       76.004       57.001     8861.457     5776.670     3249.139        1.983        0.894      147.552       33.129        0.050      340.154       13.978      853.461
02/26/2014  17:05:00        8.500     -174.838      -10.788      124.704       89.107       49.706    15550.993     7940.120     2470.681        2.835        1.298      175.045       40.638        0.054      340.078       13.848      853.445
02/26/2014  17:06:00       22.869     -149.903       12.021      109.198      108.172       58.254    11924.270    11701.211     3393.506        2.507        1.351      151.638       51.768        0.117      340.118       13.916      853.447
02/26/2014  17:07:00     -133.282     -148.313      -12.280      143.904       80.478       50.839    20708.401     6476.687     2584.623        3.483        1.488      199.401       34.980        0.031      339.983       13.688      853.410
02/26/2014  17:08:00       -1.775     -137.576      -39.520       58.285       59.193       38.753     3397.089     3503.755     1501.816        1.445        0.420      137.588       22.738        0.027      339.985       13.692      853.412
02/26/2014  17:09:00      -38.905      -90.602        2.371       65.129       42.900       33.193     4241.791     1840.441     1101.779        0.845        0.359       98.601       28.749        0.085      340.044       13.793      853.420
02/26/2014  17:10:00       32.780     -158.057       -0.755      132.457      116.656       65.123    17544.863    13608.688     4240.996        3.072        1.770      161.421       53.794        0.111      340.043       13.789      853.416
02/26/2014  17:11:00      -53.220     -172.559       -5.800       61.950       97.705       39.388     3837.741     9546.196     1551.438        2.379        0.747      180.579       35.724        0.039      340.011       13.735      853.391
02/26/2014  17:12:00       25.488      -73.295        6.188       52.755       72.151       38.089     2783.139     5205.772     1450.769        0.775        0.472       77.601       42.571        0.301      340.056       13.812      853.386
02/26/2014  17:13:00      -84.116      -16.107       10.554       66.812       56.352       40.293     4463.900     3175.562     1623.534        0.835        0.463       85.644       44.438        0.269      339.955       13.641      853.385
02/26/2014  17:14:00      -87.041      -28.198       27.359      111.250       50.788       40.546    12376.468     2579.420     1644.015        1.286        0.830       91.495       48.218        0.278      339.904       13.555      853.371
02/26/2014  17:15:00      -98.931      -45.160       18.685      101.483       58.463       42.427    10298.810     3417.949     1800.032        1.384        0.776      108.751       47.566        0.191      339.903       13.553      853.376
02/26/2014  17:16:00     -132.720      -98.759       13.246      100.546       75.962       42.515    10109.594     5770.237     1807.554        2.261        0.884      165.432       39.133        0.056      339.881       13.515      853.379
02/26/2014  17:17:00     -101.357      -80.267        0.687       60.140       62.397       33.037     3616.834     3893.423     1091.416        1.266        0.430      129.290       29.808        0.053      339.844       13.454      853.408
02/26/2014  17:18:00     -137.613     -122.970      -17.302       86.391       69.933       46.959     7463.458     4890.591     2205.165        2.446        0.728      184.550       43.586        0.056      339.832       13.432      853.384
02/26/2014  17:19:00      -59.372     -119.946       23.939       80.771       64.629       34.063     6523.992     4176.873     1160.301        1.517        0.593      133.836       30.760        0.053      339.729       13.260      853.385
02/26/2014  17:20:00      -69.540       56.275       -4.662       70.734       55.267       40.495     5003.279     3054.454     1639.881        0.886        0.485       89.458       46.334        0.268      339.666       13.157      853.368
02/26/2014  17:21:00     -156.456      -23.586      -12.258       99.535       62.328       33.183     9907.210     3884.817     1101.097        2.004        0.745      158.224       43.051        0.074      339.681       13.178      853.366
02/26/2014  17:22:00     -272.813     -102.149      -21.062       94.548       54.227       45.192     8939.414     2940.537     2042.335        4.961        0.696      291.310       33.900        0.014      339.594       13.032      853.376
02/26/2014  17:23:00     -245.043      -42.860        1.347       86.532       89.245       47.303     7487.703     7964.740     2237.546        3.978        0.884      248.763       42.767        0.030      339.597       13.037      853.386
02/26/2014  17:24:00     -173.099      -76.514      -10.670       89.442       82.002       38.802     7999.910     6724.301     1505.614        2.608        0.811      189.256       31.770        0.028      339.594       13.032      853.367
02/26/2014  17:25:00     -226.041      -40.265      -10.904       90.519       57.653       43.151     8193.758     3323.812     1862.050        3.310        0.669      229.599       38.839        0.029      339.552       12.960      853.365
02/26/2014  17:26:00     -226.767      -58.998       -9.770       96.262       73.695       45.705     9266.376     5431.014     2088.912        3.589        0.839      234.316       44.980        0.037      339.574       12.996      853.342
02/26/2014  17:27:00     -330.833     -148.290      -17.262      139.278      119.362       61.653    19398.296    14247.177     3801.151        8.459        1.872      362.547       62.036        0.029      339.501       12.875      853.324
02/26/2014  17:28:00     -282.227       -8.292        1.772      156.802      104.360       70.548    24586.794    10890.919     4976.952        6.008        2.023      282.348       75.545        0.072      339.523       12.910      853.303
02/26/2014  17:29:00     -282.514      -73.403      -13.135      125.075       98.338       63.504    15643.879     9670.381     4032.726        5.735        1.467      291.894       71.487        0.060      339.495       12.863      853.291
02/26/2014  17:30:00     -280.725      -15.704      -25.213      107.987       65.810       41.356    11661.115     4330.906     1710.284        4.869        0.885      281.163       40.889        0.021      339.567       12.986      853.301
02/26/2014  17:31:00     -191.494      -86.623        0.944       85.442       75.363       47.332     7300.283     5679.619     2240.297        2.969        0.761      210.175       38.706        0.034      339.472       12.826      853.306
02/26/2014  17:32:00     -230.400      -88.153      -23.521       82.896       75.483       44.628     6871.672     5697.687     1991.685        3.798        0.728      246.689       39.374        0.025      339.473       12.828      853.323
02/26/2014  17:33:00     -151.368      -34.726       -4.156       92.888       64.588       45.257     8628.130     4171.548     2048.236        1.949        0.742      155.300       49.220        0.100      339.490       12.857      853.342
02/26/2014  17:34:00        5.439      -19.923        6.809       34.198       25.214       18.653     1169.494      635.767      347.945        0.131        0.108       20.653       17.185        0.692      339.504       12.883      853.347
02/26/2014  17:35:00      -58.745      -48.126       10.143       79.415       43.396       31.357     6306.760     1883.236      983.279        0.752        0.459       75.941       30.489        0.161      339.660       13.145      853.347
02/26/2014  17:36:00     -213.445      -41.786       -7.261       59.119       54.900       30.841     3495.070     3014.039      951.180        2.741        0.373      217.497       25.508        0.014      339.494       12.862      853.349
02/26/2014  17:37:00     -121.792      -29.976       -2.598       64.064       58.976       38.391     4104.132     3478.111     1473.860        1.240        0.453      125.427       29.383        0.055      339.480       12.840      853.351
02/26/2014  17:38:00     -134.475      -63.887        0.571      117.061       52.863       43.096    13703.391     2794.517     1857.270        2.026        0.918      148.880       51.399        0.119      339.508       12.888      853.376
02/26/2014  17:39:00     -136.269      -18.357       -5.733       67.634       55.589       31.972     4574.354     3090.110     1022.212        1.381        0.434      137.499       27.339        0.040      339.481       12.843      853.384
02/26/2014  17:40:00     -140.634      -33.723       -9.756       79.695       51.041       29.233     6351.328     2605.182      854.546        1.541        0.491      144.621       32.801        0.051      339.555       12.968      853.397
02/26/2014  17:41:00     -185.569      -20.973      -14.973       44.011       47.485       27.707     1936.987     2254.843      767.683        2.003        0.248      186.750       24.817        0.018      339.547       12.954      853.375
02/26/2014  17:42:00     -135.775      -59.884       -9.238       70.450       62.249       32.900     4963.269     3874.885     1082.394        1.601        0.496      148.394       26.281        0.031      339.469       12.823      853.355
02/26/2014  17:43:00     -131.582      -72.424       -2.693       57.604       40.398       27.949     3318.171     1631.966      781.163        1.415        0.287      150.197       24.908        0.028      339.442       12.777      853.338
02/26/2014  17:44:00      -14.501      -28.861       15.888       48.127       34.053       25.323     2316.250     1159.611      641.259        0.271        0.206       32.299       23.594        0.534      339.535       12.935      853.347
02/26/2014  17:45:00      -58.637      -50.837        4.717       55.251       46.120       32.421     3052.697     2127.065     1051.150        0.614        0.312       77.606       35.711        0.212      339.502       12.880      853.351
02/26/2014  17:46:00      -85.186      -97.108       -0.525       47.711       35.899       29.224     2276.313     1288.733      854.024        1.055        0.221      129.177       24.750        0.037      339.461       12.808      853.360
02/26/2014  17:47:00      -47.097      -66.636       -2.631       35.906       37.178       20.286     1289.269     1382.236      411.525        0.487        0.154       81.600       17.835        0.048      339.487       12.854      853.338
02/26/2014  17:48:00     -115.530      -73.473        3.510       39.845       39.564       21.499     1587.622     1565.278      462.209        1.119        0.181      136.914       17.238        0.016      339.515       12.900      853.319
02/26/2014  17:49:00      -91.431      -43.482       -9.260       18.459       21.746       15.505      340.748      472.882      240.393        0.569        0.053      101.244       14.802        0.021      339.424       12.749      853.279
02/26/2014  17:50:00     -115.374      -40.269      -10.394       24.558       36.991       19.316      603.086     1368.341      373.095        0.869        0.117      122.200       11.451        0.009      339.465       12.816      853.248
02/26/2014  17:51:00      -70.637      -98.781       -0.048       33.299       38.695       22.224     1108.838     1497.264      493.901        0.892        0.155      121.438       20.631        0.029      339.495       12.868      853.235
02/26/2014  17:52:00      -74.137      -68.483        6.614       35.425       29.252       22.978     1254.916      855.682      527.999        0.643        0.132      100.927       17.141        0.029      339.504       12.883      853.221
02/26/2014  17:53:00      -85.689      -59.285        1.490       39.652       33.724       22.053     1572.257     1137.322      486.350        0.703        0.160      104.198       19.860        0.036      339.516       12.904      853.226
02/26/2014  17:54:00      -95.023      -71.647       -8.109       31.830       21.785       20.504     1013.162      474.600      420.413        0.807        0.095      119.007       16.619        0.020      339.496       12.870      853.192
02/26/2014  17:55:00      -38.094      -80.154       -1.866       39.095       34.806       14.816     1528.428     1211.482      219.512        0.542        0.148       88.746       14.928        0.028      339.505       12.883      853.153
02/26/2014  17:56:00       -9.261      -41.668       15.865       34.510       33.184       16.605     1190.933     1101.164      275.715        0.232        0.128       42.685       14.743        0.119      339.586       13.020      853.126
02/26/2014  17:57:00      -71.382      -34.548       -2.716       19.080       25.621       16.236      364.033      656.457      263.611        0.379        0.064       79.303       11.975        0.023      339.534       12.933      853.097
02/26/2014  17:58:00      -12.126      -57.920       10.994       39.148       39.258       22.865     1532.590     1541.182      522.810        0.361        0.180       59.176       17.378        0.086      339.579       13.008      853.091
02/26/2014  17:59:00      -28.634      -49.039       -2.207       18.547       31.421       12.850      344.009      987.283      165.134        0.236        0.075       56.786        8.611        0.023      339.565       12.986      853.078
02/26/2014  18:00:00       -5.741       10.974       39.109       17.111       43.600       44.860      292.799     1900.969     2012.412        0.294        0.210       12.385       41.726       11.350      339.559       12.976      853.063
02/26/2014  18:01:00       25.418       73.348       85.264       40.779       43.495       31.914     1662.952     1891.837     1018.520        0.893        0.229       77.628       26.105        0.113      339.546       12.954      853.000
02/26/2014  18:02:00       42.999      -61.695       24.330       52.253       76.568       49.290     2730.371     5862.692     2429.529        0.863        0.551       75.201       54.805        0.531      339.647       13.124      852.976
02/26/2014  18:03:00       52.169      -76.032       40.080       65.984      104.726       67.340     4353.872    10967.584     4534.613        1.498        0.993       92.208       66.573        0.521      339.621       13.077      852.960
02/26/2014  18:04:00       25.907       -5.931       60.534       67.025       75.512       54.895     4492.364     5702.011     3013.463        0.879        0.660       26.578       55.090        4.296      339.569       12.991      852.942
02/26/2014  18:05:00      -83.619      -15.742       15.681       39.920       60.396       32.012     1593.623     3647.697     1024.752        0.687        0.313       85.088       22.344        0.069      339.634       13.101      852.920
02/26/2014  18:06:00       15.408     -110.523        5.098      123.662       86.703       47.552    15292.200     7517.484     2261.163        1.877        1.254      111.591       45.719        0.168      339.773       13.335      852.919
02/26/2014  18:07:00      -94.921     -150.552        9.129       91.379       73.166       53.547     8350.103     5353.324     2867.287        2.416        0.829      177.977       42.267        0.056      339.759       13.310      852.919
02/26/2014  18:08:00      -62.883      -66.047       24.752       75.790      110.351       62.704     5744.151    12177.302     3931.840        1.539        1.093       91.195       67.417        0.547      339.828       13.428      852.874
02/26/2014  18:09:00       46.456     -120.447        1.060      120.135       85.790       47.070    14432.399     7359.850     2215.561        2.033        1.200      129.096       43.982        0.116      339.809       13.395      852.907
02/26/2014  18:10:00     -119.017      -36.953       -8.521       58.295       52.521       32.962     3398.287     2758.441     1086.517        1.142        0.362      124.621       22.451        0.032      339.802       13.385      852.893
02/26/2014  18:11:00      -37.668      -39.213        8.653       53.084       45.531       24.091     2817.866     2073.109      580.358        0.425        0.274       54.374       24.057        0.196      339.774       13.338      852.894
02/26/2014  18:12:00       52.345     -163.010      -23.310       83.478       73.312       47.229     6968.528     5374.720     2230.582        2.221        0.729      171.208       37.182        0.047      339.848       13.461      852.905
02/26/2014  18:13:00     -103.228      -55.647       -9.127       52.491       65.704       35.504     2755.348     4316.995     1260.549        1.108        0.417      117.271       27.387        0.055      339.807       13.392      852.917
02/26/2014  18:14:00       -7.183     -156.912       -2.685       96.008      110.002       56.356     9217.503    12100.472     3176.049        2.458        1.225      157.076       32.215        0.042      339.853       13.470      852.922
02/26/2014  18:15:00       46.118     -114.474       13.889      107.937       86.042       48.225    11650.316     7403.311     2325.652        1.840        1.069      123.415       42.374        0.118      339.877       13.511      852.904
02/26/2014  18:16:00      -47.512      -14.518       28.960       65.433       35.688       35.213     4281.518     1273.629     1239.966        0.505        0.340       49.681       41.443        0.696      339.762       13.319      852.867
02/26/2014  18:17:00      -88.894      -40.509       -3.024       95.191       61.069       39.502     9061.239     3729.401     1560.391        1.195        0.718       97.689       49.785        0.260      339.709       13.226      852.849
02/26/2014  18:18:00      -21.015      -90.466      -10.558       55.599       47.678       34.655     3091.205     2273.176     1200.972        0.765        0.328       92.874       31.185        0.113      339.839       13.447      852.852
02/26/2014  18:19:00      -29.866     -189.193        4.977       56.439       97.450       49.190     3185.372     9496.441     2419.651        2.590        0.755      191.535       37.632        0.039      339.763       13.317      852.849
02/26/2014  18:20:00       -0.893      -97.697       -7.070       48.374       54.410       44.153     2340.061     2960.428     1949.451        0.842        0.362       97.701       17.806        0.033      339.822       13.418      852.812
02/26/2014  18:21:00       -5.653      -41.441       12.550       83.511       66.547       36.414     6974.120     4428.470     1325.944        0.732        0.636       41.824       27.689        0.438      339.691       13.198      852.783
02/26/2014  18:22:00        4.938     -243.636       -2.136      162.554      109.895       62.223    26423.870    12077.008     3871.719        5.087        2.119      243.686       44.622        0.034      339.653       13.131      852.767
02/26/2014  18:23:00      -17.652     -109.916       -1.763      104.483       63.395       48.330    10916.659     4018.873     2335.783        1.483        0.864      111.324       25.155        0.051      339.671       13.162      852.732
02/26/2014  18:24:00      -22.749     -187.525       -7.892      158.347      121.262       64.389    25073.652    14704.592     4146.000        3.983        2.196      188.900       65.471        0.120      339.681       13.177      852.715
02/26/2014  18:25:00       27.341     -168.080       -9.147      104.920       95.077       54.002    11008.270     9039.674     2916.252        2.602        1.148      170.290       48.321        0.081      339.723       13.250      852.668
02/26/2014  18:26:00      -84.990     -149.910      -17.457       71.214       88.095       45.233     5071.462     7760.730     2045.981        2.244        0.744      172.326       41.504        0.058      339.612       13.063      852.678
02/26/2014  18:27:00     -120.535     -107.722        0.513       74.273       77.861       51.080     5516.458     6062.261     2609.120        2.016        0.709      161.657       47.339        0.086      339.601       13.044      852.653
02/26/2014  18:28:00      -58.719      -42.200       16.522       55.207       65.759       45.153     3047.772     4324.234     2038.761        0.745        0.471       72.310       33.280        0.212      339.629       13.094      852.633
02/26/2014  18:29:00      -97.327      -69.640       -4.302       68.993       64.595       34.275     4760.024     4172.458     1174.808        1.222        0.505      119.676       22.199        0.034      339.606       13.054      852.633
02/26/2014  18:30:00      -56.610      -98.944       -2.055       70.152       55.964       39.269     4921.237     3131.932     1542.030        1.130        0.480      113.994       28.793        0.064      339.672       13.166      852.636
02/26/2014  18:31:00      -33.977      -34.702       16.127       79.624       63.492       39.874     6340.008     4031.249     1589.969        0.729        0.598       48.566       35.571        0.536      339.641       13.113      852.669
02/26/2014  18:32:00       10.944      -57.549        8.323       59.454       57.077       56.653     3534.723     3257.734     3209.579        0.675        0.500       58.581       42.533        0.527      339.667       13.158      852.649
02/26/2014  18:33:00      -46.914      -65.271        2.594       66.447       65.847       36.726     4415.155     4335.773     1348.768        0.828        0.505       80.382       31.239        0.151      339.693       13.198      852.625
02/26/2014  18:34:00       57.928     -172.792      -14.481      159.607      111.531       55.943    25474.244    12439.161     3129.623        3.722        2.052      182.244       47.948        0.069      339.639       13.107      852.610
02/26/2014  18:35:00      -44.223     -186.610       -8.061      158.652       98.602       72.092    25170.445     9722.324     5197.187        3.846        2.004      191.779       44.780        0.055      339.663       13.146      852.566
02/26/2014  18:36:00      -61.203     -121.556        9.982       70.490       70.634       48.909     4968.780     4989.150     2392.096        1.548        0.618      136.094       36.429        0.072      339.705       13.220      852.632
02/26/2014  18:37:00      -55.479     -271.046      -11.397       83.472      133.583       53.511     6967.601    17844.540     2863.457        5.217        1.384      276.666       36.754        0.018      339.738       13.274      852.656
02/26/2014  18:38:00       51.089     -126.793       -2.415       97.230      132.422       60.842     9453.608    17535.577     3701.760        2.469        1.535      136.699       66.610        0.237      339.717       13.240      852.648
02/26/2014  18:39:00       10.755     -102.296        4.070       90.703      104.150       50.828     8226.951    10847.203     2583.451        1.612        1.083      102.860       43.682        0.180      339.702       13.215      852.623
02/26/2014  18:40:00       -7.255      -91.022      -21.176       75.571       79.184       44.738     5710.919     6270.122     2001.499        1.138        0.699       91.311       22.311        0.060      339.674       13.168      852.618
02/26/2014  18:41:00      -26.976      -56.052        9.109       55.006       63.529       46.612     3025.680     4035.982     2172.660        0.659        0.462       62.206       27.985        0.202      339.705       13.222      852.623
02/26/2014  18:42:00     -101.239      -45.842       -2.206       83.858       35.328       30.262     7032.212     1248.068      915.803        1.077        0.460      111.134       25.070        0.051      339.666       13.156      852.607
02/26/2014  18:43:00      -19.323      -17.132        2.862       37.795       45.361       29.363     1428.463     2057.638      862.166        0.251        0.217       25.824       22.932        0.789      339.718       13.244      852.603
02/26/2014  18:44:00       10.974      -54.114       32.663       61.847       72.588       58.249     3825.093     5268.989     3392.889        0.830        0.624       55.216       13.738        0.062      339.680       13.178      852.587
02/26/2014  18:45:00      -74.664     -132.056       -4.795       96.502       78.131       69.796     9312.693     6104.500     4871.484        2.166        1.014      151.702       32.173        0.045      339.624       13.083      852.579
02/26/2014  18:46:00      -31.943     -132.410       -4.666       67.838       77.199       59.785     4602.057     5959.670     3574.250        1.635        0.707      136.208       43.354        0.101      339.649       13.127      852.597
02/26/2014  18:47:00       16.900      -82.207        2.209       60.199       65.491       54.402     3623.900     4289.021     2959.555        0.896        0.544       83.926       38.296        0.208      339.675       13.171      852.578
02/26/2014  18:48:00       36.083      -27.125       42.222       58.483       79.247       47.729     3420.208     6280.082     2278.049        0.790        0.599       45.141       54.819        1.475      339.611       13.064      852.566
02/26/2014  18:49:00       22.667        6.847       50.942       51.670       53.326       39.764     2669.739     2843.630     1581.188        0.512        0.355       23.678       21.853        0.852      339.567       12.989      852.539
02/26/2014  18:50:00       -3.736      -54.109       16.004       32.274       36.219       30.667     1041.601     1311.803      940.494        0.325        0.165       54.238       17.287        0.102      339.707       13.227      852.532
02/26/2014  18:51:00        3.285       46.169       72.482       38.426       55.126       56.061     1476.586     3038.895     3142.846        0.753        0.383       46.286       53.364        1.329      339.619       13.077      852.533
02/26/2014  18:52:00       -7.747        7.917       59.296       43.511       63.188       61.892     1893.207     3992.676     3830.653        0.668        0.486       11.077       56.970       26.451      339.643       13.117      852.528
02/26/2014  18:53:00       59.482     -114.402       20.158       96.805      130.818       74.153     9371.131    17113.372     5498.595        2.450        1.599      128.941       77.611        0.362      339.635       13.101      852.506
02/26/2014  18:54:00        5.934       36.234       86.339       32.748       74.469       44.107     1072.436     5545.593     1945.422        0.868        0.428       36.716       49.109        1.789      339.562       12.982      852.485
02/26/2014  18:55:00       78.388      -45.486       35.657       58.465       60.622       39.707     3418.115     3675.061     1576.638        0.908        0.433       90.629       43.246        0.228      339.491       12.860      852.457
02/26/2014  18:56:00       28.674       -6.770       47.029       50.165       72.106       43.827     2516.543     5199.287     1920.789        0.636        0.482       29.462       51.244        3.025      339.516       12.903      852.439
02/26/2014  18:57:00       88.308     -109.776       -3.623       52.259       65.324       32.510     2730.966     4267.181     1056.894        1.396        0.403      140.887       26.980        0.037      339.475       12.831      852.438
02/26/2014  18:58:00       48.134       25.810       62.056       57.361       92.855       46.912     3290.293     8622.099     2200.695        1.047        0.706       54.617       54.519        0.996      339.429       12.755      852.438
02/26/2014  18:59:00       66.902      -30.218       46.725       77.435      105.876       60.212     5996.193    11209.722     3625.507        1.420        1.042       73.410       76.564        1.088      339.416       12.734      852.440
02/26/2014  19:00:00       77.802      -44.467       41.327       76.052       90.511       58.963     5783.924     8192.243     3476.665        1.359        0.873       89.613       59.663        0.443      339.424       12.749      852.437
02/26/2014  19:01:00       29.688       -9.818       71.021       48.649       87.961       64.602     2366.745     7737.090     4173.474        1.015        0.714       31.269       64.753        4.288      339.466       12.817      852.429
02/26/2014  19:02:00       38.922       31.314       97.010       73.577      109.092       65.415     5413.550    11900.998     4279.157        1.675        1.080       49.955       80.460        2.594      339.470       12.823      852.418
02/26/2014  19:03:00       54.060       -3.504       60.745       50.434       79.130       62.099     2543.538     6261.502     3856.301        0.964        0.633       54.173       57.569        1.129      339.432       12.760      852.416
02/26/2014  19:04:00        7.129        0.724       87.739       56.633       72.589       51.073     3207.253     5269.233     2608.481        0.942        0.554        7.166       42.178       34.647      339.478       12.838      852.411
02/26/2014  19:05:00       79.186      -77.505       15.734       64.433       82.680       74.238     4151.623     6835.963     5511.335        1.451        0.825      110.804       60.106        0.294      339.446       12.783      852.417
02/26/2014  19:06:00        8.615       53.725      114.727       52.222      104.457       64.931     2727.097    10911.324     4215.979        1.699        0.893       54.411       72.659        1.783      339.454       12.798      852.407
02/26/2014  19:07:00       15.480      -17.259       69.329       50.448       56.662       42.370     2544.966     3210.552     1795.239        0.645        0.378       23.184       27.490        1.406      339.489       12.856      852.413
02/26/2014  19:08:00       83.437     -111.536       20.030       94.866      102.474       74.806     8999.523    10501.002     5595.969        2.244        1.255      139.291       67.991        0.238      339.496       12.867      852.404
02/26/2014  19:09:00       16.394      -55.218       51.790       59.634       94.551       72.020     3556.239     8939.869     5186.833        1.184        0.884       57.600       54.716        0.902      339.474       12.831      852.389
02/26/2014  19:10:00       33.156      -79.803       28.659       65.599       95.057       57.871     4303.266     9035.925     3349.097        1.249        0.834       86.417       58.834        0.464      339.538       12.939      852.387
02/26/2014  19:11:00       64.494      -73.477       43.247       78.104      121.003       64.023     6100.200    14641.818     4098.947        1.813        1.242       97.767       74.301        0.578      339.475       12.833      852.356
02/26/2014  19:12:00       39.028      -25.942      101.317       88.265      138.020       77.008     7790.646    19049.410     5930.307        2.261        1.639       46.863       92.062        3.859      339.472       12.826      852.358
02/26/2014  19:13:00       76.917      -99.245       40.555       72.866      118.593       76.472     5309.461    14064.297     5847.977        2.131        1.261      125.562       73.368        0.341      339.453       12.794      852.351
02/26/2014  19:14:00       49.670       78.809      194.699      116.019      170.462      111.233    13460.301    29057.322    12372.819        5.073        2.745       93.155      123.524        1.758      339.367       12.649      852.294
02/26/2014  19:15:00       60.841      -50.667       52.839       89.294      115.022       71.290     7973.371    13229.946     5082.294        1.767        1.314       79.176       61.994        0.613      339.393       12.694      852.320
02/26/2014  19:16:00      -11.163      -23.581       61.284       74.575       94.029       70.026     5561.391     8841.475     4903.683        1.187        0.965       26.090       59.450        5.192      339.450       12.793      852.320
02/26/2014  19:17:00       26.947        8.865       98.085       70.329       93.234       67.668     4946.225     8692.655     4578.988        1.432        0.911       28.368       53.511        3.558      339.390       12.688      852.322
02/26/2014  19:18:00       10.540      -95.639       32.671       78.182       74.462       57.237     6112.441     5544.545     3276.124        1.263        0.747       96.218       49.538        0.265      339.450       12.791      852.325
02/26/2014  19:19:00       20.325       22.458       94.336       60.300      115.035       75.530     3636.031    13232.945     5704.738        1.619        1.129       30.289       74.198        6.001      339.375       12.665      852.336
02/26/2014  19:20:00       21.478      -81.561       28.370       46.401       71.203       53.070     2153.058     5069.812     2816.476        0.898        0.502       84.342       45.779        0.295      339.425       12.749      852.366
02/26/2014  19:21:00       28.660      -30.810       27.935       53.868       48.087       28.962     2901.798     2312.343      838.814        0.430        0.303       42.079       31.770        0.570      339.447       12.787      852.354
02/26/2014  19:22:00      -23.352       -8.359       35.710       30.446       43.151       24.413      926.965     1862.025      595.996        0.264        0.169       24.803       19.397        0.612      339.464       12.814      852.356
02/26/2014  19:23:00      115.002     -133.979       -3.233       99.303      100.869       62.630     9861.139    10174.651     3922.558        2.757        1.198      176.567       72.152        0.167      339.379       12.670      852.372
02/26/2014  19:24:00      118.053     -171.609       18.869      108.286      175.198       94.685    11725.779    30694.335     8965.197        4.755        2.569      208.294      117.794        0.320      339.396       12.696      852.394
02/26/2014  19:25:00       77.023      -82.708       28.667       80.098      115.217       62.483     6415.643    13275.031     3904.149        1.859        1.180      113.018       77.909        0.475      339.407       12.719      852.409
02/26/2014  19:26:00      114.581     -186.434       -6.191       70.906       98.208       74.963     5027.665     9644.780     5619.494        3.410        1.015      218.830       55.319        0.064      339.421       12.739      852.424
02/26/2014  19:27:00        3.465      -24.246       41.823       59.708       62.309       31.781     3565.087     3882.419     1010.034        0.540        0.423       24.493       14.444        0.348      339.506       12.885      852.450
02/26/2014  19:28:00       23.728       -7.560       35.976       40.191       45.277       29.359     1615.331     2049.981      861.934        0.322        0.226       24.903       19.557        0.617      339.465       12.818      852.470
02/26/2014  19:29:00       19.228     -100.490        1.175       51.757       38.109       34.279     2678.816     1452.287     1175.064        0.789        0.265      102.313       12.407        0.015      339.563       12.983      852.477
02/26/2014  19:30:00       20.130      -61.713       -6.214       35.974       36.468       21.282     1294.131     1329.904      452.904        0.366        0.154       64.914       21.986        0.115      339.526       12.918      852.492
02/26/2014  19:31:00      -12.140      -11.500        9.200       33.316       26.441       26.916     1109.953      699.137      724.476        0.145        0.127       16.722       25.899        2.399      339.537       12.938      852.507
02/26/2014  19:32:00       50.194      -45.423       10.999       44.064       69.286       38.251     1941.608     4800.602     1463.161        0.645        0.410       67.695       38.906        0.330      339.512       12.897      852.523
02/26/2014  19:33:00       27.166      -16.738       23.487       38.124       55.917       32.292     1453.421     3126.666     1042.779        0.360        0.281       31.909       29.439        0.851      339.466       12.819      852.534
02/26/2014  19:34:00      -10.210      -43.398        5.734       27.211       29.100       17.991      740.429      846.810      323.684        0.197        0.096       44.583       15.923        0.128      339.592       13.031      852.543
02/26/2014  19:35:00      -13.679      -21.629        1.903       46.667       33.677       27.425     2177.776     1134.137      752.128        0.236        0.203       25.591       14.832        0.336      339.580       13.009      852.559
02/26/2014  19:36:00      -17.722     -104.393       -5.779       56.884       35.008       33.264     3235.783     1225.559     1106.466        0.841        0.278      105.887       24.242        0.052      339.630       13.095      852.568
02/26/2014  19:37:00       -2.803      -54.021        4.764       31.748       45.249       24.348     1007.914     2047.473      592.829        0.330        0.182       54.094       26.346        0.237      339.533       12.931      852.560
02/26/2014  19:38:00       -5.376       -8.481       22.809       53.883       41.657       29.607     2903.398     1735.278      876.547        0.307        0.276       10.041       27.112        7.290      339.456       12.802      852.548
02/26/2014  19:39:00      -25.312       12.266       43.562       41.926       35.744       31.957     1757.753     1277.613     1021.254        0.337        0.203       28.127       30.713        1.192      339.434       12.765      852.540
02/26/2014  19:40:00       40.584      -55.127       24.164       62.355       63.995       46.467     3888.089     4095.308     2159.148        0.770        0.507       68.455       40.955        0.358      339.453       12.797      852.543
02/26/2014  19:41:00      -38.773     -106.843        5.928       61.762       77.991       45.361     3814.525     6082.655     2057.618        1.245        0.598      113.661       21.581        0.036      339.457       12.802      852.539
02/26/2014  19:42:00       19.895       16.316       34.533       42.707       46.863       43.316     1823.901     2196.134     1876.309        0.387        0.295       25.730       40.543        2.483      339.375       12.665      852.531
02/26/2014  19:43:00       46.763      -65.022        6.309       59.044       59.010       35.097     3486.167     3482.158     1231.774        0.733        0.410       80.092       39.394        0.242      339.370       12.658      852.524
02/26/2014  19:44:00       40.054      -11.332       35.522       51.628       57.231       39.241     2665.424     3275.359     1539.885        0.524        0.374       41.626       36.012        0.748      339.373       12.663      852.527
02/26/2014  19:45:00       20.227      -51.655       15.784       26.152       49.850       24.012      683.945     2485.020      576.563        0.354        0.187       55.474       21.633        0.152      339.475       12.834      852.516
02/26/2014  19:46:00      -11.923      -44.848       16.422       52.292       60.473       33.349     2734.420     3657.011     1112.181        0.496        0.375       46.406       31.823        0.470      339.452       12.794      852.512
02/26/2014  19:47:00      -10.864      -18.822       21.944       30.021       42.195       34.864      901.236     1780.423     1215.469        0.242        0.195       21.732       21.404        0.970      339.436       12.768      852.494
02/26/2014  19:48:00       41.691      -61.265        6.988       48.051       68.192       40.141     2308.896     4650.115     1611.301        0.705        0.429       74.105       36.608        0.244      339.385       12.682      852.471
02/26/2014  19:49:00      -20.179      -71.881       10.147       50.734       59.493       45.784     2573.950     3539.469     2096.170        0.694        0.410       74.660       19.588        0.069      339.474       12.832      852.462
02/26/2014  19:50:00       -4.796      -21.653       44.440       76.382       77.234       71.814     5834.163     5965.083     5157.273        0.971        0.848       22.178       60.223        7.374      339.380       12.673      852.438
02/26/2014  19:51:00      -15.053      -39.020        8.691       66.069       70.038       36.461     4365.118     4905.359     1329.422        0.621        0.530       41.823       17.392        0.173      339.376       12.668      852.436
02/26/2014  19:52:00       50.034     -183.981      -34.753       83.148       90.953       40.233     6913.669     8272.436     1618.713        2.718        0.840      190.663       31.106        0.027      339.390       12.688      852.451
02/26/2014  19:53:00       78.735     -127.189       -2.139      105.639       92.183       67.247    11159.569     8497.625     4522.116        2.328        1.209      149.587       65.211        0.190      339.442       12.777      852.456
02/26/2014  19:54:00       81.386      -94.709       31.097       95.899      150.124       88.510     9196.637    22537.350     7834.097        2.806        1.978      124.874       94.589        0.574      339.422       12.742      852.456
02/26/2014  19:55:00      116.929     -208.341       24.668      105.532      143.343       69.561    11136.998    20547.255     4838.718        4.710        1.826      238.911       70.642        0.087      339.365       12.646      852.465
02/26/2014  19:56:00       32.058      -65.686       34.236       70.880      101.524       64.084     5023.988    10307.184     4106.791        1.297        0.972       73.092       65.907        0.813      339.371       12.658      852.478
02/26/2014  19:57:00       70.385     -255.425      -38.210       90.394      107.923       66.076     8171.124    11647.315     4365.987        4.792        1.209      264.945       61.164        0.053      339.355       12.627      852.484
02/26/2014  19:58:00       -3.466     -157.079      -26.091       73.287       98.717       66.518     5370.926     9744.955     4424.605        2.245        0.977      157.117       58.150        0.137      339.413       12.728      852.498
02/26/2014  19:59:00      105.102     -224.809      -25.543      108.613      110.268       54.766    11796.750    12158.925     2999.355        4.459        1.348      248.164       44.816        0.033      339.340       12.603      852.502
02/26/2014  20:00:00       65.461     -145.840       23.192       80.556      186.212       75.785     6489.211    34674.806     5743.397        3.649        2.345      159.858       95.244        0.355      339.315       12.561      852.510
02/26/2014  20:01:00      116.593      -97.853       29.218       94.152      118.029       67.440     8864.652    13930.892     4548.145        2.568        1.367      152.214       76.190        0.251      339.287       12.515      852.512
02/26/2014  20:02:00      179.913     -168.328       -7.696       99.376       98.422       56.273     9875.664     9686.824     3166.657        4.174        1.136      246.379       61.161        0.062      339.314       12.559      852.530
02/26/2014  20:03:00       48.608      -54.356       43.340       81.628       89.555       48.077     6663.167     8020.032     2311.388        1.209        0.850       72.920       59.954        0.676      339.387       12.685      852.543
02/26/2014  20:04:00       62.712     -135.919       27.286       91.100       96.678       71.003     8299.300     9346.649     5041.391        2.291        1.134      149.689       55.272        0.136      339.398       12.702      852.565
02/26/2014  20:05:00      -47.908      -60.412       18.119       87.953       45.006       32.843     7735.683     2025.518     1078.661        0.855        0.542       77.102       39.935        0.268      339.408       12.721      852.598
02/26/2014  20:06:00     -154.943     -151.023        9.811      110.517       75.626       50.164    12214.003     5719.366     2516.424        3.368        1.022      216.369       49.811        0.053      339.253       12.456      852.611
02/26/2014  20:07:00     -215.420     -122.422      -13.371       90.192       82.752       45.258     8134.579     6847.940     2048.288        3.930        0.852      247.776       43.685        0.031      339.171       12.319      852.591
02/26/2014  20:08:00     -159.762     -120.118      -14.019       59.418       67.117       31.461     3530.509     4504.716      989.814        2.459        0.451      199.881       31.131        0.024      339.170       12.317      852.590
02/26/2014  20:09:00     -208.967     -133.757      -10.788       81.373       60.552       44.541     6621.505     3666.489     1983.900        3.697        0.614      248.109       38.412        0.024      339.156       12.291      852.613
02/26/2014  20:10:00     -193.250     -127.277        1.970      118.480       76.403       46.102    14037.616     5837.463     2125.357        3.777        1.100      231.398       51.815        0.050      339.147       12.278      852.646
02/26/2014  20:11:00     -173.425     -144.713       -3.734       78.099       84.148       44.125     6099.465     7080.815     1946.989        3.308        0.756      225.872       28.505        0.016      339.136       12.260      852.666
02/26/2014  20:12:00     -218.112      -78.435      -12.170       77.139       72.192       38.211     5950.436     5211.629     1460.083        3.325        0.631      231.787       32.053        0.019      339.130       12.250      852.643
02/26/2014  20:13:00     -159.115        4.149       -1.197       86.507       53.060       36.644     7483.442     2815.376     1342.790        1.849        0.582      159.169       35.898        0.051      339.304       12.543      852.628
02/26/2014  20:14:00     -146.432       -4.083      -11.066       53.950       56.630       33.815     2910.549     3206.981     1143.425        1.442        0.363      146.489       30.066        0.042      339.225       12.410      852.648
02/26/2014  20:15:00     -126.849        3.319       -9.551       85.541       52.679       38.718     7317.280     2775.077     1499.063        1.389        0.580      126.893       43.189        0.116      339.264       12.479      852.679
02/26/2014  20:16:00     -130.936      -70.119       11.984      128.095       75.778       39.964    16408.443     5742.321     1597.123        2.297        1.187      148.529       58.791        0.157      339.173       12.322      852.695
02/26/2014  20:17:00     -134.221      -52.001        9.002       81.177       62.037       49.573     6589.685     3848.542     2457.499        1.685        0.645      143.942       42.354        0.087      339.180       12.335      852.707
02/26/2014  20:18:00     -169.046     -109.523        0.017      101.066       66.896       49.586    10214.349     4475.066     2458.774        2.886        0.857      201.424       49.553        0.061      339.121       12.233      852.705
02/26/2014  20:19:00     -205.176      -56.360       -5.660      100.580       74.968       49.616    10116.377     5620.146     2461.733        3.175        0.910      212.776       56.439        0.070      339.099       12.198      852.715
02/26/2014  20:20:00     -207.491     -108.404       -6.730       97.842      109.338       48.936     9573.041    11954.790     2394.763        3.938        1.196      234.103       48.492        0.043      339.062       12.136      852.744
02/26/2014  20:21:00     -228.438      -55.378       -1.882      134.771      124.347       50.975    18163.137    15462.125     2598.424        4.573        1.811      235.055       42.695        0.033      339.056       12.125      852.758
02/26/2014  20:22:00     -207.026      -35.460       -4.620      148.762      117.890       56.805    22129.985    13897.941     3226.838        4.169        1.963      210.041       57.828        0.076      338.990       12.016      852.778
02/26/2014  20:23:00     -272.644     -168.353       -9.469      164.317      138.266       73.616    26999.996    19117.374     5419.341        7.714        2.577      320.433       70.974        0.049      338.793       11.683      852.782
02/26/2014  20:24:00     -409.265     -113.856      -11.187      224.836      190.476       90.471    50551.102    36281.025     8185.071       13.778        4.751      424.807      107.682        0.064      338.600       11.359      852.788
02/26/2014  20:25:00     -179.881      -64.159        3.633      168.668      102.568       70.084    28448.763    10520.098     4911.774        4.018        2.194      190.981       84.263        0.195      338.647       11.439      852.781
02/26/2014  20:26:00     -308.105      -86.317      -19.739      177.486      169.802       60.848    31501.227    28832.575     3702.517        8.339        3.202      319.968       54.875        0.029      338.508       11.203      852.791
02/26/2014  20:27:00     -496.493     -114.143      -32.802      285.411      193.965       98.526    81459.326    37622.570     9707.415       19.467        6.439      509.445      120.238        0.056      338.404       11.031      852.756
02/26/2014  20:28:00     -622.839     -126.655      -18.626      229.567      177.568       87.499    52700.984    31530.420     7656.095       24.808        4.594      635.586       90.425        0.020      338.264       10.794      852.804
02/26/2014  20:29:00     -413.287     -175.245       -4.035      253.048      171.760       81.026    64033.253    29501.601     6565.163       15.080        5.005      448.907      100.159        0.050      338.267       10.801      852.845
02/26/2014  20:30:00     -173.912      -45.290       28.982      186.782      135.299       84.281    34887.428    18305.931     7103.239        4.670        3.015      179.713      107.770        0.360      338.331       10.907      852.865
02/26/2014  20:31:00     -392.331     -180.495      -16.101      339.581      223.421      117.741   115315.417    49916.750    13862.886       18.289        8.955      431.859      133.084        0.095      338.148       10.599      852.808
02/26/2014  20:32:00     -290.318      -56.966        3.110      175.813      164.910       92.994    30910.345    27195.184     8647.969        7.713        3.338      295.854       81.901        0.077      338.159       10.618      852.850
02/26/2014  20:33:00     -403.932     -107.538       -8.927      230.692      142.611       93.736    53218.948    20337.816     8786.490       12.856        4.117      418.002       87.031        0.043      338.095       10.512      852.865
02/26/2014  20:34:00     -390.179      -35.180        1.035      273.977      179.107       77.086    75063.669    32079.215     5942.179       13.326        5.654      391.762       93.584        0.057      338.061       10.453      852.857
02/26/2014  20:35:00     -332.084     -146.351      -10.890      218.039      208.524       97.041    47541.086    43482.137     9417.005       11.611        5.022      362.903      104.575        0.083      337.977       10.313      852.862
02/26/2014  20:36:00     -332.915      -21.489      -27.798      228.440      124.874       77.083    52184.956    15593.447     5941.856        9.288        3.686      333.607       98.336        0.087      337.970       10.301      852.898
02/26/2014  20:37:00     -455.307     -152.793      -10.503      340.734      182.979      101.877   116099.771    33481.327    10378.931       19.533        7.998      480.261      132.355        0.076      337.892       10.170      852.877
02/26/2014  20:38:00     -486.764     -129.058      -21.213      252.120      210.588      101.126    63564.341    44347.452    10226.417       18.607        5.907      503.582      120.169        0.057      337.819       10.048      852.886
02/26/2014  20:39:00     -230.362     -171.257       25.108      238.425      200.183       89.368    56846.501    40073.355     7986.576        9.395        5.245      287.047      113.082        0.155      337.819       10.048      852.934
02/26/2014  20:40:00     -151.286      -61.774       13.956      139.112      117.797       68.259    19352.198    13876.129     4659.243        3.239        1.894      163.412       58.012        0.126      337.842       10.086      852.937
02/26/2014  20:41:00     -777.006     -169.520      -42.776      331.702      204.789      105.422   110026.265    41938.604    11113.767       39.866        8.154      795.283      119.617        0.023      337.597        9.674      852.909
02/26/2014  20:42:00     -540.260     -187.568       -7.385      302.452      180.094      107.631    91477.511    32433.988    11584.399       23.128        6.775      571.894      129.838        0.052      337.524        9.552      852.877
02/26/2014  20:43:00     -589.250     -132.942      -11.775      301.678      244.983      103.807    91009.382    60016.516    10775.940       26.338        8.090      604.061      114.062        0.036      337.505        9.520      852.865
02/26/2014  20:44:00     -588.106      -75.421      -33.334      309.408      189.319      110.562    95733.176    35841.817    12223.888       24.820        7.190      592.922      142.630        0.058      337.469        9.460      852.845
02/26/2014  20:45:00     -438.721     -150.373       -4.401      317.297      233.923      132.969   100677.668    54720.079    17680.848       19.406        8.654      463.775      166.337        0.129      337.431        9.397      852.827
02/26/2014  20:46:00     -344.984     -104.852       -1.928      256.405      214.760      114.121    65743.420    46121.809    13023.535       12.743        6.244      360.566      127.965        0.126      337.410        9.362      852.849
02/26/2014  20:47:00     -461.148     -175.932      -21.635      189.287      171.974       83.039    35829.682    29575.141     6895.540       15.817        3.615      493.568       86.881        0.031      337.360        9.278      852.862
02/26/2014  20:48:00     -389.292     -103.201      -24.249      305.228      185.470      103.305    93163.888    34399.207    10671.991       15.048        6.912      402.739      139.083        0.119      337.362        9.283      852.829
02/26/2014  20:49:00     -516.017     -185.947       -3.396      330.951      206.320      115.946   109528.700    42568.038    13443.522       23.317        8.277      548.498      144.772        0.070      337.352        9.264      852.789
02/26/2014  20:50:00     -643.197      -70.260      -32.809      342.480      238.778      127.542   117292.246    57014.918    16267.061       30.511        9.529      647.023      156.156        0.058      337.280        9.144      852.797
02/26/2014  20:51:00     -607.283      -46.764      -43.173      241.265      189.673      103.616    58208.844    35975.725    10736.177       23.886        5.246      609.081      120.701        0.039      337.303        9.183      852.844
02/26/2014  20:52:00     -492.109      -75.563      -26.123      278.668      169.920      112.399    77655.918    28872.939    12633.532       18.384        5.958      497.876      126.749        0.065      337.288        9.159      852.835
02/26/2014  20:53:00     -493.648     -101.953       11.180      261.099      186.129      102.092    68172.931    34644.113    10422.761       18.370        5.662      504.066      126.091        0.063      337.230        9.061      852.865
02/26/2014  20:54:00     -555.670     -116.096      -45.449      220.250      175.693       79.695    48509.861    30867.878     6351.236       20.500        4.286      567.669       86.267        0.023      337.198        9.006      852.907
02/26/2014  20:55:00     -429.877     -117.502      -13.084      211.219      195.481       93.226    44613.601    38212.750     8691.096       14.513        4.576      445.647       94.491        0.045      337.210        9.027      852.880
02/26/2014  20:56:00     -373.121      -95.111      -21.179      184.852      178.806       83.269    34170.090    31971.660     6933.801       11.088        3.654      385.052       71.908        0.035      337.203        9.014      852.919
02/26/2014  20:57:00     -373.888     -173.598        4.720      277.068      193.756      103.469    76766.936    37541.554    10705.847       14.746        6.251      412.224      124.747        0.092      337.112        8.864      852.899
02/26/2014  20:58:00     -315.449      -85.398        1.544      237.944      168.680      105.624    56617.522    28452.885    11156.523       10.150        4.811      326.804      117.963        0.130      337.132        8.896      852.869
02/26/2014  20:59:00     -440.158      -29.092       -3.703      213.790      154.476       96.983    45706.040    23862.799     9405.650       13.677        3.949      441.118      115.205        0.068      337.125        8.883      852.889
02/26/2014  21:00:00     -446.621      -45.906       -6.335      205.330      159.068       86.778    42160.446    25302.483     7530.405       13.829        3.750      448.974      102.985        0.053      337.063        8.780      852.944
02/26/2014  21:01:00     -306.649      -75.107        3.325      194.703      171.624       83.080    37909.153    29454.806     6902.240        8.696        3.713      315.713       85.596        0.074      337.089        8.825      853.042
02/26/2014  21:02:00     -154.680      -73.535       23.369      207.716      155.627       97.191    43146.063    24219.790     9446.119        5.333        3.841      171.270      113.138        0.436      337.072        8.794      853.077
02/26/2014  21:03:00     -195.994      -34.638       23.161      185.551      118.106       79.883    34429.317    13949.133     6381.353        4.744        2.738      199.031       72.951        0.134      337.005        8.685      853.113
02/26/2014  21:04:00     -236.114     -109.549       12.024      227.076      126.083       85.198    51563.385    15896.916     7258.783        7.129        3.736      260.289      110.721        0.181      336.949        8.590      853.166
02/26/2014  21:05:00     -289.186      -62.726      -18.089      158.769      117.294       73.257    25207.595    13757.908     5366.590        6.610        2.217      295.911       79.168        0.072      336.949        8.590      853.156
02/26/2014  21:06:00     -385.206     -155.107      -12.375      189.124      118.431       74.871    35767.701    14025.953     5605.640       11.399        2.770      415.261       85.169        0.042      336.868        8.456      853.141
02/26/2014  21:07:00     -438.656      -83.828      -13.494      180.588      142.709       74.337    32611.979    20365.767     5526.050       12.905        2.925      446.594       86.608        0.038      336.887        8.487      853.137
02/26/2014  21:08:00     -322.877      -65.035       13.420      155.246      126.199       78.848    24101.282    15926.169     6216.998        7.744        2.312      329.361       80.783        0.060      336.877        8.471      853.169
02/26/2014  21:09:00     -353.411      -14.500      -21.142      156.316      107.220       65.485    24434.803    11496.049     4288.255        8.288        2.011      353.708       79.647        0.051      336.903        8.514      853.220
02/26/2014  21:10:00     -366.698      -75.915       -4.011      165.061      181.414       77.699    27245.222    32911.120     6037.143       10.321        3.310      374.473       82.915        0.049      336.846        8.418      853.242
02/26/2014  21:11:00     -379.153      -52.377      -18.990       93.779      109.473       55.120     8794.432    11984.296     3038.176        8.533        1.191      382.754       47.375        0.015      336.806        8.352      853.295
02/26/2014  21:12:00     -330.526      -62.473      -17.847      141.929      137.636       70.861    20143.892    18943.563     5021.317        7.878        2.205      336.378       71.321        0.045      336.813        8.364      853.329
02/26/2014  21:13:00     -150.382      -74.357       23.801      141.471      114.969       62.940    20013.904    13217.969     3961.455        3.294        1.860      167.761       74.144        0.195      336.790        8.326      853.343
02/26/2014  21:14:00     -363.848     -102.584      -24.397      117.840      122.786       59.759    13886.375    15076.299     3571.167        8.801        1.627      378.033       54.657        0.021      336.750        8.258      853.282
02/26/2014  21:15:00     -294.316       15.912      -27.170      126.598       78.507       56.652    16027.035     6163.309     3209.480        5.650        1.270      294.745       51.919        0.031      336.787        8.320      853.018
02/26/2014  21:16:00     -196.413       50.061      -15.994       97.581      104.547       48.942     9522.021    10929.999     2395.273        3.209        1.142      202.692       46.900        0.054      336.722        8.211      852.625
02/26/2014  21:17:00     -103.874       -3.515       -5.586       63.757       52.604       35.475     4065.010     2767.190     1258.511        0.946        0.405      103.933       36.069        0.120      337.087        8.824      852.424
02/26/2014  21:18:00     -229.497      -71.756      -11.173      135.471       91.910       55.946    18352.347     8447.479     3129.913        4.393        1.496      240.453       43.695        0.033      336.866        8.452      852.506
02/26/2014  21:19:00     -314.949      -60.431      -10.850      106.651       76.314       46.597    11374.344     5823.830     2171.286        6.116        0.968      320.695       49.853        0.024      336.654        8.099      852.679
02/26/2014  21:20:00     -342.119      -73.917      -19.354       77.421       57.414       38.365     5993.973     3296.370     1471.861        6.682        0.538      350.013       26.919        0.006      336.572        7.962      852.857
02/26/2014  21:21:00     -284.507      -78.395       -4.796      121.876      121.969       62.351    14853.693    14876.375     3887.660        6.036        1.681      295.110       62.249        0.044      336.649        8.091      852.929
02/26/2014  21:22:00     -473.485      -40.371      -12.285      211.915      113.857       76.371    44908.026    12963.370     5832.589       14.482        3.185      475.203       87.176        0.034      336.706        8.185      852.901
02/26/2014  21:23:00     -385.936      -67.076       -4.948      126.297      121.247       64.151    15950.921    14700.856     4115.388        9.411        1.738      391.722       70.781        0.033      336.675        8.134      852.860
02/26/2014  21:24:00     -351.835      -80.517       -7.079      120.348       82.053       48.930    14483.750     6732.619     2394.150        7.696        1.181      360.931       53.920        0.022      336.634        8.066      852.816
02/26/2014  21:25:00     -267.773      -60.112       -9.015       78.875       70.935       40.252     6221.197     5031.708     1620.195        4.413        0.644      274.438       40.095        0.021      336.660        8.107      852.769
02/26/2014  21:26:00     -223.969      -94.353      -23.086       79.077       56.284       36.108     6253.124     3167.865     1303.802        3.516        0.536      243.032       38.696        0.025      336.701        8.176      852.750
02/26/2014  21:27:00     -153.631      -52.468        3.425       59.838       64.113       30.839     3580.572     4110.441      951.033        1.750        0.432      162.344       31.677        0.038      336.650        8.094      852.715
02/26/2014  21:28:00     -192.662      -33.117       -8.525       37.090       39.677       25.053     1375.668     1574.244      627.661        2.093        0.179      195.488       22.268        0.013      336.699        8.177      852.675
02/26/2014  21:29:00     -179.047      -42.236       -6.007       54.690       42.144       31.216     2991.045     1776.091      974.450        1.981        0.287      183.962       26.150        0.020      336.726        8.221      852.691
02/26/2014  21:30:00     -231.442      -54.513      -19.162       26.526       34.131       19.723      703.631     1164.893      389.009        2.958        0.113      237.775       11.165        0.002      336.908        8.520      852.726
02/26/2014  21:31:00     -143.266      -66.238       -9.397       66.071       38.548       25.137     4365.423     1485.968      631.874        1.574        0.324      157.837       31.508        0.040      336.891        8.494      852.738
02/26/2014  21:32:00      -94.167      -51.849        3.502       45.376       24.900       21.897     2058.997      620.020      479.475        0.736        0.158      107.498       19.258        0.032      336.895        8.503      852.729
02/26/2014  21:33:00      -59.021      -35.082        6.732       38.701       30.641       19.563     1497.770      938.864      382.695        0.379        0.141       68.660       18.420        0.072      336.947        8.590      852.688
02/26/2014  21:34:00      -78.160      -30.591       -7.189       40.201       17.441       17.015     1616.134      304.175      289.503        0.465        0.110       83.933       23.606        0.079      336.971        8.628      852.653
02/26/2014  21:35:00      -48.328      -23.434       -0.175       23.018       13.359       13.145      529.822      178.453      172.786        0.188        0.044       53.710       14.760        0.076      336.994        8.668      852.561
02/26/2014  21:36:00       -6.485       32.079       10.814       18.227       30.461       17.912      332.214      927.889      320.826        0.138        0.079       32.728       16.952        0.268      336.996        8.670      852.452
02/26/2014  21:37:00       24.393       59.927       -9.026       18.645       31.575       17.566      347.630      996.973      308.572        0.296        0.083       64.701       18.148        0.079      336.922        8.547      852.343
02/26/2014  21:38:00       62.907       39.486       -0.626       23.406       18.001       24.900      547.858      324.028      620.005        0.350        0.075       74.272        8.185        0.012      336.912        8.532      852.266
02/26/2014  21:39:00       40.155       49.364       20.066       18.571       21.242       24.597      344.884      451.221      605.017        0.293        0.070       63.633       16.584        0.068      336.875        8.470      852.204
02/26/2014  21:40:00       -1.371        1.263        9.859       13.955       24.217       13.418      194.729      586.487      180.045        0.053        0.048        1.864       13.954       56.020      336.771        8.298      852.171
02/26/2014  21:41:00       -3.282       30.331        0.886       21.643       22.194       17.276      468.433      492.588      298.474        0.110        0.063       30.508       12.363        0.164      336.822        8.383      852.177
02/26/2014  21:42:00       -3.168       20.236        5.713       28.911       28.884       15.197      835.869      834.265      230.936        0.118        0.095       20.483       14.214        0.482      337.100        8.846      852.187
02/26/2014  21:43:00      -13.533       48.655       -2.298       33.905       14.106       15.489     1149.534      198.992      239.906        0.207        0.079       50.502       11.740        0.054      337.096        8.838      852.184
02/26/2014  21:44:00       45.988       57.025       -3.662       28.407       34.733       25.677      806.941     1206.384      659.297        0.403        0.134       73.258       20.297        0.077      336.856        8.437      852.193
02/26/2014  21:45:00       24.866      117.420      -21.864       16.607       20.448       11.715      275.783      418.139      137.246        0.786        0.042      120.025        9.806        0.007      336.887        8.489      852.207
02/26/2014  21:46:00        0.746      111.656      -22.564       21.349       15.358        9.067      455.761      235.854       82.206        0.688        0.039      111.659       10.036        0.008      336.978        8.642      852.208
02/26/2014  21:47:00      -17.296       96.384      -15.805       19.531       58.061       16.988      381.442     3371.093      288.604        0.694        0.202       97.924       25.822        0.070      337.158        8.941      852.211
02/26/2014  21:48:00      -21.891       45.380       -4.949       26.856       43.093       15.300      721.244     1856.994      234.086        0.269        0.141       50.385        9.447        0.035      337.248        9.094      852.236
02/26/2014  21:49:00      -26.334        2.140       -6.011       16.379       19.012       14.349      268.277      361.475      205.903        0.078        0.042       26.421        5.967        0.051      337.234        9.070      852.238
02/26/2014  21:50:00       -7.627       69.577       -9.179       31.132       25.609       17.866      969.191      655.810      319.204        0.346        0.097       69.994       11.999        0.029      337.267        9.125      852.225
02/26/2014  21:51:00        9.461       64.606        0.358       35.942       32.180       21.878     1291.841     1035.562      478.635        0.353        0.140       65.295       19.436        0.089      337.226        9.058      852.220
02/26/2014  21:52:00       68.815       27.533       -1.680       20.222       14.910       21.874      408.931      222.300      478.458        0.330        0.055       74.119       12.818        0.030      336.996        8.672      852.226
02/26/2014  21:53:00       86.657       46.177       32.351       38.575       34.830       30.222     1488.064     1213.157      913.363        0.715        0.181       98.193       17.851        0.033      337.028        8.726      852.225
02/26/2014  21:54:00       75.165       59.355       33.502       46.709       32.950       29.187     2181.719     1085.687      851.908        0.721        0.206       95.775       28.946        0.091      337.041        8.746      852.212
02/26/2014  21:55:00       64.188       89.435       68.070       35.277       25.739       28.893     1244.492      662.482      834.824        0.975        0.137      110.084       21.345        0.038      337.044        8.750      852.181
02/26/2014  21:56:00       98.560       74.011       46.526       51.361       35.916       36.085     2637.919     1289.959     1302.140        1.129        0.262      123.255       27.074        0.048      337.148        8.926      852.129
02/26/2014  21:57:00      130.232       70.662       30.761       58.077       41.104       46.994     3372.950     1689.575     2208.432        1.508        0.364      148.167       41.337        0.078      337.099        8.844      852.087
02/26/2014  21:58:00       97.629       54.082       39.835       61.280       53.425       55.257     3755.281     2854.229     3053.297        1.185        0.483      111.608       39.864        0.128      337.145        8.921      852.043
02/26/2014  21:59:00      101.661       42.526       46.519       43.201       44.782       43.256     1866.302     2005.399     1871.105        1.002        0.287      110.197       28.137        0.065      337.026        8.721      852.013
02/26/2014  22:00:00      127.416       60.447       30.419       59.301       40.631       37.227     3516.604     1650.843     1385.841        1.368        0.328      141.028       34.556        0.060      336.989        8.659      852.018
02/26/2014  22:01:00      137.816       39.452        4.526       55.071       48.322       34.887     3032.863     2335.024     1217.104        1.358        0.329      143.351       24.158        0.028      337.001        8.680      852.028
02/26/2014  22:02:00      135.356       51.427       18.054       60.494       40.732       34.433     3659.582     1659.100     1185.607        1.390        0.325      144.797       34.436        0.057      336.890        8.495      852.043
02/26/2014  22:03:00       66.962       22.180       21.131       50.589       41.173       28.674     2559.243     1695.186      822.220        0.525        0.254       70.540       21.682        0.094      336.833        8.401      852.044
02/26/2014  22:04:00       68.645       42.824       31.156       56.058       54.128       38.695     3142.457     2929.877     1497.291        0.754        0.378       80.907       32.330        0.160      336.900        8.512      852.043
02/26/2014  22:05:00       56.730       41.737       53.990       60.617       58.471       40.112     3674.450     3418.907     1608.944        0.829        0.435       70.429       39.263        0.311      336.983        8.649      852.033
02/26/2014  22:06:00       72.414       50.675       67.871       38.123       34.126       23.897     1453.337     1164.567      571.081        0.780        0.159       88.384       12.196        0.019      336.962        8.613      852.043
02/26/2014  22:07:00       72.161       32.002       52.820       58.575       35.790       32.245     3430.978     1280.890     1039.716        0.739        0.288       78.939       26.340        0.111      337.001        8.678      852.026
02/26/2014  22:08:00      104.592       64.718       35.597       57.806       37.902       37.827     3341.535     1436.594     1430.873        1.130        0.310      122.995       28.831        0.055      337.021        8.713      851.986
02/26/2014  22:09:00      101.269       80.974       61.035       60.275       43.800       50.899     3633.068     1918.422     2590.745        1.434        0.407      129.662       44.717        0.119      337.066        8.788      851.959
02/26/2014  22:10:00      124.546       66.713       43.470       42.390       47.579       35.722     1796.942     2263.759     1276.034        1.359        0.267      141.288       21.653        0.023      336.996        8.670      851.950
02/26/2014  22:11:00       94.958       76.999       70.541       56.716       41.695       42.594     3216.733     1738.491     1814.218        1.334        0.338      122.253       30.300        0.061      337.008        8.691      851.960
02/26/2014  22:12:00      135.340       84.387       48.898       54.732       51.763       47.333     2995.622     2679.437     2240.417        1.787        0.396      159.493       32.454        0.041      337.051        8.762      851.963
02/26/2014  22:13:00      159.392       96.125       37.600       73.510       53.566       48.080     5403.768     2869.363     2311.672        2.332        0.529      186.134       36.437        0.038      336.982        8.646      851.942
02/26/2014  22:14:00      140.286       42.812       23.075       87.030       71.771       48.764     7574.174     5151.037     2377.903        1.857        0.755      146.673       37.496        0.065      337.187        8.991      851.949
02/26/2014  22:15:00      174.876       85.849       31.931       74.855       60.468       51.451     5603.312     3656.342     2647.200        2.544        0.595      194.812       38.174        0.038      337.288        9.157      851.973
02/26/2014  22:16:00       89.282       61.940       64.618       44.899       34.357       33.193     2015.934     1180.419     1101.789        1.014        0.215      108.664       19.563        0.032      337.022        8.714      852.002
02/26/2014  22:17:00       46.669       52.577       74.917       58.077       51.803       40.003     3372.949     2683.548     1600.239        0.910        0.383       70.302       32.770        0.217      337.158        8.945      852.045
02/26/2014  22:18:00       86.420      -95.366        6.274       69.456       84.090       32.840     4824.110     7071.196     1078.468        1.479        0.649      128.697       41.687        0.105      337.286        9.154      852.066
02/26/2014  22:19:00       42.371     -181.932        3.071       72.061       89.398       52.662     5192.775     7992.036     2773.244        2.543        0.798      186.801       37.854        0.041      337.688        9.829      852.069
02/26/2014  22:20:00      168.968     -244.855      -41.910       63.799       61.555       43.896     4070.359     3788.980     1926.865        5.002        0.489      297.496       30.374        0.010      337.690        9.831      852.088
02/26/2014  22:21:00      103.126     -178.889      -29.142       83.639       92.064       55.996     6995.532     8475.753     3135.544        3.104        0.930      206.486       51.875        0.063      337.648        9.761      852.193
02/26/2014  22:22:00       82.871     -108.863       12.845       59.871       86.482       53.641     3584.524     7479.060     2877.335        1.641        0.697      136.817       45.802        0.112      337.636        9.744      852.240
02/26/2014  22:23:00       53.300      -25.257       35.620       65.758       64.489       35.159     4324.067     4158.821     1236.168        0.723        0.486       58.981       47.189        0.640      337.527        9.560      852.163
02/26/2014  22:24:00       94.786     -175.043      -15.691       73.048       76.704       56.730     5336.054     5883.445     3218.251        2.715        0.722      199.059       49.334        0.061      337.490        9.496      852.133
02/26/2014  22:25:00       40.555       91.188      132.981       66.475       81.330       42.972     4418.913     6614.544     1846.601        2.026        0.644       99.800       40.667        0.166      337.445        9.423      852.202
02/26/2014  22:26:00       61.776      -27.332       51.888       70.405       66.759       51.813     4956.847     4456.758     2684.610        0.967        0.605       67.552       42.950        0.404      337.466        9.460      852.278
02/26/2014  22:27:00       33.606       22.960       87.835       74.145       94.632       56.197     5497.505     8955.147     3158.050        1.349        0.881       40.700       66.495        2.669      337.422        9.384      852.347
02/26/2014  22:28:00      113.960     -170.156      -18.800       86.051       85.866       57.018     7404.828     7372.937     3251.058        3.016        0.901      204.792       37.017        0.033      337.495        9.504      852.437
02/26/2014  22:29:00      159.513     -258.645      -17.233      170.031      171.429       87.431    28910.688    29387.902     7644.261        7.928        3.297      303.878       85.499        0.079      337.680        9.815      852.496
02/26/2014  22:30:00      163.340     -263.628      -41.913      110.265      113.899       57.609    12158.271    12972.892     3318.815        6.319        1.422      310.128       66.452        0.046      337.651        9.766      852.567
02/26/2014  22:31:00       61.565     -130.318      -21.904      108.225       86.599       53.624    11712.636     7499.308     2875.494        2.167        1.104      144.128       54.350        0.142      337.592        9.669      852.650
02/26/2014  22:32:00       79.434      -88.252       24.685      103.155      138.312       75.811    10640.873    19130.324     5747.241        2.511        1.776      118.735       88.846        0.560      337.464        9.455      852.727
02/26/2014  22:33:00      111.631      -67.156       21.866       77.658       96.906       56.136     6030.731     9390.778     3151.278        1.801        0.929      130.275       70.104        0.290      337.410        9.364      852.760
02/26/2014  22:34:00       -6.421      -96.454        3.989       79.842      102.892       44.871     6374.755    10586.793     2013.396        1.416        0.949       96.668       48.634        0.253      337.588        9.663      852.822
02/26/2014  22:35:00       30.020     -137.551       22.044       83.356      166.718       62.899     6948.144    27794.938     3956.316        2.950        1.935      140.789       87.123        0.383      337.531        9.566      852.768
02/26/2014  22:36:00      -33.003      -28.223       25.478      142.499       75.815       47.675    20305.862     5747.971     2272.912        1.543        1.416       43.425       30.681        0.499      337.428        9.394      852.574
02/26/2014  22:37:00       47.499     -135.940       -4.562       71.202      106.876       60.055     5069.677    11422.556     3606.545        2.042        1.005      143.999       72.357        0.252      337.274        9.135      852.429
02/26/2014  22:38:00        8.032       78.127      114.147       40.489       54.717       49.320     1639.325     2993.944     2432.444        1.313        0.353       78.539       40.685        0.268      337.099        8.844      852.425
02/26/2014  22:39:00       32.460     -126.711      -14.215       66.308       75.540       53.578     4396.795     5706.335     2870.595        1.514        0.649      130.803       30.221        0.053      337.217        9.042      852.548
02/26/2014  22:40:00      -42.975        8.978        2.055       54.450       53.542       29.129     2964.762     2866.762      848.476        0.430        0.334       43.903       27.419        0.390      337.285        9.155      852.571
02/26/2014  22:41:00      -95.584     -128.705      -19.760      116.008       77.128       41.114    13457.763     5948.701     1690.368        2.359        1.055      160.316       37.120        0.054      337.178        8.975      852.408
02/26/2014  22:42:00       -9.334        3.369       30.780       18.397       44.674       31.568      338.451     1995.737      996.545        0.219        0.167        9.923       30.525        9.462      337.125        8.889      852.282
02/26/2014  22:43:00      -11.218      -18.366       42.205       37.417       65.169       37.044     1400.051     4247.031     1372.232        0.463        0.351       21.521       41.181        3.662      337.089        8.828      852.229
02/26/2014  22:44:00      -76.383      -53.119       16.700       74.081       62.779       34.392     5487.960     3941.234     1182.837        0.977        0.531       93.038       33.876        0.133      337.045        8.752      852.267
02/26/2014  22:45:00     -105.852      -84.008        9.224       94.840       47.740       36.628     8994.704     2279.064     1341.601        1.548        0.631      135.137       43.930        0.106      336.947        8.590      852.301
02/26/2014  22:46:00      -56.922     -102.561       -6.242       50.606       38.649       28.998     2560.982     1493.738      840.860        0.935        0.245      117.299       16.356        0.019      336.985        8.654      852.336
02/26/2014  22:47:00      -66.370      -89.769      -13.992       41.152       39.480       21.163     1693.447     1558.639      447.885        0.818        0.185      111.639       19.664        0.031      336.943        8.583      852.354
02/26/2014  22:48:00      -16.696      -38.690       11.495       41.474       67.093       28.858     1720.086     4501.467      832.807        0.448        0.353       42.139       28.007        0.442      336.941        8.580      852.321
02/26/2014  22:49:00      -48.544      -45.536        6.553       68.947       52.490       29.780     4753.638     2755.245      886.865        0.643        0.420       66.558       31.484        0.224      336.885        8.487      852.304
02/26/2014  22:50:00      -51.192      -31.196        3.405       48.941       27.883       25.488     2395.241      777.477      649.659        0.371        0.191       59.949       25.806        0.185      336.889        8.492      852.294
02/26/2014  22:51:00      -40.246      -11.800        5.423       37.680       29.611       16.993     1419.781      876.838      288.754        0.219        0.129       41.940       17.985        0.184      336.879        8.475      852.284
02/26/2014  22:52:00     -109.795      -71.213        8.022       64.373       56.259       29.349     4143.887     3165.106      861.385        1.268        0.409      130.868       25.079        0.037      336.889        8.491      852.248
02/26/2014  22:53:00      -59.963      -55.810       -3.078       54.100       46.157       24.038     2926.791     2130.445      577.838        0.618        0.282       81.917       22.128        0.073      336.861        8.446      852.255
02/26/2014  22:54:00      -28.951      -37.564        7.057       27.525       27.690       16.517      757.641      766.719      272.825        0.205        0.090       47.426       16.637        0.123      336.822        8.383      852.242
02/26/2014  22:55:00      -26.925      -11.013       11.321       26.799       16.903       13.694      718.213      285.713      187.536        0.108        0.060       29.091       11.196        0.148      336.845        8.419      852.210
02/26/2014  22:56:00      -14.688       -9.997       -1.310       24.563       12.252       13.829      603.355      150.117      191.246        0.063        0.047       17.768        9.700        0.298      336.877        8.473      852.174
02/26/2014  22:57:00      -78.902      -15.531       -9.209       43.796       20.819       23.911     1918.054      433.433      571.741        0.474        0.146       80.416       25.766        0.103      336.861        8.447      852.126
02/26/2014  22:58:00      -90.186       11.154       -8.950       14.897       18.022       16.708      221.922      324.809      279.151        0.458        0.041       90.873        8.847        0.009      336.893        8.501      852.065
02/26/2014  22:59:00      -48.932       16.647        7.784       41.827       24.051       23.191     1749.529      578.443      537.842        0.280        0.143       51.686       23.756        0.211      337.242        9.083      852.034
02/26/2014  23:00:00      -83.905        5.716       -3.936       31.880       26.872       16.072     1016.310      722.087      258.320        0.454        0.100       84.100       15.004        0.032      337.091        8.831      852.059
02/26/2014  23:01:00      -51.213      -29.512       -0.563       17.260       10.688        9.307      297.907      114.228       86.617        0.200        0.025       59.107        3.517        0.004      336.900        8.512      852.085
02/26/2014  23:02:00      -29.719        0.344       -5.720       24.091       23.401       12.941      580.368      547.615      167.467        0.111        0.065       29.721       15.018        0.255      336.941        8.579      852.065
02/26/2014  23:03:00      -84.644      -15.501       -8.528       33.849       36.591       17.566     1145.780     1338.937      308.563        0.513        0.140       86.052       16.021        0.035      337.060        8.780      852.072
02/26/2014  23:04:00      -10.670      -67.136       20.697       50.758       36.818       28.809     2576.338     1355.578      829.952        0.490        0.238       67.979       19.171        0.080      336.895        8.504      852.100
02/26/2014  23:05:00      -25.173      -91.002        8.781       46.285       38.895       39.751     2142.266     1512.817     1580.119        0.711        0.262       94.419       23.710        0.063      337.072        8.799      852.104
02/26/2014  23:06:00       28.867        5.727       40.760       33.203       75.259       44.304     1102.450     5663.909     1962.842        0.563        0.436       29.429       47.889        2.648      337.063        8.784      852.094
02/26/2014  23:07:00      -31.476      -16.498       37.705       45.582       57.671       41.285     2077.687     3325.952     1704.476        0.489        0.355       35.538       46.486        1.711      337.019        8.710      852.110
02/26/2014  23:08:00      -48.893      -23.322       17.768       56.028       39.539       28.563     3139.110     1563.346      815.841        0.438        0.276       54.171       30.455        0.316      337.009        8.692      852.128
02/26/2014  23:09:00       17.690       15.215       21.381       49.568       65.497       29.902     2457.025     4289.890      894.109        0.432        0.382       23.333       36.212        2.409      337.014        8.700      852.085
02/26/2014  23:10:00       84.236      -44.150       24.766       71.340       84.425       57.257     5089.349     7127.617     3278.330        1.257        0.775       95.105       63.577        0.447      337.007        8.690      852.026
02/26/2014  23:11:00       90.201      -74.438       13.424       75.138      109.022       60.048     5645.670    11885.720     3605.726        1.749        1.057      116.950       82.339        0.496      336.941        8.577      851.988
02/26/2014  23:12:00       39.227      -15.911       22.343       49.021       63.161       44.548     2403.066     3989.281     1984.560        0.533        0.419       42.331       52.335        1.529      336.949        8.593      851.981
02/26/2014  23:13:00        5.166       25.000       46.419       27.443       41.578       34.897      753.140     1728.729     1217.774        0.325        0.185       25.528       30.388        1.417      336.934        8.569      851.932
02/26/2014  23:14:00       28.186       44.709       46.703       33.285       33.475       17.361     1107.885     1120.576      301.389        0.375        0.126       52.852       11.323        0.046      336.857        8.440      851.883
02/26/2014  23:15:00      -50.581      -19.246        5.571       46.467       33.328       23.630     2159.225     1110.755      558.353        0.339        0.191       54.119       17.774        0.108      337.043        8.750      851.895
02/26/2014  23:16:00        9.067       -8.935       11.724       40.462       26.892       18.857     1637.201      723.171      355.581        0.151        0.136       12.729       19.679        2.390      337.043        8.750      851.888
02/26/2014  23:17:00       71.363       47.722       28.354       30.768       21.007       19.551      946.698      441.275      382.255        0.497        0.089       85.849       15.008        0.031      336.874        8.468      851.838
02/26/2014  23:18:00       65.232       42.344        4.834       31.905       25.089       21.304     1017.940      629.450      453.858        0.409        0.105       77.770       19.008        0.060      336.863        8.449      851.799
02/26/2014  23:19:00      128.667       71.703       38.720       60.040       53.637       35.283     3604.752     2876.902     1244.864        1.546        0.386      147.297       26.898        0.033      336.835        8.403      851.754
02/26/2014  23:20:00       75.199      124.785      119.684       75.750       75.194       58.900     5738.114     5654.168     3469.239        2.520        0.743      145.692       55.683        0.146      336.805        8.350      851.642
02/26/2014  23:21:00      127.521      129.340      118.844       98.495       69.749       52.793     9701.281     4864.981     2787.146        3.223        0.868      181.633       45.463        0.063      336.776        8.300      851.523
02/26/2014  23:22:00       61.776      141.566      149.850       77.212       79.237       49.407     5961.726     6278.507     2441.097        3.049        0.734      154.458       42.223        0.075      336.724        8.216      851.542
02/26/2014  23:23:00       15.070        8.308       68.842       63.709      141.032       77.015     4058.831    19889.999     5931.352        1.745        1.494       17.208       98.363       32.673      336.810        8.362      851.663
02/26/2014  23:24:00      101.894     -208.364      -29.451       80.663       77.103       42.023     6506.590     5944.947     1765.918        3.444        0.711      231.944       39.002        0.028      336.826        8.386      851.778
02/26/2014  23:25:00      -27.798      -68.980       -8.168       54.157       45.127       34.025     2932.948     2036.443     1157.695        0.586        0.306       74.371        8.732        0.014      336.953        8.599      851.864
02/26/2014  23:26:00      -51.197      -20.049        7.545       58.228       47.345       27.875     3390.461     2241.568      777.041        0.474        0.320       54.983       22.128        0.162      336.952        8.599      851.861
02/26/2014  23:27:00      -35.466      -62.769      -17.078       33.960       36.787       25.436     1153.297     1353.252      646.983        0.432        0.158       72.096       11.835        0.027      336.848        8.423      851.789
02/26/2014  23:28:00       17.801       27.878       47.866       36.779       43.761       35.181     1352.674     1915.020     1237.669        0.394        0.225       33.076       36.099        1.191      336.896        8.505      851.750
02/26/2014  23:29:00       68.872      -80.953        9.218       59.383       78.396       45.504     3526.331     6146.009     2070.622        1.156        0.587      106.286       47.242        0.198      336.942        8.581      851.748
02/26/2014  23:30:00      -14.249      -10.598       32.287       37.582       69.793       50.769     1412.440     4871.046     2577.525        0.511        0.443       17.758       51.113        8.284      336.933        8.566      851.744
02/26/2014  23:31:00       53.455      -84.068      -12.847       57.906       66.165       45.524     3353.112     4377.832     2072.392        0.994        0.490       99.624       41.380        0.173      336.959        8.610      851.724
02/26/2014  23:32:00      113.188     -200.130      -47.156      124.335       99.124       51.457    15459.161     9825.630     2647.863        4.150        1.397      229.921       62.062        0.073      336.872        8.462      851.746
02/26/2014  23:33:00      -19.339     -197.191      -16.941      113.892      118.460       50.808    12971.398    14032.725     2581.482        3.456        1.479      198.137       30.607        0.024      336.977        8.637      851.773
02/26/2014  23:34:00      -17.823      -79.712       23.283       64.948       78.876       49.624     4218.305     6221.373     2462.581        1.006        0.645       81.680       32.894        0.162      337.049        8.760      851.758
02/26/2014  23:35:00       38.009      -41.390       30.840       56.477      107.215       74.827     3189.605    11494.955     5599.100        1.219        1.014       56.194       75.125        1.787      336.929        8.559      851.703
02/26/2014  23:36:00       27.707       27.049       91.593       53.131       51.026       46.223     2822.933     2603.645     2136.528        0.872        0.378       38.721       41.519        1.150      336.828        8.392      851.657
02/26/2014  23:37:00       53.415      -21.735       61.327       71.241      151.252       81.556     5075.295    22877.208     6651.377        2.084        1.730       57.668       94.395        2.679      336.806        8.352      851.588
02/26/2014  23:38:00       98.740     -136.628       23.854      109.267      165.989       93.181    11939.186    27552.330     8682.754        3.857        2.409      168.573      112.830        0.448      336.812        8.362      851.565
02/26/2014  23:39:00      107.778     -163.565       47.322      134.151      200.758      104.020    17996.405    40303.646    10820.229        5.485        3.456      195.881      132.482        0.457      336.829        8.391      851.580
02/26/2014  23:40:00       98.574     -159.847        2.090      108.738      166.772      106.211    11823.927    27812.857    11280.708        4.308        2.546      187.797      110.296        0.345      336.810        8.359      851.575
02/26/2014  23:41:00      100.254     -103.692       60.429      139.991      150.892      118.906    19597.537    22768.374    14138.683        4.047        2.825      144.232      105.021        0.530      336.793        8.332      851.565
02/26/2014  23:42:00       24.037       55.795      163.740       77.727      124.923       84.302     6041.504    15605.776     7106.795        2.962        1.438       60.753       60.536        0.993      336.796        8.336      851.607
02/26/2014  23:43:00       15.667       71.996      174.129       87.525      131.807       64.406     7660.616    17373.030     4148.146        3.246        1.459       73.681       72.051        0.956      336.779        8.306      851.658
02/26/2014  23:44:00       34.717       59.073      150.057      107.699      142.085       96.816    11599.057    20188.231     9373.317        3.418        2.058       68.519      103.822        2.296      336.768        8.289      851.676
02/26/2014  23:45:00      147.539     -143.768       -4.403      150.295      183.728      122.789    22588.576    33756.042    15077.105        5.692        3.571      206.002      118.351        0.330      336.771        8.294      851.701
02/26/2014  23:46:00      -33.354      -12.295       87.508       62.764       98.658       60.874     3939.263     9733.466     3705.678        1.315        0.869       35.548       49.434        1.934      336.806        8.353      851.738
02/26/2014  23:47:00       42.350      -91.363       65.651      111.090      159.379       82.600    12341.020    25401.652     6822.776        2.950        2.228      100.701       93.005        0.853      336.807        8.355      851.779
02/26/2014  23:48:00       84.844     -139.733       22.096      131.215      156.403      106.839    17217.483    24461.779    11414.571        4.014        2.655      163.474       93.468        0.327      336.801        8.346      851.753
02/26/2014  23:49:00       35.512      -96.603       62.885      105.227      194.413       81.723    11072.650    37796.422     6678.667        3.504        2.777      102.924      105.852        1.058      336.848        8.423      851.779
02/26/2014  23:50:00       98.470     -124.553       23.550       95.783      131.248       86.013     9174.375    17226.045     7398.246        2.977        1.690      158.776       66.651        0.176      336.840        8.407      851.797
02/26/2014  23:51:00       73.852      -41.893       63.764       89.465      126.075       71.654     8003.944    15894.784     5134.290        2.015        1.452       84.906       76.820        0.819      336.777        8.305      851.796
02/26/2014  23:52:00       29.149     -128.624       34.152       81.987       95.916       75.051     6721.920     9199.866     5632.691        2.005        1.078      131.885       63.920        0.235      336.843        8.415      851.821
02/26/2014  23:53:00      -23.066      -71.887        0.326       51.168       47.481       42.667     2618.130     2254.456     1820.457        0.620        0.335       75.497       18.917        0.063      336.892        8.498      851.890
02/26/2014  23:54:00       19.004      -94.192       11.579       47.290       63.339       46.186     2236.339     4011.779     2133.102        0.887        0.419       96.090       37.322        0.151      336.817        8.372      851.956
02/26/2014  23:55:00       28.554     -165.117       -0.269      117.773       75.472       54.832    13870.552     5696.067     3006.574        2.532        1.129      167.567       34.277        0.042      336.923        8.548      852.021
02/26/2014  23:56:00     -103.815     -110.647       20.140       97.859       93.821       50.954     9576.423     8802.401     2596.299        2.220        1.049      151.725       45.768        0.091      336.858        8.440      852.060
02/26/2014  23:57:00      -38.471      -93.646       -2.942       65.462       69.770       34.071     4285.325     4867.883     1160.856        1.028        0.516      101.240       25.741        0.065      336.866        8.453      852.054
02/26/2014  23:58:00        7.504     -161.508       -5.950       84.558      113.394       61.481     7150.019    12858.117     3779.918        2.498        1.189      161.683       56.145        0.121      336.906        8.520      852.054
02/26/2014  23:59:00      -24.419     -211.315       -1.293       79.384      166.302       57.243     6301.819    27656.510     3276.722        4.124        1.862      212.721       65.174        0.094      336.846        8.421      852.101
